<?xml version="1.0" encoding="utf-8"?>
<gpx xmlns:xsi="http://www.w3.org/2001/XMLSchema-instance" xmlns:xsd="http://www.w3.org/2001/XMLSchema" version="1.1" creator="Shapelink.com" xmlns="http://www.topografix.com/GPX/1/1" xmlns:gpxtpx="http://www.garmin.com/xmlschemas/TrackPointExtension/v1">
  <metadata>
    <name>Sykling 42.58 km, 2019-01-10</name>
    <desc></desc>
    <author><name>Stefan Östlund</name></author> 
    <time>2019-01-10T12:59:38Z</time>
  </metadata>
  <trk>
    <name>Sykling 42.58 km, 2019-01-10</name>
    <trkseg>
      <trkpt lat="36.743738047484" lon="-3.904503261364">
        <ele>19.4</ele>
        <time>2019-01-10T12:59:38Z</time>
      </trkpt>
      <trkpt lat="36.743701083305" lon="-3.90457316641">
        <ele>21</ele>
        <time>2019-01-10T12:59:40Z</time>
      </trkpt>
      <trkpt lat="36.743615755563" lon="-3.904818672261">
        <ele>21.6</ele>
        <time>2019-01-10T12:59:46Z</time>
      </trkpt>
      <trkpt lat="36.743568733104" lon="-3.904961499837">
        <ele>22</ele>
        <time>2019-01-10T12:59:49Z</time>
      </trkpt>
      <trkpt lat="36.743499666248" lon="-3.905240030374">
        <ele>22.8</ele>
        <time>2019-01-10T12:59:55Z</time>
      </trkpt>
      <trkpt lat="36.743482818629" lon="-3.905477070506">
        <ele>23.2</ele>
        <time>2019-01-10T13:00:00Z</time>
      </trkpt>
      <trkpt lat="36.74348944033" lon="-3.905790637385">
        <ele>23.8</ele>
        <time>2019-01-10T13:00:06Z</time>
      </trkpt>
      <trkpt lat="36.743523554663" lon="-3.906137648045">
        <ele>24.2</ele>
        <time>2019-01-10T13:00:12Z</time>
      </trkpt>
      <trkpt lat="36.743548784182" lon="-3.906502931247">
        <ele>24.2</ele>
        <time>2019-01-10T13:00:18Z</time>
      </trkpt>
      <trkpt lat="36.743500001524" lon="-3.906940298789">
        <ele>24.8</ele>
        <time>2019-01-10T13:00:24Z</time>
      </trkpt>
      <trkpt lat="36.743394808679" lon="-3.907411529207">
        <ele>24.6</ele>
        <time>2019-01-10T13:00:30Z</time>
      </trkpt>
      <trkpt lat="36.743396987973" lon="-3.907570701488">
        <ele>24.4</ele>
        <time>2019-01-10T13:00:32Z</time>
      </trkpt>
      <trkpt lat="36.743440070939" lon="-3.907787792698">
        <ele>24.2</ele>
        <time>2019-01-10T13:00:35Z</time>
      </trkpt>
      <trkpt lat="36.743427246632" lon="-3.907934978862">
        <ele>24.2</ele>
        <time>2019-01-10T13:00:37Z</time>
      </trkpt>
      <trkpt lat="36.743364885296" lon="-3.908070514185">
        <ele>24.2</ele>
        <time>2019-01-10T13:00:39Z</time>
      </trkpt>
      <trkpt lat="36.743108650613" lon="-3.908470582272">
        <ele>23.4</ele>
        <time>2019-01-10T13:00:45Z</time>
      </trkpt>
      <trkpt lat="36.742921650424" lon="-3.908992858461">
        <ele>23.6</ele>
        <time>2019-01-10T13:00:51Z</time>
      </trkpt>
      <trkpt lat="36.7428800762" lon="-3.909192599138">
        <ele>23</ele>
        <time>2019-01-10T13:00:53Z</time>
      </trkpt>
      <trkpt lat="36.742839507804" lon="-3.909636001648">
        <ele>22</ele>
        <time>2019-01-10T13:00:57Z</time>
      </trkpt>
      <trkpt lat="36.742848644075" lon="-3.909995082244">
        <ele>20.6</ele>
        <time>2019-01-10T13:01:00Z</time>
      </trkpt>
      <trkpt lat="36.742871442843" lon="-3.910242515932">
        <ele>19.6</ele>
        <time>2019-01-10T13:01:02Z</time>
      </trkpt>
      <trkpt lat="36.742905473357" lon="-3.910627748056">
        <ele>18.4</ele>
        <time>2019-01-10T13:01:05Z</time>
      </trkpt>
      <trkpt lat="36.742930032324" lon="-3.910891610268">
        <ele>17</ele>
        <time>2019-01-10T13:01:07Z</time>
      </trkpt>
      <trkpt lat="36.742953585463" lon="-3.911159998706">
        <ele>15.6</ele>
        <time>2019-01-10T13:01:09Z</time>
      </trkpt>
      <trkpt lat="36.74297898262" lon="-3.911428051868">
        <ele>14.2</ele>
        <time>2019-01-10T13:01:11Z</time>
      </trkpt>
      <trkpt lat="36.74300915746" lon="-3.911830550706">
        <ele>13</ele>
        <time>2019-01-10T13:01:14Z</time>
      </trkpt>
      <trkpt lat="36.74299490823" lon="-3.912353748904">
        <ele>12</ele>
        <time>2019-01-10T13:01:18Z</time>
      </trkpt>
      <trkpt lat="36.742904467529" lon="-3.912820788372">
        <ele>10.8</ele>
        <time>2019-01-10T13:01:22Z</time>
      </trkpt>
      <trkpt lat="36.742746384895" lon="-3.91323166911">
        <ele>9.4</ele>
        <time>2019-01-10T13:01:26Z</time>
      </trkpt>
      <trkpt lat="36.742649657769" lon="-3.913415148901">
        <ele>8.2</ele>
        <time>2019-01-10T13:01:28Z</time>
      </trkpt>
      <trkpt lat="36.742328295723" lon="-3.913908842811">
        <ele>7.4</ele>
        <time>2019-01-10T13:01:34Z</time>
      </trkpt>
      <trkpt lat="36.742084466252" lon="-3.914307485975">
        <ele>7.2</ele>
        <time>2019-01-10T13:01:39Z</time>
      </trkpt>
      <trkpt lat="36.741859831332" lon="-3.914826325585">
        <ele>6.8</ele>
        <time>2019-01-10T13:01:45Z</time>
      </trkpt>
      <trkpt lat="36.741675010437" lon="-3.915360587891">
        <ele>6.6</ele>
        <time>2019-01-10T13:01:51Z</time>
      </trkpt>
      <trkpt lat="36.741497984709" lon="-3.915873057257">
        <ele>6.2</ele>
        <time>2019-01-10T13:01:57Z</time>
      </trkpt>
      <trkpt lat="36.741468396602" lon="-3.915956876257">
        <ele>6.2</ele>
        <time>2019-01-10T13:01:58Z</time>
      </trkpt>
      <trkpt lat="36.741331184899" lon="-3.916483427215">
        <ele>6</ele>
        <time>2019-01-10T13:02:04Z</time>
      </trkpt>
      <trkpt lat="36.741275696721" lon="-3.917043924868">
        <ele>6.6</ele>
        <time>2019-01-10T13:02:10Z</time>
      </trkpt>
      <trkpt lat="36.741241582388" lon="-3.917608613471">
        <ele>7</ele>
        <time>2019-01-10T13:02:16Z</time>
      </trkpt>
      <trkpt lat="36.741207132779" lon="-3.918181851612">
        <ele>6.8</ele>
        <time>2019-01-10T13:02:22Z</time>
      </trkpt>
      <trkpt lat="36.741167234935" lon="-3.918763471653">
        <ele>6.4</ele>
        <time>2019-01-10T13:02:28Z</time>
      </trkpt>
      <trkpt lat="36.741128762014" lon="-3.919355317612">
        <ele>6.6</ele>
        <time>2019-01-10T13:02:34Z</time>
      </trkpt>
      <trkpt lat="36.741092552206" lon="-3.919960742249">
        <ele>6.2</ele>
        <time>2019-01-10T13:02:40Z</time>
      </trkpt>
      <trkpt lat="36.741054666018" lon="-3.920550073638">
        <ele>6.4</ele>
        <time>2019-01-10T13:02:46Z</time>
      </trkpt>
      <trkpt lat="36.740989035741" lon="-3.921116438621">
        <ele>6.6</ele>
        <time>2019-01-10T13:02:52Z</time>
      </trkpt>
      <trkpt lat="36.740854590065" lon="-3.921643073398">
        <ele>7</ele>
        <time>2019-01-10T13:02:58Z</time>
      </trkpt>
      <trkpt lat="36.74072676609" lon="-3.921963429616">
        <ele>7.2</ele>
        <time>2019-01-10T13:03:02Z</time>
      </trkpt>
      <trkpt lat="36.740504059007" lon="-3.922409514334">
        <ele>7.6</ele>
        <time>2019-01-10T13:03:08Z</time>
      </trkpt>
      <trkpt lat="36.740271964196" lon="-3.922839673442">
        <ele>7.8</ele>
        <time>2019-01-10T13:03:14Z</time>
      </trkpt>
      <trkpt lat="36.740045569077" lon="-3.923261953564">
        <ele>8.2</ele>
        <time>2019-01-10T13:03:20Z</time>
      </trkpt>
      <trkpt lat="36.739823951641" lon="-3.923664200945">
        <ele>9</ele>
        <time>2019-01-10T13:03:26Z</time>
      </trkpt>
      <trkpt lat="36.739604848775" lon="-3.924078099167">
        <ele>9.2</ele>
        <time>2019-01-10T13:03:32Z</time>
      </trkpt>
      <trkpt lat="36.739375352353" lon="-3.92449442814">
        <ele>9.8</ele>
        <time>2019-01-10T13:03:38Z</time>
      </trkpt>
      <trkpt lat="36.739215760977" lon="-3.924759882913">
        <ele>10.4</ele>
        <time>2019-01-10T13:03:42Z</time>
      </trkpt>
      <trkpt lat="36.738994981731" lon="-3.925125333753">
        <ele>11</ele>
        <time>2019-01-10T13:03:48Z</time>
      </trkpt>
      <trkpt lat="36.738741848351" lon="-3.925461028848">
        <ele>11.2</ele>
        <time>2019-01-10T13:03:54Z</time>
      </trkpt>
      <trkpt lat="36.738459043045" lon="-3.925745929629">
        <ele>11.2</ele>
        <time>2019-01-10T13:04:00Z</time>
      </trkpt>
      <trkpt lat="36.738360890996" lon="-3.925833185208">
        <ele>11.4</ele>
        <time>2019-01-10T13:04:02Z</time>
      </trkpt>
      <trkpt lat="36.738056125112" lon="-3.926076008851">
        <ele>12</ele>
        <time>2019-01-10T13:04:08Z</time>
      </trkpt>
      <trkpt lat="36.737753454703" lon="-3.926331070068">
        <ele>12.4</ele>
        <time>2019-01-10T13:04:14Z</time>
      </trkpt>
      <trkpt lat="36.737655889387" lon="-3.926432491058">
        <ele>12.6</ele>
        <time>2019-01-10T13:04:16Z</time>
      </trkpt>
      <trkpt lat="36.737461932221" lon="-3.926749243059">
        <ele>13.4</ele>
        <time>2019-01-10T13:04:21Z</time>
      </trkpt>
      <trkpt lat="36.73733293478" lon="-3.927236902001">
        <ele>12.6</ele>
        <time>2019-01-10T13:04:27Z</time>
      </trkpt>
      <trkpt lat="36.737281134638" lon="-3.927766470443">
        <ele>12.6</ele>
        <time>2019-01-10T13:04:33Z</time>
      </trkpt>
      <trkpt lat="36.737222377519" lon="-3.928291764116">
        <ele>12.4</ele>
        <time>2019-01-10T13:04:39Z</time>
      </trkpt>
      <trkpt lat="36.737085501092" lon="-3.928797276505">
        <ele>12.2</ele>
        <time>2019-01-10T13:04:45Z</time>
      </trkpt>
      <trkpt lat="36.736910151744" lon="-3.929306309292">
        <ele>12.4</ele>
        <time>2019-01-10T13:04:51Z</time>
      </trkpt>
      <trkpt lat="36.736745950323" lon="-3.929864460013">
        <ele>11.6</ele>
        <time>2019-01-10T13:04:57Z</time>
      </trkpt>
      <trkpt lat="36.736723403012" lon="-3.929965881003">
        <ele>11.4</ele>
        <time>2019-01-10T13:04:58Z</time>
      </trkpt>
      <trkpt lat="36.736663807703" lon="-3.930275927484">
        <ele>10.2</ele>
        <time>2019-01-10T13:05:01Z</time>
      </trkpt>
      <trkpt lat="36.736557106116" lon="-3.930886967994">
        <ele>9.8</ele>
        <time>2019-01-10T13:05:07Z</time>
      </trkpt>
      <trkpt lat="36.736415032911" lon="-3.931481663799">
        <ele>9.2</ele>
        <time>2019-01-10T13:05:13Z</time>
      </trkpt>
      <trkpt lat="36.736196935873" lon="-3.932027157851">
        <ele>8.4</ele>
        <time>2019-01-10T13:05:19Z</time>
      </trkpt>
      <trkpt lat="36.73611420652" lon="-3.932194795851">
        <ele>8</ele>
        <time>2019-01-10T13:05:21Z</time>
      </trkpt>
      <trkpt lat="36.735863671529" lon="-3.932666445364">
        <ele>7.6</ele>
        <time>2019-01-10T13:05:27Z</time>
      </trkpt>
      <trkpt lat="36.735620093515" lon="-3.933118984145">
        <ele>9</ele>
        <time>2019-01-10T13:05:33Z</time>
      </trkpt>
      <trkpt lat="36.73539252493" lon="-3.93356364394">
        <ele>9</ele>
        <time>2019-01-10T13:05:39Z</time>
      </trkpt>
      <trkpt lat="36.735190604959" lon="-3.934032527426">
        <ele>8.8</ele>
        <time>2019-01-10T13:05:45Z</time>
      </trkpt>
      <trkpt lat="36.735009891195" lon="-3.934522617119">
        <ele>8.6</ele>
        <time>2019-01-10T13:05:51Z</time>
      </trkpt>
      <trkpt lat="36.734928922041" lon="-3.934774493214">
        <ele>8.8</ele>
        <time>2019-01-10T13:05:54Z</time>
      </trkpt>
      <trkpt lat="36.734790955967" lon="-3.935306660045">
        <ele>8.8</ele>
        <time>2019-01-10T13:06:00Z</time>
      </trkpt>
      <trkpt lat="36.734653744264" lon="-3.935879395272">
        <ele>8</ele>
        <time>2019-01-10T13:06:06Z</time>
      </trkpt>
      <trkpt lat="36.734552574731" lon="-3.936265549405">
        <ele>7</ele>
        <time>2019-01-10T13:06:10Z</time>
      </trkpt>
      <trkpt lat="36.73435987485" lon="-3.936850270749">
        <ele>6.2</ele>
        <time>2019-01-10T13:06:16Z</time>
      </trkpt>
      <trkpt lat="36.734176897973" lon="-3.937336253311">
        <ele>5.8</ele>
        <time>2019-01-10T13:06:21Z</time>
      </trkpt>
      <trkpt lat="36.733963913894" lon="-3.937885183942">
        <ele>5</ele>
        <time>2019-01-10T13:06:27Z</time>
      </trkpt>
      <trkpt lat="36.733761323371" lon="-3.938471078752">
        <ele>5.4</ele>
        <time>2019-01-10T13:06:33Z</time>
      </trkpt>
      <trkpt lat="36.733569713137" lon="-3.939066193652">
        <ele>4.8</ele>
        <time>2019-01-10T13:06:39Z</time>
      </trkpt>
      <trkpt lat="36.733392855047" lon="-3.939656363231">
        <ele>4.8</ele>
        <time>2019-01-10T13:06:45Z</time>
      </trkpt>
      <trkpt lat="36.733211135455" lon="-3.940263715705">
        <ele>4.8</ele>
        <time>2019-01-10T13:06:51Z</time>
      </trkpt>
      <trkpt lat="36.733027068931" lon="-3.94086595522">
        <ele>5.2</ele>
        <time>2019-01-10T13:06:57Z</time>
      </trkpt>
      <trkpt lat="36.732844678787" lon="-3.941440618284">
        <ele>4.2</ele>
        <time>2019-01-10T13:07:03Z</time>
      </trkpt>
      <trkpt lat="36.732674777674" lon="-3.941995667702">
        <ele>4.8</ele>
        <time>2019-01-10T13:07:09Z</time>
      </trkpt>
      <trkpt lat="36.732514934841" lon="-3.942546190894">
        <ele>4.6</ele>
        <time>2019-01-10T13:07:15Z</time>
      </trkpt>
      <trkpt lat="36.732356349293" lon="-3.943078525363">
        <ele>4.4</ele>
        <time>2019-01-10T13:07:21Z</time>
      </trkpt>
      <trkpt lat="36.73220572655" lon="-3.943617062438">
        <ele>4.8</ele>
        <time>2019-01-10T13:07:27Z</time>
      </trkpt>
      <trkpt lat="36.73205988149" lon="-3.944164065232">
        <ele>4.4</ele>
        <time>2019-01-10T13:07:33Z</time>
      </trkpt>
      <trkpt lat="36.731914539344" lon="-3.944720455754">
        <ele>4.8</ele>
        <time>2019-01-10T13:07:39Z</time>
      </trkpt>
      <trkpt lat="36.731764587153" lon="-3.945277516828">
        <ele>4.8</ele>
        <time>2019-01-10T13:07:45Z</time>
      </trkpt>
      <trkpt lat="36.731611533659" lon="-3.945827704744">
        <ele>4.2</ele>
        <time>2019-01-10T13:07:51Z</time>
      </trkpt>
      <trkpt lat="36.731470131006" lon="-3.94637286352">
        <ele>4.2</ele>
        <time>2019-01-10T13:07:57Z</time>
      </trkpt>
      <trkpt lat="36.731321939014" lon="-3.946918106115">
        <ele>4.8</ele>
        <time>2019-01-10T13:08:03Z</time>
      </trkpt>
      <trkpt lat="36.731178440886" lon="-3.947453038973">
        <ele>4.8</ele>
        <time>2019-01-10T13:08:09Z</time>
      </trkpt>
      <trkpt lat="36.731025303573" lon="-3.947994174437">
        <ele>5</ele>
        <time>2019-01-10T13:08:15Z</time>
      </trkpt>
      <trkpt lat="36.730879123237" lon="-3.948535645177">
        <ele>5.2</ele>
        <time>2019-01-10T13:08:21Z</time>
      </trkpt>
      <trkpt lat="36.730724980096" lon="-3.94907099713">
        <ele>5.2</ele>
        <time>2019-01-10T13:08:27Z</time>
      </trkpt>
      <trkpt lat="36.730632695377" lon="-3.949426222052">
        <ele>5.8</ele>
        <time>2019-01-10T13:08:31Z</time>
      </trkpt>
      <trkpt lat="36.730487772326" lon="-3.949952437734">
        <ele>6</ele>
        <time>2019-01-10T13:08:37Z</time>
      </trkpt>
      <trkpt lat="36.730354081021" lon="-3.950445461092">
        <ele>6.4</ele>
        <time>2019-01-10T13:08:43Z</time>
      </trkpt>
      <trkpt lat="36.730227765788" lon="-3.950889617973">
        <ele>6.8</ele>
        <time>2019-01-10T13:08:49Z</time>
      </trkpt>
      <trkpt lat="36.730133134137" lon="-3.951224139602">
        <ele>8</ele>
        <time>2019-01-10T13:08:54Z</time>
      </trkpt>
      <trkpt lat="36.730110922102" lon="-3.951350371016">
        <ele>9.2</ele>
        <time>2019-01-10T13:08:56Z</time>
      </trkpt>
      <trkpt lat="36.730030791138" lon="-3.951721437729">
        <ele>10</ele>
        <time>2019-01-10T13:09:02Z</time>
      </trkpt>
      <trkpt lat="36.730016625727" lon="-3.951782877056">
        <ele>10.2</ele>
        <time>2019-01-10T13:09:03Z</time>
      </trkpt>
      <trkpt lat="36.729938590238" lon="-3.952166265162">
        <ele>10.6</ele>
        <time>2019-01-10T13:09:09Z</time>
      </trkpt>
      <trkpt lat="36.729906990475" lon="-3.95236005469">
        <ele>11.2</ele>
        <time>2019-01-10T13:09:12Z</time>
      </trkpt>
      <trkpt lat="36.729856196161" lon="-3.952751154144">
        <ele>11.8</ele>
        <time>2019-01-10T13:09:18Z</time>
      </trkpt>
      <trkpt lat="36.729833732669" lon="-3.952959779635">
        <ele>12.2</ele>
        <time>2019-01-10T13:09:21Z</time>
      </trkpt>
      <trkpt lat="36.729797271404" lon="-3.953389938743">
        <ele>12.4</ele>
        <time>2019-01-10T13:09:27Z</time>
      </trkpt>
      <trkpt lat="36.729867511726" lon="-3.953846584655">
        <ele>13</ele>
        <time>2019-01-10T13:09:33Z</time>
      </trkpt>
      <trkpt lat="36.729881928594" lon="-3.953922021755">
        <ele>13</ele>
        <time>2019-01-10T13:09:34Z</time>
      </trkpt>
      <trkpt lat="36.729868936649" lon="-3.954074320878">
        <ele>13</ele>
        <time>2019-01-10T13:09:36Z</time>
      </trkpt>
      <trkpt lat="36.729702388296" lon="-3.954517388112">
        <ele>13.2</ele>
        <time>2019-01-10T13:09:42Z</time>
      </trkpt>
      <trkpt lat="36.729648492679" lon="-3.955025331252">
        <ele>13.2</ele>
        <time>2019-01-10T13:09:48Z</time>
      </trkpt>
      <trkpt lat="36.729604152428" lon="-3.955568143096">
        <ele>12.2</ele>
        <time>2019-01-10T13:09:54Z</time>
      </trkpt>
      <trkpt lat="36.729530643165" lon="-3.956473220658">
        <ele>10</ele>
        <time>2019-01-10T13:10:04Z</time>
      </trkpt>
      <trkpt lat="36.729493762805" lon="-3.95701787652">
        <ele>10.8</ele>
        <time>2019-01-10T13:10:10Z</time>
      </trkpt>
      <trkpt lat="36.729487224923" lon="-3.95754845079">
        <ele>11</ele>
        <time>2019-01-10T13:10:16Z</time>
      </trkpt>
      <trkpt lat="36.729557716702" lon="-3.958067960952">
        <ele>11.8</ele>
        <time>2019-01-10T13:10:22Z</time>
      </trkpt>
      <trkpt lat="36.729592753044" lon="-3.958231240364">
        <ele>12.2</ele>
        <time>2019-01-10T13:10:24Z</time>
      </trkpt>
      <trkpt lat="36.729635333096" lon="-3.958386976066">
        <ele>12.2</ele>
        <time>2019-01-10T13:10:26Z</time>
      </trkpt>
      <trkpt lat="36.729789895332" lon="-3.958830713852">
        <ele>13.2</ele>
        <time>2019-01-10T13:10:32Z</time>
      </trkpt>
      <trkpt lat="36.729891148684" lon="-3.959214437234">
        <ele>14</ele>
        <time>2019-01-10T13:10:37Z</time>
      </trkpt>
      <trkpt lat="36.730023247428" lon="-3.959471174831">
        <ele>14.2</ele>
        <time>2019-01-10T13:10:41Z</time>
      </trkpt>
      <trkpt lat="36.730149814118" lon="-3.95960620724">
        <ele>14.4</ele>
        <time>2019-01-10T13:10:44Z</time>
      </trkpt>
      <trkpt lat="36.730447706844" lon="-3.9598274894">
        <ele>15.4</ele>
        <time>2019-01-10T13:10:50Z</time>
      </trkpt>
      <trkpt lat="36.730725818286" lon="-3.959967299492">
        <ele>16</ele>
        <time>2019-01-10T13:10:55Z</time>
      </trkpt>
      <trkpt lat="36.731024884478" lon="-3.960019602548">
        <ele>16.6</ele>
        <time>2019-01-10T13:11:00Z</time>
      </trkpt>
      <trkpt lat="36.731376337545" lon="-3.960077856753">
        <ele>17.6</ele>
        <time>2019-01-10T13:11:06Z</time>
      </trkpt>
      <trkpt lat="36.731434675569" lon="-3.960085568101">
        <ele>17.6</ele>
        <time>2019-01-10T13:11:07Z</time>
      </trkpt>
      <trkpt lat="36.731803982083" lon="-3.960135021311">
        <ele>17.4</ele>
        <time>2019-01-10T13:11:13Z</time>
      </trkpt>
      <trkpt lat="36.732174378244" lon="-3.960179193924">
        <ele>17</ele>
        <time>2019-01-10T13:11:19Z</time>
      </trkpt>
      <trkpt lat="36.732257945787" lon="-3.960139715175">
        <ele>17.2</ele>
        <time>2019-01-10T13:11:21Z</time>
      </trkpt>
      <trkpt lat="36.732331874145" lon="-3.960148935265">
        <ele>17.4</ele>
        <time>2019-01-10T13:11:23Z</time>
      </trkpt>
      <trkpt lat="36.732406221598" lon="-3.960204591081">
        <ele>17.4</ele>
        <time>2019-01-10T13:11:25Z</time>
      </trkpt>
      <trkpt lat="36.732495488833" lon="-3.960247171133">
        <ele>17.6</ele>
        <time>2019-01-10T13:11:27Z</time>
      </trkpt>
      <trkpt lat="36.732803020744" lon="-3.960296959619">
        <ele>17.8</ele>
        <time>2019-01-10T13:11:33Z</time>
      </trkpt>
      <trkpt lat="36.733141314228" lon="-3.960313388143">
        <ele>18.6</ele>
        <time>2019-01-10T13:11:39Z</time>
      </trkpt>
      <trkpt lat="36.733197808234" lon="-3.960306263528">
        <ele>18.6</ele>
        <time>2019-01-10T13:11:40Z</time>
      </trkpt>
      <trkpt lat="36.733526630171" lon="-3.960206099823">
        <ele>19.8</ele>
        <time>2019-01-10T13:11:46Z</time>
      </trkpt>
      <trkpt lat="36.733795018609" lon="-3.960117838416">
        <ele>20.8</ele>
        <time>2019-01-10T13:11:51Z</time>
      </trkpt>
      <trkpt lat="36.733997022399" lon="-3.960051453768">
        <ele>21.2</ele>
        <time>2019-01-10T13:11:55Z</time>
      </trkpt>
      <trkpt lat="36.734182849122" lon="-3.959988170423">
        <ele>22</ele>
        <time>2019-01-10T13:11:59Z</time>
      </trkpt>
      <trkpt lat="36.734448471533" lon="-3.959901417758">
        <ele>23.2</ele>
        <time>2019-01-10T13:12:05Z</time>
      </trkpt>
      <trkpt lat="36.734627173641" lon="-3.95984760596">
        <ele>24.2</ele>
        <time>2019-01-10T13:12:09Z</time>
      </trkpt>
      <trkpt lat="36.734895394441" lon="-3.959776108353">
        <ele>25.4</ele>
        <time>2019-01-10T13:12:15Z</time>
      </trkpt>
      <trkpt lat="36.7351184368" lon="-3.959721709822">
        <ele>26.4</ele>
        <time>2019-01-10T13:12:20Z</time>
      </trkpt>
      <trkpt lat="36.735390680912" lon="-3.959638812831">
        <ele>27.4</ele>
        <time>2019-01-10T13:12:26Z</time>
      </trkpt>
      <trkpt lat="36.735435524077" lon="-3.95962464742">
        <ele>27.4</ele>
        <time>2019-01-10T13:12:27Z</time>
      </trkpt>
      <trkpt lat="36.735702319954" lon="-3.959532697977">
        <ele>28.6</ele>
        <time>2019-01-10T13:12:33Z</time>
      </trkpt>
      <trkpt lat="36.735900887165" lon="-3.959449046615">
        <ele>29.6</ele>
        <time>2019-01-10T13:12:38Z</time>
      </trkpt>
      <trkpt lat="36.735943886312" lon="-3.95943689286">
        <ele>29.8</ele>
        <time>2019-01-10T13:12:39Z</time>
      </trkpt>
      <trkpt lat="36.736256279725" lon="-3.959400180138">
        <ele>30.2</ele>
        <time>2019-01-10T13:12:45Z</time>
      </trkpt>
      <trkpt lat="36.736596920141" lon="-3.959363886511">
        <ele>30.6</ele>
        <time>2019-01-10T13:12:51Z</time>
      </trkpt>
      <trkpt lat="36.736651234853" lon="-3.959356007525">
        <ele>30.8</ele>
        <time>2019-01-10T13:12:52Z</time>
      </trkpt>
      <trkpt lat="36.736920964395" lon="-3.959293143275">
        <ele>32</ele>
        <time>2019-01-10T13:12:57Z</time>
      </trkpt>
      <trkpt lat="36.737224137718" lon="-3.959187447516">
        <ele>33</ele>
        <time>2019-01-10T13:13:03Z</time>
      </trkpt>
      <trkpt lat="36.73752320391" lon="-3.959019893335">
        <ele>33.6</ele>
        <time>2019-01-10T13:13:09Z</time>
      </trkpt>
      <trkpt lat="36.737707940986" lon="-3.958906653866">
        <ele>34.2</ele>
        <time>2019-01-10T13:13:13Z</time>
      </trkpt>
      <trkpt lat="36.737970713551" lon="-3.958733567631">
        <ele>35</ele>
        <time>2019-01-10T13:13:19Z</time>
      </trkpt>
      <trkpt lat="36.738015305259" lon="-3.958702135506">
        <ele>35.2</ele>
        <time>2019-01-10T13:13:20Z</time>
      </trkpt>
      <trkpt lat="36.738324597369" lon="-3.958500969906">
        <ele>35.4</ele>
        <time>2019-01-10T13:13:26Z</time>
      </trkpt>
      <trkpt lat="36.738653335487" lon="-3.958240041359">
        <ele>35.8</ele>
        <time>2019-01-10T13:13:32Z</time>
      </trkpt>
      <trkpt lat="36.738985594003" lon="-3.957931335982">
        <ele>35.6</ele>
        <time>2019-01-10T13:13:38Z</time>
      </trkpt>
      <trkpt lat="36.739334197224" lon="-3.95763729893">
        <ele>35.6</ele>
        <time>2019-01-10T13:13:44Z</time>
      </trkpt>
      <trkpt lat="36.739470654556" lon="-3.957568902626">
        <ele>35.4</ele>
        <time>2019-01-10T13:13:46Z</time>
      </trkpt>
      <trkpt lat="36.739612476304" lon="-3.957534285379">
        <ele>34.8</ele>
        <time>2019-01-10T13:13:48Z</time>
      </trkpt>
      <trkpt lat="36.739835937758" lon="-3.957516096656">
        <ele>34</ele>
        <time>2019-01-10T13:13:51Z</time>
      </trkpt>
      <trkpt lat="36.740069122216" lon="-3.957477539916">
        <ele>34</ele>
        <time>2019-01-10T13:13:54Z</time>
      </trkpt>
      <trkpt lat="36.740207842661" lon="-3.957387015396">
        <ele>33.6</ele>
        <time>2019-01-10T13:13:56Z</time>
      </trkpt>
      <trkpt lat="36.740308760737" lon="-3.957249719874">
        <ele>33.6</ele>
        <time>2019-01-10T13:13:58Z</time>
      </trkpt>
      <trkpt lat="36.740378330507" lon="-3.957094067991">
        <ele>33.6</ele>
        <time>2019-01-10T13:14:00Z</time>
      </trkpt>
      <trkpt lat="36.740399788171" lon="-3.956927603457">
        <ele>34</ele>
        <time>2019-01-10T13:14:02Z</time>
      </trkpt>
      <trkpt lat="36.740407583338" lon="-3.956689641316">
        <ele>34</ele>
        <time>2019-01-10T13:14:05Z</time>
      </trkpt>
      <trkpt lat="36.740462903878" lon="-3.956546310826">
        <ele>33.6</ele>
        <time>2019-01-10T13:14:07Z</time>
      </trkpt>
      <trkpt lat="36.740562564669" lon="-3.956448913148">
        <ele>33.2</ele>
        <time>2019-01-10T13:14:09Z</time>
      </trkpt>
      <trkpt lat="36.740619393951" lon="-3.956428796588">
        <ele>33</ele>
        <time>2019-01-10T13:14:10Z</time>
      </trkpt>
      <trkpt lat="36.740680078907" lon="-3.95642946714">
        <ele>33</ele>
        <time>2019-01-10T13:14:11Z</time>
      </trkpt>
      <trkpt lat="36.740802287009" lon="-3.956488475716">
        <ele>32.8</ele>
        <time>2019-01-10T13:14:13Z</time>
      </trkpt>
      <trkpt lat="36.740896248108" lon="-3.956593836199">
        <ele>32.6</ele>
        <time>2019-01-10T13:14:15Z</time>
      </trkpt>
      <trkpt lat="36.740976714348" lon="-3.956811011228">
        <ele>32.8</ele>
        <time>2019-01-10T13:14:18Z</time>
      </trkpt>
      <trkpt lat="36.741053744009" lon="-3.956930872398">
        <ele>33.4</ele>
        <time>2019-01-10T13:14:20Z</time>
      </trkpt>
      <trkpt lat="36.74115424299" lon="-3.957015110493">
        <ele>33.8</ele>
        <time>2019-01-10T13:14:22Z</time>
      </trkpt>
      <trkpt lat="36.741208473883" lon="-3.957046710256">
        <ele>34</ele>
        <time>2019-01-10T13:14:23Z</time>
      </trkpt>
      <trkpt lat="36.741261950405" lon="-3.957076885096">
        <ele>34</ele>
        <time>2019-01-10T13:14:24Z</time>
      </trkpt>
      <trkpt lat="36.741554311077" lon="-3.957241924707">
        <ele>34.8</ele>
        <time>2019-01-10T13:14:30Z</time>
      </trkpt>
      <trkpt lat="36.741635783145" lon="-3.957297748161">
        <ele>35.4</ele>
        <time>2019-01-10T13:14:32Z</time>
      </trkpt>
      <trkpt lat="36.741718596317" lon="-3.957343261878">
        <ele>36.4</ele>
        <time>2019-01-10T13:14:34Z</time>
      </trkpt>
      <trkpt lat="36.741830159406" lon="-3.957405790852">
        <ele>37.4</ele>
        <time>2019-01-10T13:14:37Z</time>
      </trkpt>
      <trkpt lat="36.741965024177" lon="-3.957483407246">
        <ele>38.6</ele>
        <time>2019-01-10T13:14:41Z</time>
      </trkpt>
      <trkpt lat="36.742101649147" lon="-3.957565130771">
        <ele>39.8</ele>
        <time>2019-01-10T13:14:45Z</time>
      </trkpt>
      <trkpt lat="36.74226987388" lon="-3.957665126838">
        <ele>41</ele>
        <time>2019-01-10T13:14:50Z</time>
      </trkpt>
      <trkpt lat="36.742396775846" lon="-3.957749281114">
        <ele>42.2</ele>
        <time>2019-01-10T13:14:54Z</time>
      </trkpt>
      <trkpt lat="36.742491239859" lon="-3.957809798432">
        <ele>43.4</ele>
        <time>2019-01-10T13:14:57Z</time>
      </trkpt>
      <trkpt lat="36.742688801242" lon="-3.95793653276">
        <ele>44.2</ele>
        <time>2019-01-10T13:15:03Z</time>
      </trkpt>
      <trkpt lat="36.742724424317" lon="-3.957957068415">
        <ele>44.6</ele>
        <time>2019-01-10T13:15:04Z</time>
      </trkpt>
      <trkpt lat="36.742833891931" lon="-3.958019848846">
        <ele>45.6</ele>
        <time>2019-01-10T13:15:07Z</time>
      </trkpt>
      <trkpt lat="36.742974372575" lon="-3.958104841312">
        <ele>46.6</ele>
        <time>2019-01-10T13:15:11Z</time>
      </trkpt>
      <trkpt lat="36.743176963098" lon="-3.958233838753">
        <ele>47.8</ele>
        <time>2019-01-10T13:15:17Z</time>
      </trkpt>
      <trkpt lat="36.743305206168" lon="-3.95830785093">
        <ele>48.8</ele>
        <time>2019-01-10T13:15:21Z</time>
      </trkpt>
      <trkpt lat="36.7434668092" lon="-3.958398459269">
        <ele>50</ele>
        <time>2019-01-10T13:15:26Z</time>
      </trkpt>
      <trkpt lat="36.743591783329" lon="-3.958474902197">
        <ele>51.2</ele>
        <time>2019-01-10T13:15:30Z</time>
      </trkpt>
      <trkpt lat="36.743786913961" lon="-3.958585124182">
        <ele>52.4</ele>
        <time>2019-01-10T13:15:36Z</time>
      </trkpt>
      <trkpt lat="36.743921191999" lon="-3.958661148015">
        <ele>53.4</ele>
        <time>2019-01-10T13:15:40Z</time>
      </trkpt>
      <trkpt lat="36.744052871648" lon="-3.95873281326">
        <ele>54.6</ele>
        <time>2019-01-10T13:15:44Z</time>
      </trkpt>
      <trkpt lat="36.744178767786" lon="-3.958811016387">
        <ele>55.6</ele>
        <time>2019-01-10T13:15:48Z</time>
      </trkpt>
      <trkpt lat="36.744334084393" lon="-3.958907324418">
        <ele>56.8</ele>
        <time>2019-01-10T13:15:53Z</time>
      </trkpt>
      <trkpt lat="36.744518402374" lon="-3.959012852539">
        <ele>57.8</ele>
        <time>2019-01-10T13:15:59Z</time>
      </trkpt>
      <trkpt lat="36.744642119218" lon="-3.959078482816">
        <ele>59</ele>
        <time>2019-01-10T13:16:03Z</time>
      </trkpt>
      <trkpt lat="36.744769943193" lon="-3.959147633491">
        <ele>60</ele>
        <time>2019-01-10T13:16:07Z</time>
      </trkpt>
      <trkpt lat="36.74487748297" lon="-3.959212593216">
        <ele>61</ele>
        <time>2019-01-10T13:16:11Z</time>
      </trkpt>
      <trkpt lat="36.745002792375" lon="-3.959280570425">
        <ele>62.2</ele>
        <time>2019-01-10T13:16:15Z</time>
      </trkpt>
      <trkpt lat="36.745169592185" lon="-3.959377129913">
        <ele>63.2</ele>
        <time>2019-01-10T13:16:20Z</time>
      </trkpt>
      <trkpt lat="36.745368746129" lon="-3.959493386866">
        <ele>64.6</ele>
        <time>2019-01-10T13:16:26Z</time>
      </trkpt>
      <trkpt lat="36.745512663352" lon="-3.959568907785">
        <ele>65.6</ele>
        <time>2019-01-10T13:16:30Z</time>
      </trkpt>
      <trkpt lat="36.745734280788" lon="-3.959655073717">
        <ele>66.4</ele>
        <time>2019-01-10T13:16:36Z</time>
      </trkpt>
      <trkpt lat="36.745841820565" lon="-3.959689690964">
        <ele>66.6</ele>
        <time>2019-01-10T13:16:39Z</time>
      </trkpt>
      <trkpt lat="36.746075507937" lon="-3.959730510817">
        <ele>67.8</ele>
        <time>2019-01-10T13:16:45Z</time>
      </trkpt>
      <trkpt lat="36.746338196683" lon="-3.959726655143">
        <ele>68.8</ele>
        <time>2019-01-10T13:16:51Z</time>
      </trkpt>
      <trkpt lat="36.746385051504" lon="-3.959722296555">
        <ele>69</ele>
        <time>2019-01-10T13:16:52Z</time>
      </trkpt>
      <trkpt lat="36.746671461027" lon="-3.959664126169">
        <ele>69.8</ele>
        <time>2019-01-10T13:16:58Z</time>
      </trkpt>
      <trkpt lat="36.746867848944" lon="-3.959597490064">
        <ele>70</ele>
        <time>2019-01-10T13:17:02Z</time>
      </trkpt>
      <trkpt lat="36.747173117742" lon="-3.959484753509">
        <ele>70</ele>
        <time>2019-01-10T13:17:08Z</time>
      </trkpt>
      <trkpt lat="36.747484756784" lon="-3.959371681678">
        <ele>70.6</ele>
        <time>2019-01-10T13:17:14Z</time>
      </trkpt>
      <trkpt lat="36.747581232453" lon="-3.959335555689">
        <ele>71.2</ele>
        <time>2019-01-10T13:17:16Z</time>
      </trkpt>
      <trkpt lat="36.747802179337" lon="-3.959256262915">
        <ele>72.4</ele>
        <time>2019-01-10T13:17:21Z</time>
      </trkpt>
      <trkpt lat="36.747955568107" lon="-3.959212593216">
        <ele>73.4</ele>
        <time>2019-01-10T13:17:25Z</time>
      </trkpt>
      <trkpt lat="36.748109962705" lon="-3.959174790847">
        <ele>74.8</ele>
        <time>2019-01-10T13:17:29Z</time>
      </trkpt>
      <trkpt lat="36.748267710063" lon="-3.959133048985">
        <ele>75.8</ele>
        <time>2019-01-10T13:17:33Z</time>
      </trkpt>
      <trkpt lat="36.748456973365" lon="-3.959101868317">
        <ele>77</ele>
        <time>2019-01-10T13:17:38Z</time>
      </trkpt>
      <trkpt lat="36.748679009896" lon="-3.959085104517">
        <ele>78.2</ele>
        <time>2019-01-10T13:17:44Z</time>
      </trkpt>
      <trkpt lat="36.748816305418" lon="-3.959089127829">
        <ele>79.4</ele>
        <time>2019-01-10T13:17:48Z</time>
      </trkpt>
      <trkpt lat="36.748988553463" lon="-3.959093486417">
        <ele>80.4</ele>
        <time>2019-01-10T13:17:53Z</time>
      </trkpt>
      <trkpt lat="36.749122663863" lon="-3.959105640172">
        <ele>81.6</ele>
        <time>2019-01-10T13:17:57Z</time>
      </trkpt>
      <trkpt lat="36.749224923043" lon="-3.959120811411">
        <ele>82.6</ele>
        <time>2019-01-10T13:18:00Z</time>
      </trkpt>
      <trkpt lat="36.749394656518" lon="-3.959158529961">
        <ele>83.6</ele>
        <time>2019-01-10T13:18:05Z</time>
      </trkpt>
      <trkpt lat="36.749554918446" lon="-3.959197421977">
        <ele>84.8</ele>
        <time>2019-01-10T13:18:10Z</time>
      </trkpt>
      <trkpt lat="36.749710151234" lon="-3.959243857703">
        <ele>85.8</ele>
        <time>2019-01-10T13:18:15Z</time>
      </trkpt>
      <trkpt lat="36.749869407334" lon="-3.959300435528">
        <ele>87.2</ele>
        <time>2019-01-10T13:18:20Z</time>
      </trkpt>
      <trkpt lat="36.749963200795" lon="-3.959342009752">
        <ele>88.2</ele>
        <time>2019-01-10T13:18:23Z</time>
      </trkpt>
      <trkpt lat="36.750080463576" lon="-3.959409903142">
        <ele>89.4</ele>
        <time>2019-01-10T13:18:27Z</time>
      </trkpt>
      <trkpt lat="36.750219854573" lon="-3.959510485942">
        <ele>90.6</ele>
        <time>2019-01-10T13:18:32Z</time>
      </trkpt>
      <trkpt lat="36.750336111526" lon="-3.959586761232">
        <ele>91.6</ele>
        <time>2019-01-10T13:18:36Z</time>
      </trkpt>
      <trkpt lat="36.750454380135" lon="-3.959670161137">
        <ele>92.6</ele>
        <time>2019-01-10T13:18:40Z</time>
      </trkpt>
      <trkpt lat="36.750604080869" lon="-3.959779461113">
        <ele>93.8</ele>
        <time>2019-01-10T13:18:45Z</time>
      </trkpt>
      <trkpt lat="36.750788650307" lon="-3.959934526263">
        <ele>94.6</ele>
        <time>2019-01-10T13:18:51Z</time>
      </trkpt>
      <trkpt lat="36.750880683569" lon="-3.960017423254">
        <ele>95</ele>
        <time>2019-01-10T13:18:54Z</time>
      </trkpt>
      <trkpt lat="36.751056200555" lon="-3.960135691863">
        <ele>95.4</ele>
        <time>2019-01-10T13:18:59Z</time>
      </trkpt>
      <trkpt lat="36.751231466084" lon="-3.960158155355">
        <ele>95.8</ele>
        <time>2019-01-10T13:19:03Z</time>
      </trkpt>
      <trkpt lat="36.751273040308" lon="-3.960174164784">
        <ele>96</ele>
        <time>2019-01-10T13:19:04Z</time>
      </trkpt>
      <trkpt lat="36.751311010315" lon="-3.960199059027">
        <ele>96</ele>
        <time>2019-01-10T13:19:05Z</time>
      </trkpt>
      <trkpt lat="36.751370018891" lon="-3.96027256829">
        <ele>96.2</ele>
        <time>2019-01-10T13:19:07Z</time>
      </trkpt>
      <trkpt lat="36.75145392171" lon="-3.960464932895">
        <ele>96.4</ele>
        <time>2019-01-10T13:19:11Z</time>
      </trkpt>
      <trkpt lat="36.751517791788" lon="-3.960548919533">
        <ele>96.6</ele>
        <time>2019-01-10T13:19:13Z</time>
      </trkpt>
      <trkpt lat="36.751635557483" lon="-3.960632570895">
        <ele>97</ele>
        <time>2019-01-10T13:19:16Z</time>
      </trkpt>
      <trkpt lat="36.751774780842" lon="-3.960711360755">
        <ele>98.2</ele>
        <time>2019-01-10T13:19:20Z</time>
      </trkpt>
      <trkpt lat="36.751933785485" lon="-3.960730052392">
        <ele>99.4</ele>
        <time>2019-01-10T13:19:24Z</time>
      </trkpt>
      <trkpt lat="36.752020119055" lon="-3.960694429317">
        <ele>99.8</ele>
        <time>2019-01-10T13:19:26Z</time>
      </trkpt>
      <trkpt lat="36.752109553928" lon="-3.960660482622">
        <ele>100</ele>
        <time>2019-01-10T13:19:28Z</time>
      </trkpt>
      <trkpt lat="36.752200665181" lon="-3.960664086839">
        <ele>100</ele>
        <time>2019-01-10T13:19:30Z</time>
      </trkpt>
      <trkpt lat="36.752284065086" lon="-3.960711528393">
        <ele>100.2</ele>
        <time>2019-01-10T13:19:32Z</time>
      </trkpt>
      <trkpt lat="36.752376265986" lon="-3.960817559428">
        <ele>100.4</ele>
        <time>2019-01-10T13:19:35Z</time>
      </trkpt>
      <trkpt lat="36.752420270961" lon="-3.960901378428">
        <ele>100.6</ele>
        <time>2019-01-10T13:19:37Z</time>
      </trkpt>
      <trkpt lat="36.752488499627" lon="-3.960978659546">
        <ele>100.8</ele>
        <time>2019-01-10T13:19:39Z</time>
      </trkpt>
      <trkpt lat="36.752584304744" lon="-3.961032052249">
        <ele>101</ele>
        <time>2019-01-10T13:19:41Z</time>
      </trkpt>
      <trkpt lat="36.752694359091" lon="-3.961032303706">
        <ele>101.2</ele>
        <time>2019-01-10T13:19:43Z</time>
      </trkpt>
      <trkpt lat="36.752850597707" lon="-3.960964158859">
        <ele>101.4</ele>
        <time>2019-01-10T13:19:46Z</time>
      </trkpt>
      <trkpt lat="36.752944642625" lon="-3.960890984872">
        <ele>101.6</ele>
        <time>2019-01-10T13:19:48Z</time>
      </trkpt>
      <trkpt lat="36.75317640216" lon="-3.960677916974">
        <ele>102.4</ele>
        <time>2019-01-10T13:19:54Z</time>
      </trkpt>
      <trkpt lat="36.753209259208" lon="-3.960638522044">
        <ele>102.6</ele>
        <time>2019-01-10T13:19:55Z</time>
      </trkpt>
      <trkpt lat="36.753237422392" lon="-3.960597953648">
        <ele>102.8</ele>
        <time>2019-01-10T13:19:56Z</time>
      </trkpt>
      <trkpt lat="36.753331886405" lon="-3.960411959287">
        <ele>103.8</ele>
        <time>2019-01-10T13:20:00Z</time>
      </trkpt>
      <trkpt lat="36.753385279108" lon="-3.960199478122">
        <ele>104.8</ele>
        <time>2019-01-10T13:20:04Z</time>
      </trkpt>
      <trkpt lat="36.753393409551" lon="-3.960148683808">
        <ele>105.2</ele>
        <time>2019-01-10T13:20:05Z</time>
      </trkpt>
      <trkpt lat="36.753425093133" lon="-3.960005520956">
        <ele>106.4</ele>
        <time>2019-01-10T13:20:08Z</time>
      </trkpt>
      <trkpt lat="36.753467002633" lon="-3.959777198">
        <ele>107.6</ele>
        <time>2019-01-10T13:20:13Z</time>
      </trkpt>
      <trkpt lat="36.753506984296" lon="-3.959564884473">
        <ele>108.8</ele>
        <time>2019-01-10T13:20:18Z</time>
      </trkpt>
      <trkpt lat="36.753540679534" lon="-3.959403197622">
        <ele>110</ele>
        <time>2019-01-10T13:20:22Z</time>
      </trkpt>
      <trkpt lat="36.753600358662" lon="-3.959166073671">
        <ele>111.2</ele>
        <time>2019-01-10T13:20:28Z</time>
      </trkpt>
      <trkpt lat="36.75366422874" lon="-3.958975133989">
        <ele>112.2</ele>
        <time>2019-01-10T13:20:33Z</time>
      </trkpt>
      <trkpt lat="36.753747712464" lon="-3.958791905655">
        <ele>113.4</ele>
        <time>2019-01-10T13:20:38Z</time>
      </trkpt>
      <trkpt lat="36.75386371796" lon="-3.958579005395">
        <ele>114.6</ele>
        <time>2019-01-10T13:20:44Z</time>
      </trkpt>
      <trkpt lat="36.75400537207" lon="-3.958367949153">
        <ele>115.8</ele>
        <time>2019-01-10T13:20:50Z</time>
      </trkpt>
      <trkpt lat="36.754033535254" lon="-3.958330398241">
        <ele>116</ele>
        <time>2019-01-10T13:20:51Z</time>
      </trkpt>
      <trkpt lat="36.754194048639" lon="-3.958109535176">
        <ele>116.4</ele>
        <time>2019-01-10T13:20:57Z</time>
      </trkpt>
      <trkpt lat="36.754293793249" lon="-3.957992440033">
        <ele>116.8</ele>
        <time>2019-01-10T13:21:00Z</time>
      </trkpt>
      <trkpt lat="36.754517170884" lon="-3.957693038565">
        <ele>116.6</ele>
        <time>2019-01-10T13:21:06Z</time>
      </trkpt>
      <trkpt lat="36.754766867685" lon="-3.957287186967">
        <ele>116.2</ele>
        <time>2019-01-10T13:21:12Z</time>
      </trkpt>
      <trkpt lat="36.754938193721" lon="-3.956898937359">
        <ele>115.8</ele>
        <time>2019-01-10T13:21:17Z</time>
      </trkpt>
      <trkpt lat="36.755044979127" lon="-3.956572210897">
        <ele>114.4</ele>
        <time>2019-01-10T13:21:21Z</time>
      </trkpt>
      <trkpt lat="36.755193338757" lon="-3.956078600806">
        <ele>113.6</ele>
        <time>2019-01-10T13:21:27Z</time>
      </trkpt>
      <trkpt lat="36.755408083035" lon="-3.955674677045">
        <ele>114</ele>
        <time>2019-01-10T13:21:33Z</time>
      </trkpt>
      <trkpt lat="36.755547138756" lon="-3.955534783134">
        <ele>114.2</ele>
        <time>2019-01-10T13:21:36Z</time>
      </trkpt>
      <trkpt lat="36.75584016998" lon="-3.955366809858">
        <ele>115.2</ele>
        <time>2019-01-10T13:21:42Z</time>
      </trkpt>
      <trkpt lat="36.755888282086" lon="-3.955350297515">
        <ele>115.6</ele>
        <time>2019-01-10T13:21:43Z</time>
      </trkpt>
      <trkpt lat="36.756035971164" lon="-3.955327582566">
        <ele>116.6</ele>
        <time>2019-01-10T13:21:46Z</time>
      </trkpt>
      <trkpt lat="36.756084334727" lon="-3.95532892367">
        <ele>116.8</ele>
        <time>2019-01-10T13:21:47Z</time>
      </trkpt>
      <trkpt lat="36.75637325882" lon="-3.955385585314">
        <ele>117</ele>
        <time>2019-01-10T13:21:53Z</time>
      </trkpt>
      <trkpt lat="36.756519858251" lon="-3.955427746271">
        <ele>117.8</ele>
        <time>2019-01-10T13:21:56Z</time>
      </trkpt>
      <trkpt lat="36.756769219776" lon="-3.955498740964">
        <ele>118.8</ele>
        <time>2019-01-10T13:22:01Z</time>
      </trkpt>
      <trkpt lat="36.757020928233" lon="-3.955559928834">
        <ele>120</ele>
        <time>2019-01-10T13:22:06Z</time>
      </trkpt>
      <trkpt lat="36.757316054932" lon="-3.9556449213">
        <ele>121.2</ele>
        <time>2019-01-10T13:22:12Z</time>
      </trkpt>
      <trkpt lat="36.757601793903" lon="-3.955732344517">
        <ele>122.2</ele>
        <time>2019-01-10T13:22:18Z</time>
      </trkpt>
      <trkpt lat="36.757648816362" lon="-3.955745923195">
        <ele>122.4</ele>
        <time>2019-01-10T13:22:19Z</time>
      </trkpt>
      <trkpt lat="36.757926927804" lon="-3.955861593415">
        <ele>123.4</ele>
        <time>2019-01-10T13:22:25Z</time>
      </trkpt>
      <trkpt lat="36.758186179971" lon="-3.956042055722">
        <ele>124</ele>
        <time>2019-01-10T13:22:31Z</time>
      </trkpt>
      <trkpt lat="36.758364462984" lon="-3.956206760057">
        <ele>124.4</ele>
        <time>2019-01-10T13:22:35Z</time>
      </trkpt>
      <trkpt lat="36.758642406788" lon="-3.956489733001">
        <ele>124.4</ele>
        <time>2019-01-10T13:22:41Z</time>
      </trkpt>
      <trkpt lat="36.758920853506" lon="-3.956707410944">
        <ele>125.2</ele>
        <time>2019-01-10T13:22:47Z</time>
      </trkpt>
      <trkpt lat="36.759006767981" lon="-3.956757869982">
        <ele>125.6</ele>
        <time>2019-01-10T13:22:49Z</time>
      </trkpt>
      <trkpt lat="36.759146578073" lon="-3.95683012196">
        <ele>127</ele>
        <time>2019-01-10T13:22:53Z</time>
      </trkpt>
      <trkpt lat="36.759246155045" lon="-3.956878066428">
        <ele>128.2</ele>
        <time>2019-01-10T13:22:56Z</time>
      </trkpt>
      <trkpt lat="36.759376577409" lon="-3.95695082132">
        <ele>129.4</ele>
        <time>2019-01-10T13:23:00Z</time>
      </trkpt>
      <trkpt lat="36.759470538508" lon="-3.957000693625">
        <ele>130.4</ele>
        <time>2019-01-10T13:23:03Z</time>
      </trkpt>
      <trkpt lat="36.759563074684" lon="-3.957050817387">
        <ele>131.8</ele>
        <time>2019-01-10T13:23:06Z</time>
      </trkpt>
      <trkpt lat="36.759681762388" lon="-3.957128601419">
        <ele>133</ele>
        <time>2019-01-10T13:23:10Z</time>
      </trkpt>
      <trkpt lat="36.759788631613" lon="-3.957203367967">
        <ele>134.2</ele>
        <time>2019-01-10T13:23:14Z</time>
      </trkpt>
      <trkpt lat="36.759875887192" lon="-3.957295485048">
        <ele>135.2</ele>
        <time>2019-01-10T13:23:18Z</time>
      </trkpt>
      <trkpt lat="36.759992395602" lon="-3.957438815538">
        <ele>136.4</ele>
        <time>2019-01-10T13:23:23Z</time>
      </trkpt>
      <trkpt lat="36.760072023652" lon="-3.957574015585">
        <ele>137.8</ele>
        <time>2019-01-10T13:23:27Z</time>
      </trkpt>
      <trkpt lat="36.760139078852" lon="-3.957726566165">
        <ele>138.8</ele>
        <time>2019-01-10T13:23:31Z</time>
      </trkpt>
      <trkpt lat="36.760168499321" lon="-3.957851205018">
        <ele>139.8</ele>
        <time>2019-01-10T13:23:34Z</time>
      </trkpt>
      <trkpt lat="36.760196327229" lon="-3.957993864956">
        <ele>140.6</ele>
        <time>2019-01-10T13:23:37Z</time>
      </trkpt>
      <trkpt lat="36.760203116568" lon="-3.958048514944">
        <ele>141</ele>
        <time>2019-01-10T13:23:38Z</time>
      </trkpt>
      <trkpt lat="36.760231615028" lon="-3.958262085756">
        <ele>142</ele>
        <time>2019-01-10T13:23:42Z</time>
      </trkpt>
      <trkpt lat="36.76027168051" lon="-3.95857523354">
        <ele>143</ele>
        <time>2019-01-10T13:23:47Z</time>
      </trkpt>
      <trkpt lat="36.760396403182" lon="-3.958935739059">
        <ele>143.6</ele>
        <time>2019-01-10T13:23:53Z</time>
      </trkpt>
      <trkpt lat="36.760529256297" lon="-3.959153919916">
        <ele>144.2</ele>
        <time>2019-01-10T13:23:57Z</time>
      </trkpt>
      <trkpt lat="36.760568651227" lon="-3.959200355642">
        <ele>144.2</ele>
        <time>2019-01-10T13:23:58Z</time>
      </trkpt>
      <trkpt lat="36.760837123484" lon="-3.959399006672">
        <ele>144.8</ele>
        <time>2019-01-10T13:24:04Z</time>
      </trkpt>
      <trkpt lat="36.761067290458" lon="-3.959471677745">
        <ele>145.2</ele>
        <time>2019-01-10T13:24:09Z</time>
      </trkpt>
      <trkpt lat="36.761336936181" lon="-3.959483077129">
        <ele>146.2</ele>
        <time>2019-01-10T13:24:15Z</time>
      </trkpt>
      <trkpt lat="36.761376750206" lon="-3.959483077129">
        <ele>146.4</ele>
        <time>2019-01-10T13:24:16Z</time>
      </trkpt>
      <trkpt lat="36.761488900028" lon="-3.959487435717">
        <ele>147.4</ele>
        <time>2019-01-10T13:24:19Z</time>
      </trkpt>
      <trkpt lat="36.761625441179" lon="-3.959490788477">
        <ele>148.6</ele>
        <time>2019-01-10T13:24:23Z</time>
      </trkpt>
      <trkpt lat="36.761784026727" lon="-3.959506714087">
        <ele>149.6</ele>
        <time>2019-01-10T13:24:28Z</time>
      </trkpt>
      <trkpt lat="36.761914029996" lon="-3.959519119299">
        <ele>150.8</ele>
        <time>2019-01-10T13:24:32Z</time>
      </trkpt>
      <trkpt lat="36.762079153426" lon="-3.959547114845">
        <ele>152</ele>
        <time>2019-01-10T13:24:37Z</time>
      </trkpt>
      <trkpt lat="36.762180406778" lon="-3.959562202265">
        <ele>153.2</ele>
        <time>2019-01-10T13:24:40Z</time>
      </trkpt>
      <trkpt lat="36.762392468848" lon="-3.959613834769">
        <ele>154.2</ele>
        <time>2019-01-10T13:24:46Z</time>
      </trkpt>
      <trkpt lat="36.762598160674" lon="-3.959671502241">
        <ele>155.4</ele>
        <time>2019-01-10T13:24:52Z</time>
      </trkpt>
      <trkpt lat="36.762711483962" lon="-3.959683236901">
        <ele>156.6</ele>
        <time>2019-01-10T13:24:56Z</time>
      </trkpt>
      <trkpt lat="36.762880211609" lon="-3.959680135598">
        <ele>157.6</ele>
        <time>2019-01-10T13:25:01Z</time>
      </trkpt>
      <trkpt lat="36.763013567638" lon="-3.959646607998">
        <ele>158.6</ele>
        <time>2019-01-10T13:25:05Z</time>
      </trkpt>
      <trkpt lat="36.763213056858" lon="-3.959548623587">
        <ele>159.6</ele>
        <time>2019-01-10T13:25:11Z</time>
      </trkpt>
      <trkpt lat="36.763355130063" lon="-3.959396324464">
        <ele>160.6</ele>
        <time>2019-01-10T13:25:16Z</time>
      </trkpt>
      <trkpt lat="36.763467447523" lon="-3.95918459767">
        <ele>161.2</ele>
        <time>2019-01-10T13:25:21Z</time>
      </trkpt>
      <trkpt lat="36.763502232408" lon="-3.959079991558">
        <ele>161.4</ele>
        <time>2019-01-10T13:25:23Z</time>
      </trkpt>
      <trkpt lat="36.763525869366" lon="-3.958966416813">
        <ele>161.6</ele>
        <time>2019-01-10T13:25:25Z</time>
      </trkpt>
      <trkpt lat="36.763531820515" lon="-3.958906570047">
        <ele>161.8</ele>
        <time>2019-01-10T13:25:26Z</time>
      </trkpt>
      <trkpt lat="36.763532491067" lon="-3.958786960334">
        <ele>161.8</ele>
        <time>2019-01-10T13:25:28Z</time>
      </trkpt>
      <trkpt lat="36.763447666239" lon="-3.958416396535">
        <ele>161.4</ele>
        <time>2019-01-10T13:25:34Z</time>
      </trkpt>
      <trkpt lat="36.763281704619" lon="-3.958082461639">
        <ele>161.8</ele>
        <time>2019-01-10T13:25:40Z</time>
      </trkpt>
      <trkpt lat="36.763211045202" lon="-3.957990512196">
        <ele>162</ele>
        <time>2019-01-10T13:25:42Z</time>
      </trkpt>
      <trkpt lat="36.763081461028" lon="-3.957882553324">
        <ele>162.2</ele>
        <time>2019-01-10T13:25:45Z</time>
      </trkpt>
      <trkpt lat="36.762774767307" lon="-3.957788508406">
        <ele>162.6</ele>
        <time>2019-01-10T13:25:51Z</time>
      </trkpt>
      <trkpt lat="36.762535966976" lon="-3.957782808714">
        <ele>162.8</ele>
        <time>2019-01-10T13:25:56Z</time>
      </trkpt>
      <trkpt lat="36.762348212416" lon="-3.957786245293">
        <ele>164</ele>
        <time>2019-01-10T13:26:01Z</time>
      </trkpt>
      <trkpt lat="36.762075716847" lon="-3.95770854508">
        <ele>166.4</ele>
        <time>2019-01-10T13:26:09Z</time>
      </trkpt>
      <trkpt lat="36.76197823535" lon="-3.957615673628">
        <ele>167.4</ele>
        <time>2019-01-10T13:26:13Z</time>
      </trkpt>
      <trkpt lat="36.761901038051" lon="-3.957481479409">
        <ele>168.6</ele>
        <time>2019-01-10T13:26:17Z</time>
      </trkpt>
      <trkpt lat="36.761865163519" lon="-3.957381231885">
        <ele>169.8</ele>
        <time>2019-01-10T13:26:20Z</time>
      </trkpt>
      <trkpt lat="36.76185418323" lon="-3.9572207185">
        <ele>170.8</ele>
        <time>2019-01-10T13:26:24Z</time>
      </trkpt>
      <trkpt lat="36.761858625637" lon="-3.957048302817">
        <ele>172</ele>
        <time>2019-01-10T13:26:28Z</time>
      </trkpt>
      <trkpt lat="36.761867007537" lon="-3.956805227717">
        <ele>172.2</ele>
        <time>2019-01-10T13:26:34Z</time>
      </trkpt>
      <trkpt lat="36.761848986452" lon="-3.95654429917">
        <ele>172.8</ele>
        <time>2019-01-10T13:26:40Z</time>
      </trkpt>
      <trkpt lat="36.761830881548" lon="-3.956503311679">
        <ele>173.2</ele>
        <time>2019-01-10T13:26:41Z</time>
      </trkpt>
      <trkpt lat="36.761789474962" lon="-3.956419241222">
        <ele>173.8</ele>
        <time>2019-01-10T13:26:43Z</time>
      </trkpt>
      <trkpt lat="36.761783020899" lon="-3.956317820232">
        <ele>174</ele>
        <time>2019-01-10T13:26:45Z</time>
      </trkpt>
      <trkpt lat="36.761835323955" lon="-3.956258560199">
        <ele>174</ele>
        <time>2019-01-10T13:26:47Z</time>
      </trkpt>
      <trkpt lat="36.762038668849" lon="-3.956161078702">
        <ele>174.2</ele>
        <time>2019-01-10T13:26:53Z</time>
      </trkpt>
      <trkpt lat="36.762151070128" lon="-3.956197707605">
        <ele>175.2</ele>
        <time>2019-01-10T13:26:57Z</time>
      </trkpt>
      <trkpt lat="36.762235978775" lon="-3.95636492651">
        <ele>175.6</ele>
        <time>2019-01-10T13:27:03Z</time>
      </trkpt>
      <trkpt lat="36.762251904385" lon="-3.956505910068">
        <ele>176.6</ele>
        <time>2019-01-10T13:27:07Z</time>
      </trkpt>
      <trkpt lat="36.762245869417" lon="-3.956650246386">
        <ele>177.6</ele>
        <time>2019-01-10T13:27:11Z</time>
      </trkpt>
      <trkpt lat="36.762206055392" lon="-3.956875970953">
        <ele>178.8</ele>
        <time>2019-01-10T13:27:17Z</time>
      </trkpt>
      <trkpt lat="36.762229859988" lon="-3.957051655577">
        <ele>179.8</ele>
        <time>2019-01-10T13:27:22Z</time>
      </trkpt>
      <trkpt lat="36.762310912961" lon="-3.957203367967">
        <ele>181</ele>
        <time>2019-01-10T13:27:27Z</time>
      </trkpt>
      <trkpt lat="36.762444855723" lon="-3.957283666569">
        <ele>182.2</ele>
        <time>2019-01-10T13:27:32Z</time>
      </trkpt>
      <trkpt lat="36.762584833453" lon="-3.957309901916">
        <ele>183.2</ele>
        <time>2019-01-10T13:27:37Z</time>
      </trkpt>
      <trkpt lat="36.762733109264" lon="-3.957325995164">
        <ele>184.4</ele>
        <time>2019-01-10T13:27:42Z</time>
      </trkpt>
      <trkpt lat="36.762872416442" lon="-3.95734393243">
        <ele>185.4</ele>
        <time>2019-01-10T13:27:47Z</time>
      </trkpt>
      <trkpt lat="36.76304441303" lon="-3.957365809189">
        <ele>186.2</ele>
        <time>2019-01-10T13:27:53Z</time>
      </trkpt>
      <trkpt lat="36.763072827671" lon="-3.957368491397">
        <ele>186.6</ele>
        <time>2019-01-10T13:27:54Z</time>
      </trkpt>
      <trkpt lat="36.76321624198" lon="-3.957385758111">
        <ele>187.6</ele>
        <time>2019-01-10T13:27:59Z</time>
      </trkpt>
      <trkpt lat="36.763351777303" lon="-3.957441497746">
        <ele>188.8</ele>
        <time>2019-01-10T13:28:04Z</time>
      </trkpt>
      <trkpt lat="36.763504663159" lon="-3.957545014211">
        <ele>190</ele>
        <time>2019-01-10T13:28:10Z</time>
      </trkpt>
      <trkpt lat="36.763622931768" lon="-3.957625731908">
        <ele>191</ele>
        <time>2019-01-10T13:28:15Z</time>
      </trkpt>
      <trkpt lat="36.763727286423" lon="-3.957709467089">
        <ele>192.2</ele>
        <time>2019-01-10T13:28:20Z</time>
      </trkpt>
      <trkpt lat="36.763805070455" lon="-3.957800997437">
        <ele>193.2</ele>
        <time>2019-01-10T13:28:24Z</time>
      </trkpt>
      <trkpt lat="36.763905569436" lon="-3.957926725937">
        <ele>194.4</ele>
        <time>2019-01-10T13:28:29Z</time>
      </trkpt>
      <trkpt lat="36.764029453918" lon="-3.957976095328">
        <ele>195.6</ele>
        <time>2019-01-10T13:28:34Z</time>
      </trkpt>
      <trkpt lat="36.764139508265" lon="-3.957959834442">
        <ele>196.6</ele>
        <time>2019-01-10T13:28:38Z</time>
      </trkpt>
      <trkpt lat="36.764285018049" lon="-3.957850450647">
        <ele>197.6</ele>
        <time>2019-01-10T13:28:43Z</time>
      </trkpt>
      <trkpt lat="36.76438048789" lon="-3.957733942237">
        <ele>198.6</ele>
        <time>2019-01-10T13:28:47Z</time>
      </trkpt>
      <trkpt lat="36.764491799522" lon="-3.957509474955">
        <ele>199.6</ele>
        <time>2019-01-10T13:28:53Z</time>
      </trkpt>
      <trkpt lat="36.764580060929" lon="-3.957301520016">
        <ele>200.6</ele>
        <time>2019-01-10T13:28:59Z</time>
      </trkpt>
      <trkpt lat="36.764592130865" lon="-3.957264555837">
        <ele>200.8</ele>
        <time>2019-01-10T13:29:00Z</time>
      </trkpt>
      <trkpt lat="36.764640745885" lon="-3.957038998908">
        <ele>201.8</ele>
        <time>2019-01-10T13:29:06Z</time>
      </trkpt>
      <trkpt lat="36.764594310159" lon="-3.95688208974">
        <ele>203</ele>
        <time>2019-01-10T13:29:11Z</time>
      </trkpt>
      <trkpt lat="36.764577211083" lon="-3.956719816156">
        <ele>204.2</ele>
        <time>2019-01-10T13:29:16Z</time>
      </trkpt>
      <trkpt lat="36.764658180237" lon="-3.956543041885">
        <ele>205</ele>
        <time>2019-01-10T13:29:22Z</time>
      </trkpt>
      <trkpt lat="36.764679637901" lon="-3.956521081307">
        <ele>205.2</ele>
        <time>2019-01-10T13:29:23Z</time>
      </trkpt>
      <trkpt lat="36.764790111343" lon="-3.956427539303">
        <ele>206.4</ele>
        <time>2019-01-10T13:29:28Z</time>
      </trkpt>
      <trkpt lat="36.764894801274" lon="-3.956358556266">
        <ele>207.4</ele>
        <time>2019-01-10T13:29:33Z</time>
      </trkpt>
      <trkpt lat="36.764990774029" lon="-3.956298877138">
        <ele>208.4</ele>
        <time>2019-01-10T13:29:38Z</time>
      </trkpt>
      <trkpt lat="36.765107282439" lon="-3.956258057285">
        <ele>209.4</ele>
        <time>2019-01-10T13:29:43Z</time>
      </trkpt>
      <trkpt lat="36.765264945978" lon="-3.956210615731">
        <ele>210.4</ele>
        <time>2019-01-10T13:29:49Z</time>
      </trkpt>
      <trkpt lat="36.765292187153" lon="-3.956204916039">
        <ele>210.6</ele>
        <time>2019-01-10T13:29:50Z</time>
      </trkpt>
      <trkpt lat="36.765433505987" lon="-3.956196198863">
        <ele>211.8</ele>
        <time>2019-01-10T13:29:55Z</time>
      </trkpt>
      <trkpt lat="36.765584883101" lon="-3.956239030372">
        <ele>212.8</ele>
        <time>2019-01-10T13:30:01Z</time>
      </trkpt>
      <trkpt lat="36.765604999661" lon="-3.956258895475">
        <ele>213</ele>
        <time>2019-01-10T13:30:02Z</time>
      </trkpt>
      <trkpt lat="36.765667025721" lon="-3.956356293153">
        <ele>214.2</ele>
        <time>2019-01-10T13:30:06Z</time>
      </trkpt>
      <trkpt lat="36.765715054008" lon="-3.95647640578">
        <ele>215.4</ele>
        <time>2019-01-10T13:30:11Z</time>
      </trkpt>
      <trkpt lat="36.765739612975" lon="-3.956593584742">
        <ele>216.6</ele>
        <time>2019-01-10T13:30:15Z</time>
      </trkpt>
      <trkpt lat="36.765805494709" lon="-3.956738591612">
        <ele>217.8</ele>
        <time>2019-01-10T13:30:20Z</time>
      </trkpt>
      <trkpt lat="36.76589509722" lon="-3.956840431697">
        <ele>218.8</ele>
        <time>2019-01-10T13:30:24Z</time>
      </trkpt>
      <trkpt lat="36.766052341664" lon="-3.956972111346">
        <ele>219.6</ele>
        <time>2019-01-10T13:30:30Z</time>
      </trkpt>
      <trkpt lat="36.766106237281" lon="-3.957020055814">
        <ele>220</ele>
        <time>2019-01-10T13:30:32Z</time>
      </trkpt>
      <trkpt lat="36.766277479498" lon="-3.957132373274">
        <ele>221</ele>
        <time>2019-01-10T13:30:38Z</time>
      </trkpt>
      <trkpt lat="36.766403124179" lon="-3.957132205636">
        <ele>222.2</ele>
        <time>2019-01-10T13:30:42Z</time>
      </trkpt>
      <trkpt lat="36.766577551518" lon="-3.957066742997">
        <ele>223.4</ele>
        <time>2019-01-10T13:30:48Z</time>
      </trkpt>
      <trkpt lat="36.766721217284" lon="-3.957015613407">
        <ele>224.4</ele>
        <time>2019-01-10T13:30:53Z</time>
      </trkpt>
      <trkpt lat="36.766859099539" lon="-3.956940092488">
        <ele>225.4</ele>
        <time>2019-01-10T13:30:58Z</time>
      </trkpt>
      <trkpt lat="36.766954066466" lon="-3.95684101843">
        <ele>226.4</ele>
        <time>2019-01-10T13:31:03Z</time>
      </trkpt>
      <trkpt lat="36.767060432777" lon="-3.956709003505">
        <ele>227.6</ele>
        <time>2019-01-10T13:31:09Z</time>
      </trkpt>
      <trkpt lat="36.767212983357" lon="-3.956645887798">
        <ele>228.4</ele>
        <time>2019-01-10T13:31:15Z</time>
      </trkpt>
      <trkpt lat="36.767339550047" lon="-3.956682935796">
        <ele>228.6</ele>
        <time>2019-01-10T13:31:19Z</time>
      </trkpt>
      <trkpt lat="36.767506433676" lon="-3.956759630181">
        <ele>229.8</ele>
        <time>2019-01-10T13:31:24Z</time>
      </trkpt>
      <trkpt lat="36.767696451349" lon="-3.95688879526">
        <ele>230.8</ele>
        <time>2019-01-10T13:31:30Z</time>
      </trkpt>
      <trkpt lat="36.767861910055" lon="-3.956951156596">
        <ele>232</ele>
        <time>2019-01-10T13:31:35Z</time>
      </trkpt>
      <trkpt lat="36.768069194442" lon="-3.956987785499">
        <ele>232.8</ele>
        <time>2019-01-10T13:31:41Z</time>
      </trkpt>
      <trkpt lat="36.768161646799" lon="-3.957053164319">
        <ele>233</ele>
        <time>2019-01-10T13:31:44Z</time>
      </trkpt>
      <trkpt lat="36.768232054759" lon="-3.957218120111">
        <ele>233.4</ele>
        <time>2019-01-10T13:31:48Z</time>
      </trkpt>
      <trkpt lat="36.768254434432" lon="-3.957321133662">
        <ele>233.8</ele>
        <time>2019-01-10T13:31:50Z</time>
      </trkpt>
      <trkpt lat="36.768297852674" lon="-3.957412999286">
        <ele>234.4</ele>
        <time>2019-01-10T13:31:52Z</time>
      </trkpt>
      <trkpt lat="36.768360046372" lon="-3.95748810111">
        <ele>235</ele>
        <time>2019-01-10T13:31:54Z</time>
      </trkpt>
      <trkpt lat="36.768398435474" lon="-3.957512240982">
        <ele>235.4</ele>
        <time>2019-01-10T13:31:55Z</time>
      </trkpt>
      <trkpt lat="36.768440093517" lon="-3.957525149108">
        <ele>235.4</ele>
        <time>2019-01-10T13:31:56Z</time>
      </trkpt>
      <trkpt lat="36.76852366106" lon="-3.957529842972">
        <ele>235.6</ele>
        <time>2019-01-10T13:31:58Z</time>
      </trkpt>
      <trkpt lat="36.768765311237" lon="-3.957498494666">
        <ele>236.2</ele>
        <time>2019-01-10T13:32:04Z</time>
      </trkpt>
      <trkpt lat="36.768844771649" lon="-3.957492208241">
        <ele>236.4</ele>
        <time>2019-01-10T13:32:06Z</time>
      </trkpt>
      <trkpt lat="36.769068233103" lon="-3.957460189383">
        <ele>237.4</ele>
        <time>2019-01-10T13:32:12Z</time>
      </trkpt>
      <trkpt lat="36.769103017988" lon="-3.957460021745">
        <ele>237.6</ele>
        <time>2019-01-10T13:32:13Z</time>
      </trkpt>
      <trkpt lat="36.769277277689" lon="-3.957492878793">
        <ele>238.6</ele>
        <time>2019-01-10T13:32:18Z</time>
      </trkpt>
      <trkpt lat="36.769481125497" lon="-3.957571165739">
        <ele>239.8</ele>
        <time>2019-01-10T13:32:24Z</time>
      </trkpt>
      <trkpt lat="36.769646500384" lon="-3.957632856523">
        <ele>241</ele>
        <time>2019-01-10T13:32:29Z</time>
      </trkpt>
      <trkpt lat="36.769746412632" lon="-3.957634281446">
        <ele>242.2</ele>
        <time>2019-01-10T13:32:32Z</time>
      </trkpt>
      <trkpt lat="36.769892006235" lon="-3.957534704474">
        <ele>243.2</ele>
        <time>2019-01-10T13:32:38Z</time>
      </trkpt>
      <trkpt lat="36.769997785813" lon="-3.957439821366">
        <ele>244.2</ele>
        <time>2019-01-10T13:32:43Z</time>
      </trkpt>
      <trkpt lat="36.770136254801" lon="-3.957407215775">
        <ele>245.4</ele>
        <time>2019-01-10T13:32:48Z</time>
      </trkpt>
      <trkpt lat="36.770300540041" lon="-3.957423141385">
        <ele>246.4</ele>
        <time>2019-01-10T13:32:53Z</time>
      </trkpt>
      <trkpt lat="36.770458371218" lon="-3.957451723664">
        <ele>247.4</ele>
        <time>2019-01-10T13:32:58Z</time>
      </trkpt>
      <trkpt lat="36.770587955392" lon="-3.957484329255">
        <ele>248.6</ele>
        <time>2019-01-10T13:33:02Z</time>
      </trkpt>
      <trkpt lat="36.770750480433" lon="-3.957495141906">
        <ele>249.8</ele>
        <time>2019-01-10T13:33:07Z</time>
      </trkpt>
      <trkpt lat="36.770841088772" lon="-3.957488520205">
        <ele>250.8</ele>
        <time>2019-01-10T13:33:10Z</time>
      </trkpt>
      <trkpt lat="36.770977546104" lon="-3.957440827194">
        <ele>252</ele>
        <time>2019-01-10T13:33:15Z</time>
      </trkpt>
      <trkpt lat="36.771120206042" lon="-3.957406126128">
        <ele>253</ele>
        <time>2019-01-10T13:33:20Z</time>
      </trkpt>
      <trkpt lat="36.771265129093" lon="-3.95752498147">
        <ele>254</ele>
        <time>2019-01-10T13:33:26Z</time>
      </trkpt>
      <trkpt lat="36.771283653092" lon="-3.957554234301">
        <ele>254</ele>
        <time>2019-01-10T13:33:27Z</time>
      </trkpt>
      <trkpt lat="36.77138021258" lon="-3.957721201749">
        <ele>255.2</ele>
        <time>2019-01-10T13:33:33Z</time>
      </trkpt>
      <trkpt lat="36.771461181734" lon="-3.957805691301">
        <ele>256.6</ele>
        <time>2019-01-10T13:33:37Z</time>
      </trkpt>
      <trkpt lat="36.771625299336" lon="-3.957858832547">
        <ele>257.6</ele>
        <time>2019-01-10T13:33:43Z</time>
      </trkpt>
      <trkpt lat="36.771795535725" lon="-3.957865370429">
        <ele>258.8</ele>
        <time>2019-01-10T13:33:49Z</time>
      </trkpt>
      <trkpt lat="36.771943727717" lon="-3.957778282488">
        <ele>259.8</ele>
        <time>2019-01-10T13:33:55Z</time>
      </trkpt>
      <trkpt lat="36.771967280856" lon="-3.957760009946">
        <ele>260</ele>
        <time>2019-01-10T13:33:56Z</time>
      </trkpt>
      <trkpt lat="36.772133242476" lon="-3.957724219233">
        <ele>261</ele>
        <time>2019-01-10T13:34:02Z</time>
      </trkpt>
      <trkpt lat="36.772289481092" lon="-3.957832178105">
        <ele>262</ele>
        <time>2019-01-10T13:34:08Z</time>
      </trkpt>
      <trkpt lat="36.772316806086" lon="-3.957848355172">
        <ele>262.2</ele>
        <time>2019-01-10T13:34:09Z</time>
      </trkpt>
      <trkpt lat="36.772450497391" lon="-3.957943322099">
        <ele>263.2</ele>
        <time>2019-01-10T13:34:14Z</time>
      </trkpt>
      <trkpt lat="36.772614950269" lon="-3.958043988718">
        <ele>264.2</ele>
        <time>2019-01-10T13:34:20Z</time>
      </trkpt>
      <trkpt lat="36.772643700186" lon="-3.958057567396">
        <ele>264.4</ele>
        <time>2019-01-10T13:34:21Z</time>
      </trkpt>
      <trkpt lat="36.772752581067" lon="-3.958103667846">
        <ele>265.4</ele>
        <time>2019-01-10T13:34:25Z</time>
      </trkpt>
      <trkpt lat="36.77292499675" lon="-3.958153540151">
        <ele>266.4</ele>
        <time>2019-01-10T13:34:31Z</time>
      </trkpt>
      <trkpt lat="36.772954417219" lon="-3.958157144368">
        <ele>266.6</ele>
        <time>2019-01-10T13:34:32Z</time>
      </trkpt>
      <trkpt lat="36.773132784051" lon="-3.958173153797">
        <ele>267.6</ele>
        <time>2019-01-10T13:34:38Z</time>
      </trkpt>
      <trkpt lat="36.773303104259" lon="-3.958156222359">
        <ele>268.6</ele>
        <time>2019-01-10T13:34:44Z</time>
      </trkpt>
      <trkpt lat="36.773478285969" lon="-3.958121269836">
        <ele>269.6</ele>
        <time>2019-01-10T13:34:50Z</time>
      </trkpt>
      <trkpt lat="36.773625472133" lon="-3.958088412788">
        <ele>270.8</ele>
        <time>2019-01-10T13:34:55Z</time>
      </trkpt>
      <trkpt lat="36.773794702694" lon="-3.958019765027">
        <ele>272</ele>
        <time>2019-01-10T13:35:01Z</time>
      </trkpt>
      <trkpt lat="36.773935686252" lon="-3.957885822265">
        <ele>273</ele>
        <time>2019-01-10T13:35:07Z</time>
      </trkpt>
      <trkpt lat="36.774053032852" lon="-3.957772415158">
        <ele>274</ele>
        <time>2019-01-10T13:35:12Z</time>
      </trkpt>
      <trkpt lat="36.774215641712" lon="-3.957721201749">
        <ele>275.2</ele>
        <time>2019-01-10T13:35:18Z</time>
      </trkpt>
      <trkpt lat="36.774377160925" lon="-3.957820527264">
        <ele>276.2</ele>
        <time>2019-01-10T13:35:24Z</time>
      </trkpt>
      <trkpt lat="36.77440104934" lon="-3.95783930272">
        <ele>276.4</ele>
        <time>2019-01-10T13:35:25Z</time>
      </trkpt>
      <trkpt lat="36.774508924393" lon="-3.957930078697">
        <ele>277.6</ele>
        <time>2019-01-10T13:35:30Z</time>
      </trkpt>
      <trkpt lat="36.774586205511" lon="-3.95800526434">
        <ele>278.6</ele>
        <time>2019-01-10T13:35:34Z</time>
      </trkpt>
      <trkpt lat="36.77466256462" lon="-3.958154545979">
        <ele>279.6</ele>
        <time>2019-01-10T13:35:40Z</time>
      </trkpt>
      <trkpt lat="36.774669102502" lon="-3.958183882629">
        <ele>280</ele>
        <time>2019-01-10T13:35:41Z</time>
      </trkpt>
      <trkpt lat="36.774680082791" lon="-3.958307180378">
        <ele>281.2</ele>
        <time>2019-01-10T13:35:45Z</time>
      </trkpt>
      <trkpt lat="36.774703468292" lon="-3.95849309092">
        <ele>282.2</ele>
        <time>2019-01-10T13:35:51Z</time>
      </trkpt>
      <trkpt lat="36.774710173812" lon="-3.958523098122">
        <ele>282.4</ele>
        <time>2019-01-10T13:35:52Z</time>
      </trkpt>
      <trkpt lat="36.77475225095" lon="-3.958639606532">
        <ele>283.6</ele>
        <time>2019-01-10T13:35:56Z</time>
      </trkpt>
      <trkpt lat="36.77484109909" lon="-3.958755528209">
        <ele>284.8</ele>
        <time>2019-01-10T13:36:01Z</time>
      </trkpt>
      <trkpt lat="36.774934641094" lon="-3.958884609469">
        <ele>285.8</ele>
        <time>2019-01-10T13:36:07Z</time>
      </trkpt>
      <trkpt lat="36.775019382103" lon="-3.958975553084">
        <ele>286.8</ele>
        <time>2019-01-10T13:36:11Z</time>
      </trkpt>
      <trkpt lat="36.775103033465" lon="-3.959057360428">
        <ele>287.8</ele>
        <time>2019-01-10T13:36:15Z</time>
      </trkpt>
      <trkpt lat="36.775200766419" lon="-3.959109831122">
        <ele>289</ele>
        <time>2019-01-10T13:36:20Z</time>
      </trkpt>
      <trkpt lat="36.77530545635" lon="-3.959134138632">
        <ele>290</ele>
        <time>2019-01-10T13:36:25Z</time>
      </trkpt>
      <trkpt lat="36.775463706622" lon="-3.95910832238">
        <ele>291</ele>
        <time>2019-01-10T13:36:31Z</time>
      </trkpt>
      <trkpt lat="36.775515255307" lon="-3.959089463105">
        <ele>291.2</ele>
        <time>2019-01-10T13:36:33Z</time>
      </trkpt>
      <trkpt lat="36.775632685726" lon="-3.959008493951">
        <ele>292.4</ele>
        <time>2019-01-10T13:36:38Z</time>
      </trkpt>
      <trkpt lat="36.775746763385" lon="-3.958945797339">
        <ele>293.6</ele>
        <time>2019-01-10T13:36:43Z</time>
      </trkpt>
      <trkpt lat="36.77586872003" lon="-3.958904474572">
        <ele>294.6</ele>
        <time>2019-01-10T13:36:48Z</time>
      </trkpt>
      <trkpt lat="36.776011044692" lon="-3.958859966683">
        <ele>295.6</ele>
        <time>2019-01-10T13:36:54Z</time>
      </trkpt>
      <trkpt lat="36.776034765469" lon="-3.958853596439">
        <ele>295.8</ele>
        <time>2019-01-10T13:36:55Z</time>
      </trkpt>
      <trkpt lat="36.776171222801" lon="-3.958816883717">
        <ele>296.6</ele>
        <time>2019-01-10T13:37:01Z</time>
      </trkpt>
      <trkpt lat="36.776218580536" lon="-3.958802299211">
        <ele>297</ele>
        <time>2019-01-10T13:37:03Z</time>
      </trkpt>
      <trkpt lat="36.776371382573" lon="-3.9587546062">
        <ele>297.8</ele>
        <time>2019-01-10T13:37:09Z</time>
      </trkpt>
      <trkpt lat="36.77642611638" lon="-3.958739099685">
        <ele>298</ele>
        <time>2019-01-10T13:37:11Z</time>
      </trkpt>
      <trkpt lat="36.776584115195" lon="-3.958683611507">
        <ele>299.2</ele>
        <time>2019-01-10T13:37:17Z</time>
      </trkpt>
      <trkpt lat="36.776746388779" lon="-3.958641953464">
        <ele>300.2</ele>
        <time>2019-01-10T13:37:23Z</time>
      </trkpt>
      <trkpt lat="36.776906650707" lon="-3.958600630697">
        <ele>301.2</ele>
        <time>2019-01-10T13:37:29Z</time>
      </trkpt>
      <trkpt lat="36.777033133578" lon="-3.958577999567">
        <ele>302.2</ele>
        <time>2019-01-10T13:37:35Z</time>
      </trkpt>
      <trkpt lat="36.777176044973" lon="-3.958619070877">
        <ele>303</ele>
        <time>2019-01-10T13:37:41Z</time>
      </trkpt>
      <trkpt lat="36.777237651938" lon="-3.958675900159">
        <ele>303.4</ele>
        <time>2019-01-10T13:37:44Z</time>
      </trkpt>
      <trkpt lat="36.777327505906" lon="-3.958814369147">
        <ele>304.4</ele>
        <time>2019-01-10T13:37:50Z</time>
      </trkpt>
      <trkpt lat="36.777437308796" lon="-3.95890212764">
        <ele>305.6</ele>
        <time>2019-01-10T13:37:56Z</time>
      </trkpt>
      <trkpt lat="36.777524312918" lon="-3.958940432923">
        <ele>307</ele>
        <time>2019-01-10T13:38:00Z</time>
      </trkpt>
      <trkpt lat="36.777611568497" lon="-3.958990891961">
        <ele>308.2</ele>
        <time>2019-01-10T13:38:04Z</time>
      </trkpt>
      <trkpt lat="36.777701171008" lon="-3.959036740954">
        <ele>309.2</ele>
        <time>2019-01-10T13:38:08Z</time>
      </trkpt>
      <trkpt lat="36.777790186786" lon="-3.959073369857">
        <ele>310.4</ele>
        <time>2019-01-10T13:38:12Z</time>
      </trkpt>
      <trkpt lat="36.777878112917" lon="-3.959103963792">
        <ele>311.6</ele>
        <time>2019-01-10T13:38:16Z</time>
      </trkpt>
      <trkpt lat="36.77798850254" lon="-3.959150986251">
        <ele>312.6</ele>
        <time>2019-01-10T13:38:22Z</time>
      </trkpt>
      <trkpt lat="36.778008954376" lon="-3.959165067843">
        <ele>312.8</ele>
        <time>2019-01-10T13:38:23Z</time>
      </trkpt>
      <trkpt lat="36.778113811945" lon="-3.959324240124">
        <ele>313.8</ele>
        <time>2019-01-10T13:38:29Z</time>
      </trkpt>
      <trkpt lat="36.77813099484" lon="-3.959358019181">
        <ele>313.8</ele>
        <time>2019-01-10T13:38:30Z</time>
      </trkpt>
      <trkpt lat="36.778296705003" lon="-3.959473605582">
        <ele>315</ele>
        <time>2019-01-10T13:38:36Z</time>
      </trkpt>
      <trkpt lat="36.778426540634" lon="-3.959433623919">
        <ele>316.2</ele>
        <time>2019-01-10T13:38:40Z</time>
      </trkpt>
      <trkpt lat="36.778556879179" lon="-3.959315187672">
        <ele>316.6</ele>
        <time>2019-01-10T13:38:46Z</time>
      </trkpt>
      <trkpt lat="36.778625694578" lon="-3.959220472202">
        <ele>317.2</ele>
        <time>2019-01-10T13:38:50Z</time>
      </trkpt>
      <trkpt lat="36.77871102232" lon="-3.959042356827">
        <ele>318.4</ele>
        <time>2019-01-10T13:38:56Z</time>
      </trkpt>
      <trkpt lat="36.778843959254" lon="-3.958952335221">
        <ele>319.2</ele>
        <time>2019-01-10T13:39:02Z</time>
      </trkpt>
      <trkpt lat="36.778898106328" lon="-3.958954430696">
        <ele>319.4</ele>
        <time>2019-01-10T13:39:04Z</time>
      </trkpt>
      <trkpt lat="36.779051830374" lon="-3.959069598002">
        <ele>320.2</ele>
        <time>2019-01-10T13:39:10Z</time>
      </trkpt>
      <trkpt lat="36.779153838097" lon="-3.959269171041">
        <ele>320.4</ele>
        <time>2019-01-10T13:39:16Z</time>
      </trkpt>
      <trkpt lat="36.779160040703" lon="-3.959306386677">
        <ele>320.6</ele>
        <time>2019-01-10T13:39:17Z</time>
      </trkpt>
      <trkpt lat="36.779173787019" lon="-3.95947880236">
        <ele>321.8</ele>
        <time>2019-01-10T13:39:21Z</time>
      </trkpt>
      <trkpt lat="36.779240506943" lon="-3.959641746496">
        <ele>322.8</ele>
        <time>2019-01-10T13:39:26Z</time>
      </trkpt>
      <trkpt lat="36.779381155225" lon="-3.959742580753">
        <ele>323.8</ele>
        <time>2019-01-10T13:39:32Z</time>
      </trkpt>
      <trkpt lat="36.779502441318" lon="-3.959814832731">
        <ele>325</ele>
        <time>2019-01-10T13:39:37Z</time>
      </trkpt>
      <trkpt lat="36.779597324426" lon="-3.959864956493">
        <ele>326</ele>
        <time>2019-01-10T13:39:41Z</time>
      </trkpt>
      <trkpt lat="36.779774014878" lon="-3.959904686699">
        <ele>326.8</ele>
        <time>2019-01-10T13:39:47Z</time>
      </trkpt>
      <trkpt lat="36.779837717318" lon="-3.959909883477">
        <ele>327.2</ele>
        <time>2019-01-10T13:39:49Z</time>
      </trkpt>
      <trkpt lat="36.780043912058" lon="-3.959925473811">
        <ele>328</ele>
        <time>2019-01-10T13:39:55Z</time>
      </trkpt>
      <trkpt lat="36.780121193176" lon="-3.959911392219">
        <ele>328.2</ele>
        <time>2019-01-10T13:39:57Z</time>
      </trkpt>
      <trkpt lat="36.780234348826" lon="-3.959855820222">
        <ele>328.6</ele>
        <time>2019-01-10T13:40:00Z</time>
      </trkpt>
      <trkpt lat="36.780446662353" lon="-3.959662785065">
        <ele>329</ele>
        <time>2019-01-10T13:40:06Z</time>
      </trkpt>
      <trkpt lat="36.780678924802" lon="-3.959482322758">
        <ele>329.2</ele>
        <time>2019-01-10T13:40:12Z</time>
      </trkpt>
      <trkpt lat="36.780777915041" lon="-3.959459272533">
        <ele>329.4</ele>
        <time>2019-01-10T13:40:14Z</time>
      </trkpt>
      <trkpt lat="36.780869529208" lon="-3.959481568387">
        <ele>329.6</ele>
        <time>2019-01-10T13:40:16Z</time>
      </trkpt>
      <trkpt lat="36.780941613548" lon="-3.959549042682">
        <ele>329.6</ele>
        <time>2019-01-10T13:40:18Z</time>
      </trkpt>
      <trkpt lat="36.780985953799" lon="-3.959646524179">
        <ele>329.4</ele>
        <time>2019-01-10T13:40:20Z</time>
      </trkpt>
      <trkpt lat="36.781011602413" lon="-3.959754985965">
        <ele>329.8</ele>
        <time>2019-01-10T13:40:22Z</time>
      </trkpt>
      <trkpt lat="36.781029707317" lon="-3.960037958909">
        <ele>330.4</ele>
        <time>2019-01-10T13:40:27Z</time>
      </trkpt>
      <trkpt lat="36.781115705611" lon="-3.960263683476">
        <ele>331.4</ele>
        <time>2019-01-10T13:40:32Z</time>
      </trkpt>
      <trkpt lat="36.781268004734" lon="-3.960360745878">
        <ele>332.6</ele>
        <time>2019-01-10T13:40:37Z</time>
      </trkpt>
      <trkpt lat="36.781405551713" lon="-3.960300982931">
        <ele>333.8</ele>
        <time>2019-01-10T13:40:41Z</time>
      </trkpt>
      <trkpt lat="36.781592635721" lon="-3.960124292479">
        <ele>334.8</ele>
        <time>2019-01-10T13:40:47Z</time>
      </trkpt>
      <trkpt lat="36.781791119113" lon="-3.959942572887">
        <ele>335.4</ele>
        <time>2019-01-10T13:40:53Z</time>
      </trkpt>
      <trkpt lat="36.781858509589" lon="-3.959886665614">
        <ele>335.8</ele>
        <time>2019-01-10T13:40:55Z</time>
      </trkpt>
      <trkpt lat="36.782039307172" lon="-3.959784238796">
        <ele>336.2</ele>
        <time>2019-01-10T13:41:00Z</time>
      </trkpt>
      <trkpt lat="36.782120443964" lon="-3.95976797791">
        <ele>336.4</ele>
        <time>2019-01-10T13:41:02Z</time>
      </trkpt>
      <trkpt lat="36.782246843016" lon="-3.959764206055">
        <ele>336.8</ele>
        <time>2019-01-10T13:41:05Z</time>
      </trkpt>
      <trkpt lat="36.782507520106" lon="-3.959771917403">
        <ele>337.8</ele>
        <time>2019-01-10T13:41:11Z</time>
      </trkpt>
      <trkpt lat="36.782550519253" lon="-3.959772420317">
        <ele>338</ele>
        <time>2019-01-10T13:41:12Z</time>
      </trkpt>
      <trkpt lat="36.782594524228" lon="-3.959767894091">
        <ele>338</ele>
        <time>2019-01-10T13:41:13Z</time>
      </trkpt>
      <trkpt lat="36.782679265237" lon="-3.959729002075">
        <ele>338.2</ele>
        <time>2019-01-10T13:41:15Z</time>
      </trkpt>
      <trkpt lat="36.782751181939" lon="-3.959658007382">
        <ele>338.6</ele>
        <time>2019-01-10T13:41:17Z</time>
      </trkpt>
      <trkpt lat="36.782843550477" lon="-3.959464050216">
        <ele>339</ele>
        <time>2019-01-10T13:41:21Z</time>
      </trkpt>
      <trkpt lat="36.782978415248" lon="-3.959179233254">
        <ele>339.6</ele>
        <time>2019-01-10T13:41:27Z</time>
      </trkpt>
      <trkpt lat="36.783071370519" lon="-3.959068592174">
        <ele>340.2</ele>
        <time>2019-01-10T13:41:30Z</time>
      </trkpt>
      <trkpt lat="36.783237080682" lon="-3.958818727735">
        <ele>341.2</ele>
        <time>2019-01-10T13:41:36Z</time>
      </trkpt>
      <trkpt lat="36.783297178905" lon="-3.958753432734">
        <ele>341.2</ele>
        <time>2019-01-10T13:41:38Z</time>
      </trkpt>
      <trkpt lat="36.783373957109" lon="-3.958713283433">
        <ele>341.2</ele>
        <time>2019-01-10T13:41:40Z</time>
      </trkpt>
      <trkpt lat="36.783459201032" lon="-3.958701381135">
        <ele>341.2</ele>
        <time>2019-01-10T13:41:42Z</time>
      </trkpt>
      <trkpt lat="36.783635723846" lon="-3.95874035697">
        <ele>341.8</ele>
        <time>2019-01-10T13:41:46Z</time>
      </trkpt>
      <trkpt lat="36.783716273905" lon="-3.958802215392">
        <ele>341.8</ele>
        <time>2019-01-10T13:41:48Z</time>
      </trkpt>
      <trkpt lat="36.783778635241" lon="-3.958903552563">
        <ele>342</ele>
        <time>2019-01-10T13:41:50Z</time>
      </trkpt>
      <trkpt lat="36.783879720955" lon="-3.95919717052">
        <ele>342.2</ele>
        <time>2019-01-10T13:41:55Z</time>
      </trkpt>
      <trkpt lat="36.783914422021" lon="-3.959246539911">
        <ele>342.2</ele>
        <time>2019-01-10T13:41:56Z</time>
      </trkpt>
      <trkpt lat="36.78395892991" lon="-3.959286186298">
        <ele>342.4</ele>
        <time>2019-01-10T13:41:57Z</time>
      </trkpt>
      <trkpt lat="36.784258247559" lon="-3.959407220934">
        <ele>342.8</ele>
        <time>2019-01-10T13:42:03Z</time>
      </trkpt>
      <trkpt lat="36.784554128629" lon="-3.95951400634">
        <ele>343.2</ele>
        <time>2019-01-10T13:42:09Z</time>
      </trkpt>
      <trkpt lat="36.784843639455" lon="-3.959616936072">
        <ele>344</ele>
        <time>2019-01-10T13:42:15Z</time>
      </trkpt>
      <trkpt lat="36.784933493423" lon="-3.959639315745">
        <ele>344.4</ele>
        <time>2019-01-10T13:42:17Z</time>
      </trkpt>
      <trkpt lat="36.785108675133" lon="-3.959693043724">
        <ele>345.4</ele>
        <time>2019-01-10T13:42:22Z</time>
      </trkpt>
      <trkpt lat="36.785233062529" lon="-3.959731181369">
        <ele>346.4</ele>
        <time>2019-01-10T13:42:26Z</time>
      </trkpt>
      <trkpt lat="36.785355102993" lon="-3.959751800843">
        <ele>347.8</ele>
        <time>2019-01-10T13:42:30Z</time>
      </trkpt>
      <trkpt lat="36.785480747674" lon="-3.95974534678">
        <ele>349</ele>
        <time>2019-01-10T13:42:34Z</time>
      </trkpt>
      <trkpt lat="36.78568057217" lon="-3.959717518872">
        <ele>350</ele>
        <time>2019-01-10T13:42:40Z</time>
      </trkpt>
      <trkpt lat="36.785717536349" lon="-3.959721709822">
        <ele>350</ele>
        <time>2019-01-10T13:42:41Z</time>
      </trkpt>
      <trkpt lat="36.785921384157" lon="-3.959807037564">
        <ele>350.4</ele>
        <time>2019-01-10T13:42:47Z</time>
      </trkpt>
      <trkpt lat="36.786004197329" lon="-3.959931341141">
        <ele>351</ele>
        <time>2019-01-10T13:42:51Z</time>
      </trkpt>
      <trkpt lat="36.786012327772" lon="-3.960021865661">
        <ele>351.2</ele>
        <time>2019-01-10T13:42:53Z</time>
      </trkpt>
      <trkpt lat="36.78598902609" lon="-3.960121442633">
        <ele>351.4</ele>
        <time>2019-01-10T13:42:55Z</time>
      </trkpt>
      <trkpt lat="36.785915516827" lon="-3.960186737634">
        <ele>351.4</ele>
        <time>2019-01-10T13:42:57Z</time>
      </trkpt>
      <trkpt lat="36.785819879348" lon="-3.960216074284">
        <ele>351.4</ele>
        <time>2019-01-10T13:42:59Z</time>
      </trkpt>
      <trkpt lat="36.785660790886" lon="-3.960232838084">
        <ele>351.2</ele>
        <time>2019-01-10T13:43:02Z</time>
      </trkpt>
      <trkpt lat="36.785379159046" lon="-3.960329062296">
        <ele>351.2</ele>
        <time>2019-01-10T13:43:08Z</time>
      </trkpt>
      <trkpt lat="36.785291065277" lon="-3.960365355923">
        <ele>351.6</ele>
        <time>2019-01-10T13:43:10Z</time>
      </trkpt>
      <trkpt lat="36.785197523273" lon="-3.96038153299">
        <ele>351.8</ele>
        <time>2019-01-10T13:43:12Z</time>
      </trkpt>
      <trkpt lat="36.785097862482" lon="-3.960380778619">
        <ele>352</ele>
        <time>2019-01-10T13:43:14Z</time>
      </trkpt>
      <trkpt lat="36.784998872243" lon="-3.960412126925">
        <ele>351.8</ele>
        <time>2019-01-10T13:43:16Z</time>
      </trkpt>
      <trkpt lat="36.784915723795" lon="-3.960480187953">
        <ele>352</ele>
        <time>2019-01-10T13:43:18Z</time>
      </trkpt>
      <trkpt lat="36.784846321663" lon="-3.960560570374">
        <ele>352.2</ele>
        <time>2019-01-10T13:43:20Z</time>
      </trkpt>
      <trkpt lat="36.7846470839" lon="-3.960723933605">
        <ele>353.4</ele>
        <time>2019-01-10T13:43:26Z</time>
      </trkpt>
      <trkpt lat="36.784547255471" lon="-3.960776404299">
        <ele>354.4</ele>
        <time>2019-01-10T13:43:29Z</time>
      </trkpt>
      <trkpt lat="36.784388167009" lon="-3.96087019776">
        <ele>355.6</ele>
        <time>2019-01-10T13:43:34Z</time>
      </trkpt>
      <trkpt lat="36.78420703415" lon="-3.960987376722">
        <ele>356.6</ele>
        <time>2019-01-10T13:43:40Z</time>
      </trkpt>
      <trkpt lat="36.784178954785" lon="-3.961009504938">
        <ele>356.8</ele>
        <time>2019-01-10T13:43:41Z</time>
      </trkpt>
      <trkpt lat="36.784052639552" lon="-3.96113758037">
        <ele>357.8</ele>
        <time>2019-01-10T13:43:46Z</time>
      </trkpt>
      <trkpt lat="36.783938729531" lon="-3.961315360469">
        <ele>358.8</ele>
        <time>2019-01-10T13:43:52Z</time>
      </trkpt>
      <trkpt lat="36.783887935217" lon="-3.961449806145">
        <ele>360</ele>
        <time>2019-01-10T13:43:56Z</time>
      </trkpt>
      <trkpt lat="36.783867651019" lon="-3.961589113323">
        <ele>361.2</ele>
        <time>2019-01-10T13:44:00Z</time>
      </trkpt>
      <trkpt lat="36.783891287977" lon="-3.961777454616">
        <ele>362</ele>
        <time>2019-01-10T13:44:06Z</time>
      </trkpt>
      <trkpt lat="36.78389774204" lon="-3.961806372171">
        <ele>362.2</ele>
        <time>2019-01-10T13:44:07Z</time>
      </trkpt>
      <trkpt lat="36.783946692336" lon="-3.961985241917">
        <ele>363.2</ele>
        <time>2019-01-10T13:44:13Z</time>
      </trkpt>
      <trkpt lat="36.783968652914" lon="-3.962170481907">
        <ele>364.6</ele>
        <time>2019-01-10T13:44:19Z</time>
      </trkpt>
      <trkpt lat="36.783974436425" lon="-3.962374581172">
        <ele>365.6</ele>
        <time>2019-01-10T13:44:25Z</time>
      </trkpt>
      <trkpt lat="36.78393713697" lon="-3.962567197234">
        <ele>366.6</ele>
        <time>2019-01-10T13:44:31Z</time>
      </trkpt>
      <trkpt lat="36.78392456412" lon="-3.962599216092">
        <ele>366.8</ele>
        <time>2019-01-10T13:44:32Z</time>
      </trkpt>
      <trkpt lat="36.783795985774" lon="-3.962762411685">
        <ele>367.8</ele>
        <time>2019-01-10T13:44:38Z</time>
      </trkpt>
      <trkpt lat="36.783769079875" lon="-3.962783450254">
        <ele>367.8</ele>
        <time>2019-01-10T13:44:39Z</time>
      </trkpt>
      <trkpt lat="36.783624995014" lon="-3.962873555679">
        <ele>368.8</ele>
        <time>2019-01-10T13:44:45Z</time>
      </trkpt>
      <trkpt lat="36.783599681676" lon="-3.962889732746">
        <ele>369</ele>
        <time>2019-01-10T13:44:46Z</time>
      </trkpt>
      <trkpt lat="36.783546037516" lon="-3.963020490386">
        <ele>370</ele>
        <time>2019-01-10T13:44:50Z</time>
      </trkpt>
      <trkpt lat="36.783611248698" lon="-3.963172202776">
        <ele>371</ele>
        <time>2019-01-10T13:44:54Z</time>
      </trkpt>
      <trkpt lat="36.783648967248" lon="-3.963200701236">
        <ele>371.2</ele>
        <time>2019-01-10T13:44:55Z</time>
      </trkpt>
      <trkpt lat="36.783891539434" lon="-3.963313856886">
        <ele>371.4</ele>
        <time>2019-01-10T13:45:01Z</time>
      </trkpt>
      <trkpt lat="36.784088346446" lon="-3.963457941747">
        <ele>371.8</ele>
        <time>2019-01-10T13:45:07Z</time>
      </trkpt>
      <trkpt lat="36.784169902333" lon="-3.963535725779">
        <ele>372.2</ele>
        <time>2019-01-10T13:45:10Z</time>
      </trkpt>
      <trkpt lat="36.78427660392" lon="-3.963624573919">
        <ele>373.4</ele>
        <time>2019-01-10T13:45:14Z</time>
      </trkpt>
      <trkpt lat="36.784396968004" lon="-3.963724737624">
        <ele>374.4</ele>
        <time>2019-01-10T13:45:19Z</time>
      </trkpt>
      <trkpt lat="36.784494198044" lon="-3.963840156387">
        <ele>375.6</ele>
        <time>2019-01-10T13:45:24Z</time>
      </trkpt>
      <trkpt lat="36.784600061441" lon="-3.963990527673">
        <ele>376.8</ele>
        <time>2019-01-10T13:45:30Z</time>
      </trkpt>
      <trkpt lat="36.78472000643" lon="-3.964063953117">
        <ele>377.8</ele>
        <time>2019-01-10T13:45:36Z</time>
      </trkpt>
      <trkpt lat="36.784822097972" lon="-3.964069988085">
        <ele>379</ele>
        <time>2019-01-10T13:45:42Z</time>
      </trkpt>
      <trkpt lat="36.784938606382" lon="-3.964076358329">
        <ele>380</ele>
        <time>2019-01-10T13:45:48Z</time>
      </trkpt>
      <trkpt lat="36.785050756204" lon="-3.964135283086">
        <ele>381.2</ele>
        <time>2019-01-10T13:45:53Z</time>
      </trkpt>
      <trkpt lat="36.785140945448" lon="-3.964231172022">
        <ele>382.2</ele>
        <time>2019-01-10T13:45:58Z</time>
      </trkpt>
      <trkpt lat="36.785173048125" lon="-3.964370311562">
        <ele>383.2</ele>
        <time>2019-01-10T13:46:03Z</time>
      </trkpt>
      <trkpt lat="36.785148908253" lon="-3.964498973727">
        <ele>384</ele>
        <time>2019-01-10T13:46:09Z</time>
      </trkpt>
      <trkpt lat="36.78513910143" lon="-3.964522359228">
        <ele>384.2</ele>
        <time>2019-01-10T13:46:10Z</time>
      </trkpt>
      <trkpt lat="36.785097024292" lon="-3.964673317247">
        <ele>385.2</ele>
        <time>2019-01-10T13:46:16Z</time>
      </trkpt>
      <trkpt lat="36.785094844998" lon="-3.964707347761">
        <ele>385.4</ele>
        <time>2019-01-10T13:46:17Z</time>
      </trkpt>
      <trkpt lat="36.785099622681" lon="-3.964857970504">
        <ele>386.4</ele>
        <time>2019-01-10T13:46:22Z</time>
      </trkpt>
      <trkpt lat="36.785117057033" lon="-3.965011023998">
        <ele>387.6</ele>
        <time>2019-01-10T13:46:27Z</time>
      </trkpt>
      <trkpt lat="36.78513993962" lon="-3.965161311465">
        <ele>388.6</ele>
        <time>2019-01-10T13:46:32Z</time>
      </trkpt>
      <trkpt lat="36.785144549665" lon="-3.965336493175">
        <ele>389.6</ele>
        <time>2019-01-10T13:46:38Z</time>
      </trkpt>
      <trkpt lat="36.785147231873" lon="-3.965438584717">
        <ele>390.8</ele>
        <time>2019-01-10T13:46:42Z</time>
      </trkpt>
      <trkpt lat="36.785164414768" lon="-3.965532545816">
        <ele>392</ele>
        <time>2019-01-10T13:46:46Z</time>
      </trkpt>
      <trkpt lat="36.785244042818" lon="-3.965654670099">
        <ele>392.8</ele>
        <time>2019-01-10T13:46:52Z</time>
      </trkpt>
      <trkpt lat="36.785263824102" lon="-3.965665063655">
        <ele>393.2</ele>
        <time>2019-01-10T13:46:53Z</time>
      </trkpt>
      <trkpt lat="36.785401957814" lon="-3.965699680902">
        <ele>394.2</ele>
        <time>2019-01-10T13:46:59Z</time>
      </trkpt>
      <trkpt lat="36.785540845897" lon="-3.96570571587">
        <ele>395.4</ele>
        <time>2019-01-10T13:47:05Z</time>
      </trkpt>
      <trkpt lat="36.785682080912" lon="-3.965725916249">
        <ele>396.6</ele>
        <time>2019-01-10T13:47:11Z</time>
      </trkpt>
      <trkpt lat="36.785801103892" lon="-3.965759695306">
        <ele>397.6</ele>
        <time>2019-01-10T13:47:16Z</time>
      </trkpt>
      <trkpt lat="36.785935884844" lon="-3.965789199594">
        <ele>398.8</ele>
        <time>2019-01-10T13:47:22Z</time>
      </trkpt>
      <trkpt lat="36.786075946393" lon="-3.965820883176">
        <ele>399.8</ele>
        <time>2019-01-10T13:47:28Z</time>
      </trkpt>
      <trkpt lat="36.786098493704" lon="-3.965827672515">
        <ele>400</ele>
        <time>2019-01-10T13:47:29Z</time>
      </trkpt>
      <trkpt lat="36.786221959091" lon="-3.965865474884">
        <ele>401.2</ele>
        <time>2019-01-10T13:47:34Z</time>
      </trkpt>
      <trkpt lat="36.786346346487" lon="-3.965919957234">
        <ele>402.4</ele>
        <time>2019-01-10T13:47:39Z</time>
      </trkpt>
      <trkpt lat="36.786461513793" lon="-3.9659881859">
        <ele>403.4</ele>
        <time>2019-01-10T13:47:44Z</time>
      </trkpt>
      <trkpt lat="36.786566119905" lon="-3.966066808122">
        <ele>404.4</ele>
        <time>2019-01-10T13:47:49Z</time>
      </trkpt>
      <trkpt lat="36.786662344117" lon="-3.966164289619">
        <ele>405.6</ele>
        <time>2019-01-10T13:47:54Z</time>
      </trkpt>
      <trkpt lat="36.786698805382" lon="-3.966347182677">
        <ele>406.6</ele>
        <time>2019-01-10T13:48:00Z</time>
      </trkpt>
      <trkpt lat="36.786603586998" lon="-3.966517251428">
        <ele>407.2</ele>
        <time>2019-01-10T13:48:06Z</time>
      </trkpt>
      <trkpt lat="36.786545835707" lon="-3.966554969978">
        <ele>407.6</ele>
        <time>2019-01-10T13:48:08Z</time>
      </trkpt>
      <trkpt lat="36.786399320095" lon="-3.966635939132">
        <ele>408.8</ele>
        <time>2019-01-10T13:48:14Z</time>
      </trkpt>
      <trkpt lat="36.786304772263" lon="-3.966720428684">
        <ele>409.8</ele>
        <time>2019-01-10T13:48:19Z</time>
      </trkpt>
      <trkpt lat="36.78616253142" lon="-3.966806510797">
        <ele>410.8</ele>
        <time>2019-01-10T13:48:25Z</time>
      </trkpt>
      <trkpt lat="36.786002353311" lon="-3.966785639866">
        <ele>411.4</ele>
        <time>2019-01-10T13:48:31Z</time>
      </trkpt>
      <trkpt lat="36.785836224053" lon="-3.966771642093">
        <ele>411.8</ele>
        <time>2019-01-10T13:48:36Z</time>
      </trkpt>
      <trkpt lat="36.785642183068" lon="-3.966864345907">
        <ele>412.8</ele>
        <time>2019-01-10T13:48:42Z</time>
      </trkpt>
      <trkpt lat="36.785620138671" lon="-3.966899633706">
        <ele>412.8</ele>
        <time>2019-01-10T13:48:43Z</time>
      </trkpt>
      <trkpt lat="36.785561800647" lon="-3.967160226977">
        <ele>413.4</ele>
        <time>2019-01-10T13:48:49Z</time>
      </trkpt>
      <trkpt lat="36.785521148432" lon="-3.967345466967">
        <ele>413.8</ele>
        <time>2019-01-10T13:48:53Z</time>
      </trkpt>
      <trkpt lat="36.78547437743" lon="-3.96752961731">
        <ele>413.8</ele>
        <time>2019-01-10T13:48:57Z</time>
      </trkpt>
      <trkpt lat="36.785463732417" lon="-3.967825833656">
        <ele>414.4</ele>
        <time>2019-01-10T13:49:03Z</time>
      </trkpt>
      <trkpt lat="36.785467839548" lon="-3.967944688998">
        <ele>415</ele>
        <time>2019-01-10T13:49:06Z</time>
      </trkpt>
      <trkpt lat="36.785494913085" lon="-3.968114422473">
        <ele>416.2</ele>
        <time>2019-01-10T13:49:10Z</time>
      </trkpt>
      <trkpt lat="36.785543863381" lon="-3.968235121833">
        <ele>417.2</ele>
        <time>2019-01-10T13:49:13Z</time>
      </trkpt>
      <trkpt lat="36.785648469493" lon="-3.968357162297">
        <ele>418.4</ele>
        <time>2019-01-10T13:49:17Z</time>
      </trkpt>
      <trkpt lat="36.785746872999" lon="-3.968404603851">
        <ele>419.4</ele>
        <time>2019-01-10T13:49:20Z</time>
      </trkpt>
      <trkpt lat="36.785911158239" lon="-3.96846168459">
        <ele>420.6</ele>
        <time>2019-01-10T13:49:25Z</time>
      </trkpt>
      <trkpt lat="36.786047280295" lon="-3.968492781439">
        <ele>421.6</ele>
        <time>2019-01-10T13:49:29Z</time>
      </trkpt>
      <trkpt lat="36.786245763687" lon="-3.968534188025">
        <ele>422.8</ele>
        <time>2019-01-10T13:49:35Z</time>
      </trkpt>
      <trkpt lat="36.786347184677" lon="-3.968560004277">
        <ele>423.8</ele>
        <time>2019-01-10T13:49:40Z</time>
      </trkpt>
      <trkpt lat="36.786475008652" lon="-3.96859328042">
        <ele>424.8</ele>
        <time>2019-01-10T13:49:46Z</time>
      </trkpt>
      <trkpt lat="36.786499148524" lon="-3.968598477198">
        <ele>424.8</ele>
        <time>2019-01-10T13:49:47Z</time>
      </trkpt>
      <trkpt lat="36.786618674418" lon="-3.968633681178">
        <ele>426</ele>
        <time>2019-01-10T13:49:52Z</time>
      </trkpt>
      <trkpt lat="36.786767369324" lon="-3.968687492976">
        <ele>427</ele>
        <time>2019-01-10T13:49:58Z</time>
      </trkpt>
      <trkpt lat="36.786791341558" lon="-3.968701071654">
        <ele>427.2</ele>
        <time>2019-01-10T13:49:59Z</time>
      </trkpt>
      <trkpt lat="36.786937186618" lon="-3.968782208446">
        <ele>428.2</ele>
        <time>2019-01-10T13:50:05Z</time>
      </trkpt>
      <trkpt lat="36.786960907395" lon="-3.968797547323">
        <ele>428.2</ele>
        <time>2019-01-10T13:50:06Z</time>
      </trkpt>
      <trkpt lat="36.787093676691" lon="-3.968904081272">
        <ele>429.4</ele>
        <time>2019-01-10T13:50:12Z</time>
      </trkpt>
      <trkpt lat="36.78721948901" lon="-3.969016734008">
        <ele>430.2</ele>
        <time>2019-01-10T13:50:18Z</time>
      </trkpt>
      <trkpt lat="36.787241533407" lon="-3.969035760921">
        <ele>430.4</ele>
        <time>2019-01-10T13:50:19Z</time>
      </trkpt>
      <trkpt lat="36.787353264134" lon="-3.969161154145">
        <ele>431.4</ele>
        <time>2019-01-10T13:50:25Z</time>
      </trkpt>
      <trkpt lat="36.787440603532" lon="-3.969298114391">
        <ele>432.2</ele>
        <time>2019-01-10T13:50:31Z</time>
      </trkpt>
      <trkpt lat="36.787468096164" lon="-3.969339688615">
        <ele>432.6</ele>
        <time>2019-01-10T13:50:33Z</time>
      </trkpt>
      <trkpt lat="36.787549232956" lon="-3.969461812898">
        <ele>433.8</ele>
        <time>2019-01-10T13:50:38Z</time>
      </trkpt>
      <trkpt lat="36.78766289152" lon="-3.969530544478">
        <ele>435</ele>
        <time>2019-01-10T13:50:43Z</time>
      </trkpt>
      <trkpt lat="36.787812508435" lon="-3.969573459806">
        <ele>436</ele>
        <time>2019-01-10T13:50:49Z</time>
      </trkpt>
      <trkpt lat="36.787968411775" lon="-3.969580249145">
        <ele>437</ele>
        <time>2019-01-10T13:50:55Z</time>
      </trkpt>
      <trkpt lat="36.787993808932" lon="-3.969579410955">
        <ele>437.2</ele>
        <time>2019-01-10T13:50:56Z</time>
      </trkpt>
      <trkpt lat="36.78811383774" lon="-3.969553259427">
        <ele>438.2</ele>
        <time>2019-01-10T13:51:01Z</time>
      </trkpt>
      <trkpt lat="36.788229088865" lon="-3.969511769022">
        <ele>439.2</ele>
        <time>2019-01-10T13:51:06Z</time>
      </trkpt>
      <trkpt lat="36.788362025799" lon="-3.969422334149">
        <ele>440.4</ele>
        <time>2019-01-10T13:51:12Z</time>
      </trkpt>
      <trkpt lat="36.788488676308" lon="-3.969331139077">
        <ele>441.4</ele>
        <time>2019-01-10T13:51:18Z</time>
      </trkpt>
      <trkpt lat="36.788626139468" lon="-3.969235501598">
        <ele>442.4</ele>
        <time>2019-01-10T13:51:24Z</time>
      </trkpt>
      <trkpt lat="36.788647932408" lon="-3.969219575988">
        <ele>442.6</ele>
        <time>2019-01-10T13:51:25Z</time>
      </trkpt>
      <trkpt lat="36.788755388366" lon="-3.9691397803">
        <ele>443.8</ele>
        <time>2019-01-10T13:51:30Z</time>
      </trkpt>
      <trkpt lat="36.788881368323" lon="-3.96905260854">
        <ele>444.8</ele>
        <time>2019-01-10T13:51:36Z</time>
      </trkpt>
      <trkpt lat="36.78900818647" lon="-3.968996282172">
        <ele>446</ele>
        <time>2019-01-10T13:51:42Z</time>
      </trkpt>
      <trkpt lat="36.789168783674" lon="-3.969013967981">
        <ele>446.8</ele>
        <time>2019-01-10T13:51:48Z</time>
      </trkpt>
      <trkpt lat="36.789196276306" lon="-3.969028636306">
        <ele>447</ele>
        <time>2019-01-10T13:51:49Z</time>
      </trkpt>
      <trkpt lat="36.789370536007" lon="-3.96916241143">
        <ele>447.6</ele>
        <time>2019-01-10T13:51:55Z</time>
      </trkpt>
      <trkpt lat="36.789423341977" lon="-3.969217145237">
        <ele>448</ele>
        <time>2019-01-10T13:51:57Z</time>
      </trkpt>
      <trkpt lat="36.789585364104" lon="-3.969358380252">
        <ele>449</ele>
        <time>2019-01-10T13:52:03Z</time>
      </trkpt>
      <trkpt lat="36.789616293315" lon="-3.969371875111">
        <ele>449.2</ele>
        <time>2019-01-10T13:52:04Z</time>
      </trkpt>
      <trkpt lat="36.789800611296" lon="-3.969381095201">
        <ele>450</ele>
        <time>2019-01-10T13:52:10Z</time>
      </trkpt>
      <trkpt lat="36.78985559656" lon="-3.969396517897">
        <ele>450.2</ele>
        <time>2019-01-10T13:52:12Z</time>
      </trkpt>
      <trkpt lat="36.790009488244" lon="-3.969460723251">
        <ele>451.2</ele>
        <time>2019-01-10T13:52:18Z</time>
      </trkpt>
      <trkpt lat="36.790032957564" lon="-3.969480336897">
        <ele>451.2</ele>
        <time>2019-01-10T13:52:19Z</time>
      </trkpt>
      <trkpt lat="36.79013136107" lon="-3.969636659332">
        <ele>452.2</ele>
        <time>2019-01-10T13:52:25Z</time>
      </trkpt>
      <trkpt lat="36.79014225754" lon="-3.969668342914">
        <ele>452.4</ele>
        <time>2019-01-10T13:52:26Z</time>
      </trkpt>
      <trkpt lat="36.790196656071" lon="-3.969835813276">
        <ele>453.4</ele>
        <time>2019-01-10T13:52:32Z</time>
      </trkpt>
      <trkpt lat="36.790208390731" lon="-3.969937653361">
        <ele>454.6</ele>
        <time>2019-01-10T13:52:35Z</time>
      </trkpt>
      <trkpt lat="36.790222472323" lon="-3.970101016592">
        <ele>455.6</ele>
        <time>2019-01-10T13:52:39Z</time>
      </trkpt>
      <trkpt lat="36.79022272378" lon="-3.97036186132">
        <ele>455.8</ele>
        <time>2019-01-10T13:52:45Z</time>
      </trkpt>
      <trkpt lat="36.790231273318" lon="-3.970525056913">
        <ele>456.8</ele>
        <time>2019-01-10T13:52:49Z</time>
      </trkpt>
      <trkpt lat="36.790259352683" lon="-3.970641146228">
        <ele>458</ele>
        <time>2019-01-10T13:52:52Z</time>
      </trkpt>
      <trkpt lat="36.790340489475" lon="-3.970766539452">
        <ele>459.2</ele>
        <time>2019-01-10T13:52:56Z</time>
      </trkpt>
      <trkpt lat="36.79052614856" lon="-3.970837031231">
        <ele>460</ele>
        <time>2019-01-10T13:53:02Z</time>
      </trkpt>
      <trkpt lat="36.790622959505" lon="-3.97082621858">
        <ele>460.2</ele>
        <time>2019-01-10T13:53:05Z</time>
      </trkpt>
      <trkpt lat="36.790801996889" lon="-3.970760588303">
        <ele>460.8</ele>
        <time>2019-01-10T13:53:11Z</time>
      </trkpt>
      <trkpt lat="36.790921019869" lon="-3.970698897519">
        <ele>461.4</ele>
        <time>2019-01-10T13:53:15Z</time>
      </trkpt>
      <trkpt lat="36.791070636784" lon="-3.970550202613">
        <ele>462.4</ele>
        <time>2019-01-10T13:53:21Z</time>
      </trkpt>
      <trkpt lat="36.791092262086" lon="-3.970523464352">
        <ele>462.6</ele>
        <time>2019-01-10T13:53:22Z</time>
      </trkpt>
      <trkpt lat="36.791224025554" lon="-3.970381307328">
        <ele>463.6</ele>
        <time>2019-01-10T13:53:28Z</time>
      </trkpt>
      <trkpt lat="36.791246321408" lon="-3.970357754189">
        <ele>463.6</ele>
        <time>2019-01-10T13:53:29Z</time>
      </trkpt>
      <trkpt lat="36.791343299991" lon="-3.970256165561">
        <ele>464.8</ele>
        <time>2019-01-10T13:53:34Z</time>
      </trkpt>
      <trkpt lat="36.791430387932" lon="-3.970151810906">
        <ele>465.8</ele>
        <time>2019-01-10T13:53:39Z</time>
      </trkpt>
      <trkpt lat="36.791543543582" lon="-3.9700282617">
        <ele>466.8</ele>
        <time>2019-01-10T13:53:45Z</time>
      </trkpt>
      <trkpt lat="36.791561061753" lon="-3.970010156796">
        <ele>467</ele>
        <time>2019-01-10T13:53:46Z</time>
      </trkpt>
      <trkpt lat="36.791656699232" lon="-3.969914938412">
        <ele>468</ele>
        <time>2019-01-10T13:53:51Z</time>
      </trkpt>
      <trkpt lat="36.791769435787" lon="-3.96978099565">
        <ele>469.2</ele>
        <time>2019-01-10T13:53:57Z</time>
      </trkpt>
      <trkpt lat="36.791873874261" lon="-3.969646214698">
        <ele>470.2</ele>
        <time>2019-01-10T13:54:03Z</time>
      </trkpt>
      <trkpt lat="36.791887788215" lon="-3.969620649903">
        <ele>470.4</ele>
        <time>2019-01-10T13:54:04Z</time>
      </trkpt>
      <trkpt lat="36.791961046021" lon="-3.969449742962">
        <ele>471.6</ele>
        <time>2019-01-10T13:54:10Z</time>
      </trkpt>
      <trkpt lat="36.792000021856" lon="-3.969286966464">
        <ele>472.4</ele>
        <time>2019-01-10T13:54:16Z</time>
      </trkpt>
      <trkpt lat="36.792005805367" lon="-3.969257629814">
        <ele>472.6</ele>
        <time>2019-01-10T13:54:17Z</time>
      </trkpt>
      <trkpt lat="36.792063305201" lon="-3.969085800864">
        <ele>473.8</ele>
        <time>2019-01-10T13:54:23Z</time>
      </trkpt>
      <trkpt lat="36.792166318752" lon="-3.96894196746">
        <ele>474.8</ele>
        <time>2019-01-10T13:54:29Z</time>
      </trkpt>
      <trkpt lat="36.792187189683" lon="-3.968920425977">
        <ele>474.8</ele>
        <time>2019-01-10T13:54:30Z</time>
      </trkpt>
      <trkpt lat="36.79233077163" lon="-3.96879696059">
        <ele>475.6</ele>
        <time>2019-01-10T13:54:36Z</time>
      </trkpt>
      <trkpt lat="36.792405957273" lon="-3.968729486295">
        <ele>476</ele>
        <time>2019-01-10T13:54:39Z</time>
      </trkpt>
      <trkpt lat="36.792564459002" lon="-3.968598058103">
        <ele>476.8</ele>
        <time>2019-01-10T13:54:45Z</time>
      </trkpt>
      <trkpt lat="36.792589604702" lon="-3.968573666774">
        <ele>477</ele>
        <time>2019-01-10T13:54:46Z</time>
      </trkpt>
      <trkpt lat="36.79273058826" lon="-3.968441484211">
        <ele>478</ele>
        <time>2019-01-10T13:54:52Z</time>
      </trkpt>
      <trkpt lat="36.792866710316" lon="-3.968370154242">
        <ele>479.2</ele>
        <time>2019-01-10T13:54:57Z</time>
      </trkpt>
      <trkpt lat="36.793036611429" lon="-3.968278875351">
        <ele>480</ele>
        <time>2019-01-10T13:55:03Z</time>
      </trkpt>
      <trkpt lat="36.793207937465" lon="-3.968166054977">
        <ele>480.2</ele>
        <time>2019-01-10T13:55:08Z</time>
      </trkpt>
      <trkpt lat="36.793451347841" lon="-3.968025741971">
        <ele>480.4</ele>
        <time>2019-01-10T13:55:14Z</time>
      </trkpt>
      <trkpt lat="36.79370121228" lon="-3.967886099517">
        <ele>480.6</ele>
        <time>2019-01-10T13:55:20Z</time>
      </trkpt>
      <trkpt lat="36.793904976269" lon="-3.967732626928">
        <ele>481.2</ele>
        <time>2019-01-10T13:55:25Z</time>
      </trkpt>
      <trkpt lat="36.794071859898" lon="-3.967541603427">
        <ele>481.8</ele>
        <time>2019-01-10T13:55:30Z</time>
      </trkpt>
      <trkpt lat="36.79416473135" lon="-3.9674298727">
        <ele>482.2</ele>
        <time>2019-01-10T13:55:33Z</time>
      </trkpt>
      <trkpt lat="36.79430806184" lon="-3.967241447588">
        <ele>483.2</ele>
        <time>2019-01-10T13:55:38Z</time>
      </trkpt>
      <trkpt lat="36.794335303015" lon="-3.967202304115">
        <ele>483.4</ele>
        <time>2019-01-10T13:55:39Z</time>
      </trkpt>
      <trkpt lat="36.79450671287" lon="-3.966998707764">
        <ele>484.4</ele>
        <time>2019-01-10T13:55:45Z</time>
      </trkpt>
      <trkpt lat="36.794613833552" lon="-3.96688253463">
        <ele>485.4</ele>
        <time>2019-01-10T13:55:49Z</time>
      </trkpt>
      <trkpt lat="36.794846515096" lon="-3.966847665926">
        <ele>486.2</ele>
        <time>2019-01-10T13:55:55Z</time>
      </trkpt>
      <trkpt lat="36.79492999882" lon="-3.966864429726">
        <ele>486.6</ele>
        <time>2019-01-10T13:55:57Z</time>
      </trkpt>
      <trkpt lat="36.795162261269" lon="-3.966940118283">
        <ele>487</ele>
        <time>2019-01-10T13:56:03Z</time>
      </trkpt>
      <trkpt lat="36.795298048049" lon="-3.966979177937">
        <ele>487.6</ele>
        <time>2019-01-10T13:56:07Z</time>
      </trkpt>
      <trkpt lat="36.795502314952" lon="-3.96701413046">
        <ele>488.6</ele>
        <time>2019-01-10T13:56:13Z</time>
      </trkpt>
      <trkpt lat="36.795699876335" lon="-3.966992421339">
        <ele>489.8</ele>
        <time>2019-01-10T13:56:19Z</time>
      </trkpt>
      <trkpt lat="36.795891989483" lon="-3.966951769124">
        <ele>490.8</ele>
        <time>2019-01-10T13:56:25Z</time>
      </trkpt>
      <trkpt lat="36.796072703247" lon="-3.966917906248">
        <ele>491.8</ele>
        <time>2019-01-10T13:56:31Z</time>
      </trkpt>
      <trkpt lat="36.796103716277" lon="-3.966913631479">
        <ele>492</ele>
        <time>2019-01-10T13:56:32Z</time>
      </trkpt>
      <trkpt lat="36.796290548828" lon="-3.966868872133">
        <ele>492.8</ele>
        <time>2019-01-10T13:56:38Z</time>
      </trkpt>
      <trkpt lat="36.796321142763" lon="-3.966857724206">
        <ele>493</ele>
        <time>2019-01-10T13:56:39Z</time>
      </trkpt>
      <trkpt lat="36.796488361668" lon="-3.966725876919">
        <ele>494</ele>
        <time>2019-01-10T13:56:45Z</time>
      </trkpt>
      <trkpt lat="36.796617694385" lon="-3.966541894214">
        <ele>495.2</ele>
        <time>2019-01-10T13:56:51Z</time>
      </trkpt>
      <trkpt lat="36.796746021274" lon="-3.96635028398">
        <ele>496</ele>
        <time>2019-01-10T13:56:57Z</time>
      </trkpt>
      <trkpt lat="36.796767478938" lon="-3.966315750552">
        <ele>496.2</ele>
        <time>2019-01-10T13:56:58Z</time>
      </trkpt>
      <trkpt lat="36.796887843022" lon="-3.966089103976">
        <ele>496.6</ele>
        <time>2019-01-10T13:57:04Z</time>
      </trkpt>
      <trkpt lat="36.796900918786" lon="-3.965775956192">
        <ele>496.6</ele>
        <time>2019-01-10T13:57:10Z</time>
      </trkpt>
      <trkpt lat="36.796848867187" lon="-3.965397094312">
        <ele>495.8</ele>
        <time>2019-01-10T13:57:16Z</time>
      </trkpt>
      <trkpt lat="36.796829253541" lon="-3.965010101989">
        <ele>495.4</ele>
        <time>2019-01-10T13:57:22Z</time>
      </trkpt>
      <trkpt lat="36.796850124472" lon="-3.964884624946">
        <ele>495.2</ele>
        <time>2019-01-10T13:57:24Z</time>
      </trkpt>
      <trkpt lat="36.796909971238" lon="-3.964767865079">
        <ele>495.2</ele>
        <time>2019-01-10T13:57:26Z</time>
      </trkpt>
      <trkpt lat="36.797006614545" lon="-3.964683710803">
        <ele>495.2</ele>
        <time>2019-01-10T13:57:28Z</time>
      </trkpt>
      <trkpt lat="36.797133181235" lon="-3.964664264795">
        <ele>495</ele>
        <time>2019-01-10T13:57:30Z</time>
      </trkpt>
      <trkpt lat="36.797265782893" lon="-3.964705084648">
        <ele>494.6</ele>
        <time>2019-01-10T13:57:32Z</time>
      </trkpt>
      <trkpt lat="36.797482203551" lon="-3.964797201729">
        <ele>494</ele>
        <time>2019-01-10T13:57:35Z</time>
      </trkpt>
      <trkpt lat="36.797564094714" lon="-3.964816480099">
        <ele>493.8</ele>
        <time>2019-01-10T13:57:36Z</time>
      </trkpt>
      <trkpt lat="36.797740030795" lon="-3.964819078488">
        <ele>493.2</ele>
        <time>2019-01-10T13:57:38Z</time>
      </trkpt>
      <trkpt lat="36.797827873107" lon="-3.96480466162">
        <ele>492.6</ele>
        <time>2019-01-10T13:57:39Z</time>
      </trkpt>
      <trkpt lat="36.797998025677" lon="-3.964749843994">
        <ele>491.6</ele>
        <time>2019-01-10T13:57:41Z</time>
      </trkpt>
      <trkpt lat="36.798241938967" lon="-3.964610872092">
        <ele>490.6</ele>
        <time>2019-01-10T13:57:44Z</time>
      </trkpt>
      <trkpt lat="36.798458946358" lon="-3.964399229117">
        <ele>489.8</ele>
        <time>2019-01-10T13:57:47Z</time>
      </trkpt>
      <trkpt lat="36.798520888599" lon="-3.96431264409">
        <ele>489.6</ele>
        <time>2019-01-10T13:57:48Z</time>
      </trkpt>
      <trkpt lat="36.798578053157" lon="-3.964221449018">
        <ele>489.4</ele>
        <time>2019-01-10T13:57:49Z</time>
      </trkpt>
      <trkpt lat="36.798745691157" lon="-3.963972171312">
        <ele>488.8</ele>
        <time>2019-01-10T13:57:52Z</time>
      </trkpt>
      <trkpt lat="36.798894218425" lon="-3.963881898249">
        <ele>488.2</ele>
        <time>2019-01-10T13:57:54Z</time>
      </trkpt>
      <trkpt lat="36.799064873909" lon="-3.963869744494">
        <ele>487.6</ele>
        <time>2019-01-10T13:57:56Z</time>
      </trkpt>
      <trkpt lat="36.799241229085" lon="-3.96390612194">
        <ele>487</ele>
        <time>2019-01-10T13:57:58Z</time>
      </trkpt>
      <trkpt lat="36.799508779333" lon="-3.964037131037">
        <ele>485.4</ele>
        <time>2019-01-10T13:58:01Z</time>
      </trkpt>
      <trkpt lat="36.799693516409" lon="-3.964139054941">
        <ele>484</ele>
        <time>2019-01-10T13:58:03Z</time>
      </trkpt>
      <trkpt lat="36.799881354788" lon="-3.96424307432">
        <ele>483</ele>
        <time>2019-01-10T13:58:05Z</time>
      </trkpt>
      <trkpt lat="36.800062655285" lon="-3.964337454514">
        <ele>481.4</ele>
        <time>2019-01-10T13:58:07Z</time>
      </trkpt>
      <trkpt lat="36.800238759004" lon="-3.964419680953">
        <ele>480.4</ele>
        <time>2019-01-10T13:58:09Z</time>
      </trkpt>
      <trkpt lat="36.800328110058" lon="-3.964434014002">
        <ele>480.4</ele>
        <time>2019-01-10T13:58:10Z</time>
      </trkpt>
      <trkpt lat="36.800414778904" lon="-3.964419848591">
        <ele>480.2</ele>
        <time>2019-01-10T13:58:11Z</time>
      </trkpt>
      <trkpt lat="36.800573615909" lon="-3.964324043474">
        <ele>480.2</ele>
        <time>2019-01-10T13:58:13Z</time>
      </trkpt>
      <trkpt lat="36.800697416572" lon="-3.964187418504">
        <ele>480.4</ele>
        <time>2019-01-10T13:58:15Z</time>
      </trkpt>
      <trkpt lat="36.801015761134" lon="-3.963757007939">
        <ele>481.4</ele>
        <time>2019-01-10T13:58:21Z</time>
      </trkpt>
      <trkpt lat="36.801068231828" lon="-3.963691377662">
        <ele>481.4</ele>
        <time>2019-01-10T13:58:22Z</time>
      </trkpt>
      <trkpt lat="36.801352881152" lon="-3.963266080056">
        <ele>481.4</ele>
        <time>2019-01-10T13:58:28Z</time>
      </trkpt>
      <trkpt lat="36.80146201349" lon="-3.963030800123">
        <ele>481</ele>
        <time>2019-01-10T13:58:31Z</time>
      </trkpt>
      <trkpt lat="36.801523033722" lon="-3.962765261531">
        <ele>480.4</ele>
        <time>2019-01-10T13:58:34Z</time>
      </trkpt>
      <trkpt lat="36.801555806951" lon="-3.962684543834">
        <ele>480.2</ele>
        <time>2019-01-10T13:58:35Z</time>
      </trkpt>
      <trkpt lat="36.801602158858" lon="-3.962614135874">
        <ele>480.2</ele>
        <time>2019-01-10T13:58:36Z</time>
      </trkpt>
      <trkpt lat="36.801725875702" lon="-3.96251221197">
        <ele>479.8</ele>
        <time>2019-01-10T13:58:38Z</time>
      </trkpt>
      <trkpt lat="36.801873313323" lon="-3.962496370179">
        <ele>479.8</ele>
        <time>2019-01-10T13:58:40Z</time>
      </trkpt>
      <trkpt lat="36.802017482003" lon="-3.962549511425">
        <ele>479.8</ele>
        <time>2019-01-10T13:58:42Z</time>
      </trkpt>
      <trkpt lat="36.802151089489" lon="-3.962638024289">
        <ele>479.8</ele>
        <time>2019-01-10T13:58:44Z</time>
      </trkpt>
      <trkpt lat="36.802326522656" lon="-3.962797364208">
        <ele>479.6</ele>
        <time>2019-01-10T13:58:47Z</time>
      </trkpt>
      <trkpt lat="36.802454011355" lon="-3.962868023625">
        <ele>479.6</ele>
        <time>2019-01-10T13:58:49Z</time>
      </trkpt>
      <trkpt lat="36.802659954638" lon="-3.962917560654">
        <ele>479.6</ele>
        <time>2019-01-10T13:58:52Z</time>
      </trkpt>
      <trkpt lat="36.802782330378" lon="-3.96300758226">
        <ele>479.6</ele>
        <time>2019-01-10T13:58:54Z</time>
      </trkpt>
      <trkpt lat="36.802993721896" lon="-3.963233306827">
        <ele>479.8</ele>
        <time>2019-01-10T13:58:58Z</time>
      </trkpt>
      <trkpt lat="36.803116935826" lon="-3.963273120852">
        <ele>480</ele>
        <time>2019-01-10T13:59:00Z</time>
      </trkpt>
      <trkpt lat="36.803177369325" lon="-3.963252417559">
        <ele>480</ele>
        <time>2019-01-10T13:59:01Z</time>
      </trkpt>
      <trkpt lat="36.803233444236" lon="-3.96320707148">
        <ele>480</ele>
        <time>2019-01-10T13:59:02Z</time>
      </trkpt>
      <trkpt lat="36.803388593205" lon="-3.963022334404">
        <ele>479.6</ele>
        <time>2019-01-10T13:59:05Z</time>
      </trkpt>
      <trkpt lat="36.803515159895" lon="-3.962932480436">
        <ele>479.4</ele>
        <time>2019-01-10T13:59:07Z</time>
      </trkpt>
      <trkpt lat="36.803583556199" lon="-3.962898114646">
        <ele>479.2</ele>
        <time>2019-01-10T13:59:08Z</time>
      </trkpt>
      <trkpt lat="36.803714984391" lon="-3.962814966198">
        <ele>479</ele>
        <time>2019-01-10T13:59:10Z</time>
      </trkpt>
      <trkpt lat="36.803823362358" lon="-3.962692506639">
        <ele>479</ele>
        <time>2019-01-10T13:59:12Z</time>
      </trkpt>
      <trkpt lat="36.8039338358" lon="-3.962463764588">
        <ele>478.8</ele>
        <time>2019-01-10T13:59:15Z</time>
      </trkpt>
      <trkpt lat="36.804015224049" lon="-3.962217588185">
        <ele>478.6</ele>
        <time>2019-01-10T13:59:18Z</time>
      </trkpt>
      <trkpt lat="36.804098707773" lon="-3.961803773782">
        <ele>478.8</ele>
        <time>2019-01-10T13:59:23Z</time>
      </trkpt>
      <trkpt lat="36.804090158235" lon="-3.961641416379">
        <ele>479</ele>
        <time>2019-01-10T13:59:25Z</time>
      </trkpt>
      <trkpt lat="36.804056965911" lon="-3.961484926306">
        <ele>479</ele>
        <time>2019-01-10T13:59:27Z</time>
      </trkpt>
      <trkpt lat="36.803986725589" lon="-3.961255178427">
        <ele>478.8</ele>
        <time>2019-01-10T13:59:30Z</time>
      </trkpt>
      <trkpt lat="36.803983205191" lon="-3.961087121332">
        <ele>478.4</ele>
        <time>2019-01-10T13:59:32Z</time>
      </trkpt>
      <trkpt lat="36.804044644518" lon="-3.9609339002">
        <ele>478.2</ele>
        <time>2019-01-10T13:59:34Z</time>
      </trkpt>
      <trkpt lat="36.804088230398" lon="-3.960865755353">
        <ele>478.2</ele>
        <time>2019-01-10T13:59:35Z</time>
      </trkpt>
      <trkpt lat="36.804318984105" lon="-3.960492425527">
        <ele>478.2</ele>
        <time>2019-01-10T13:59:41Z</time>
      </trkpt>
      <trkpt lat="36.804489304313" lon="-3.960112306362">
        <ele>478.8</ele>
        <time>2019-01-10T13:59:47Z</time>
      </trkpt>
      <trkpt lat="36.804680746909" lon="-3.959763703141">
        <ele>479</ele>
        <time>2019-01-10T13:59:53Z</time>
      </trkpt>
      <trkpt lat="36.804711089387" lon="-3.959705281298">
        <ele>479.2</ele>
        <time>2019-01-10T13:59:54Z</time>
      </trkpt>
      <trkpt lat="36.804760374959" lon="-3.959581480635">
        <ele>479.4</ele>
        <time>2019-01-10T13:59:56Z</time>
      </trkpt>
      <trkpt lat="36.804858024094" lon="-3.959155093382">
        <ele>480</ele>
        <time>2019-01-10T14:00:02Z</time>
      </trkpt>
      <trkpt lat="36.804967910803" lon="-3.95879735389">
        <ele>480</ele>
        <time>2019-01-10T14:00:07Z</time>
      </trkpt>
      <trkpt lat="36.804973526676" lon="-3.958644970948">
        <ele>479.8</ele>
        <time>2019-01-10T14:00:09Z</time>
      </trkpt>
      <trkpt lat="36.804935891945" lon="-3.958499712621">
        <ele>480</ele>
        <time>2019-01-10T14:00:11Z</time>
      </trkpt>
      <trkpt lat="36.804798261147" lon="-3.958246076327">
        <ele>480.2</ele>
        <time>2019-01-10T14:00:15Z</time>
      </trkpt>
      <trkpt lat="36.804600029212" lon="-3.958030326221">
        <ele>479.8</ele>
        <time>2019-01-10T14:00:19Z</time>
      </trkpt>
      <trkpt lat="36.804530962356" lon="-3.957886408998">
        <ele>479.6</ele>
        <time>2019-01-10T14:00:21Z</time>
      </trkpt>
      <trkpt lat="36.804535320944" lon="-3.957718016627">
        <ele>479.4</ele>
        <time>2019-01-10T14:00:23Z</time>
      </trkpt>
      <trkpt lat="36.804613188795" lon="-3.957562113287">
        <ele>479.2</ele>
        <time>2019-01-10T14:00:25Z</time>
      </trkpt>
      <trkpt lat="36.804799937527" lon="-3.95727184809">
        <ele>477.8</ele>
        <time>2019-01-10T14:00:29Z</time>
      </trkpt>
      <trkpt lat="36.805023566619" lon="-3.956901871024">
        <ele>476.6</ele>
        <time>2019-01-10T14:00:34Z</time>
      </trkpt>
      <trkpt lat="36.805177039208" lon="-3.956572210897">
        <ele>476.4</ele>
        <time>2019-01-10T14:00:38Z</time>
      </trkpt>
      <trkpt lat="36.805496305779" lon="-3.956206173324">
        <ele>476.6</ele>
        <time>2019-01-10T14:00:44Z</time>
      </trkpt>
      <trkpt lat="36.805677941552" lon="-3.955922194552">
        <ele>476.6</ele>
        <time>2019-01-10T14:00:48Z</time>
      </trkpt>
      <trkpt lat="36.805803334776" lon="-3.955833178774">
        <ele>476.4</ele>
        <time>2019-01-10T14:00:50Z</time>
      </trkpt>
      <trkpt lat="36.806155542214" lon="-3.955706612084">
        <ele>477.4</ele>
        <time>2019-01-10T14:00:56Z</time>
      </trkpt>
      <trkpt lat="36.806236846644" lon="-3.955614578822">
        <ele>477.6</ele>
        <time>2019-01-10T14:00:58Z</time>
      </trkpt>
      <trkpt lat="36.806264506914" lon="-3.955552888038">
        <ele>477.8</ele>
        <time>2019-01-10T14:00:59Z</time>
      </trkpt>
      <trkpt lat="36.806284623474" lon="-3.955484910829">
        <ele>477.8</ele>
        <time>2019-01-10T14:01:00Z</time>
      </trkpt>
      <trkpt lat="36.806307422242" lon="-3.955333701353">
        <ele>477.8</ele>
        <time>2019-01-10T14:01:02Z</time>
      </trkpt>
      <trkpt lat="36.806332065028" lon="-3.955003622131">
        <ele>477.8</ele>
        <time>2019-01-10T14:01:06Z</time>
      </trkpt>
      <trkpt lat="36.806462068297" lon="-3.954519315949">
        <ele>477</ele>
        <time>2019-01-10T14:01:12Z</time>
      </trkpt>
      <trkpt lat="36.806582767657" lon="-3.954004332013">
        <ele>476.8</ele>
        <time>2019-01-10T14:01:18Z</time>
      </trkpt>
      <trkpt lat="36.806613110135" lon="-3.953925542153">
        <ele>476.6</ele>
        <time>2019-01-10T14:01:19Z</time>
      </trkpt>
      <trkpt lat="36.806778065927" lon="-3.953635193137">
        <ele>475.6</ele>
        <time>2019-01-10T14:01:23Z</time>
      </trkpt>
      <trkpt lat="36.807097332498" lon="-3.953310310693">
        <ele>475.8</ele>
        <time>2019-01-10T14:01:29Z</time>
      </trkpt>
      <trkpt lat="36.80715164721" lon="-3.953272173048">
        <ele>475.8</ele>
        <time>2019-01-10T14:01:30Z</time>
      </trkpt>
      <trkpt lat="36.80749362873" lon="-3.953116856441">
        <ele>475.2</ele>
        <time>2019-01-10T14:01:36Z</time>
      </trkpt>
      <trkpt lat="36.807877771207" lon="-3.953086011049">
        <ele>475.4</ele>
        <time>2019-01-10T14:01:42Z</time>
      </trkpt>
      <trkpt lat="36.808214975044" lon="-3.953129680748">
        <ele>474.6</ele>
        <time>2019-01-10T14:01:47Z</time>
      </trkpt>
      <trkpt lat="36.808508844458" lon="-3.953062877005">
        <ele>473.4</ele>
        <time>2019-01-10T14:01:51Z</time>
      </trkpt>
      <trkpt lat="36.808740939269" lon="-3.952970089372">
        <ele>472</ele>
        <time>2019-01-10T14:01:54Z</time>
      </trkpt>
      <trkpt lat="36.808852586177" lon="-3.952841678664">
        <ele>471.2</ele>
        <time>2019-01-10T14:01:56Z</time>
      </trkpt>
      <trkpt lat="36.808889717994" lon="-3.952756686198">
        <ele>470.4</ele>
        <time>2019-01-10T14:01:57Z</time>
      </trkpt>
      <trkpt lat="36.808918216454" lon="-3.952665323488">
        <ele>469.8</ele>
        <time>2019-01-10T14:01:58Z</time>
      </trkpt>
      <trkpt lat="36.808940931403" lon="-3.952571697665">
        <ele>469.2</ele>
        <time>2019-01-10T14:01:59Z</time>
      </trkpt>
      <trkpt lat="36.808988289138" lon="-3.952405065493">
        <ele>468.2</ele>
        <time>2019-01-10T14:02:01Z</time>
      </trkpt>
      <trkpt lat="36.809028857534" lon="-3.952340608682">
        <ele>467.6</ele>
        <time>2019-01-10T14:02:02Z</time>
      </trkpt>
      <trkpt lat="36.809088620481" lon="-3.952300207924">
        <ele>466.8</ele>
        <time>2019-01-10T14:02:03Z</time>
      </trkpt>
      <trkpt lat="36.809155843319" lon="-3.952292831852">
        <ele>466.2</ele>
        <time>2019-01-10T14:02:04Z</time>
      </trkpt>
      <trkpt lat="36.809231112781" lon="-3.952319234837">
        <ele>465.8</ele>
        <time>2019-01-10T14:02:05Z</time>
      </trkpt>
      <trkpt lat="36.809387854311" lon="-3.95237430392">
        <ele>465.2</ele>
        <time>2019-01-10T14:02:07Z</time>
      </trkpt>
      <trkpt lat="36.80946840437" lon="-3.952384781295">
        <ele>465.2</ele>
        <time>2019-01-10T14:02:08Z</time>
      </trkpt>
      <trkpt lat="36.809549876438" lon="-3.952383859286">
        <ele>465</ele>
        <time>2019-01-10T14:02:09Z</time>
      </trkpt>
      <trkpt lat="36.809709132538" lon="-3.952337507379">
        <ele>464.4</ele>
        <time>2019-01-10T14:02:11Z</time>
      </trkpt>
      <trkpt lat="36.809784988733" lon="-3.95229132311">
        <ele>463.8</ele>
        <time>2019-01-10T14:02:12Z</time>
      </trkpt>
      <trkpt lat="36.809998224269" lon="-3.952131061182">
        <ele>462.6</ele>
        <time>2019-01-10T14:02:15Z</time>
      </trkpt>
      <trkpt lat="36.810149349926" lon="-3.952027544717">
        <ele>461.6</ele>
        <time>2019-01-10T14:02:17Z</time>
      </trkpt>
      <trkpt lat="36.810281951584" lon="-3.951915311076">
        <ele>460.8</ele>
        <time>2019-01-10T14:02:19Z</time>
      </trkpt>
      <trkpt lat="36.810336433934" lon="-3.95184959698">
        <ele>460.4</ele>
        <time>2019-01-10T14:02:20Z</time>
      </trkpt>
      <trkpt lat="36.810380774185" lon="-3.951770890939">
        <ele>459.8</ele>
        <time>2019-01-10T14:02:21Z</time>
      </trkpt>
      <trkpt lat="36.810427712825" lon="-3.951584645121">
        <ele>459.4</ele>
        <time>2019-01-10T14:02:23Z</time>
      </trkpt>
      <trkpt lat="36.810432155232" lon="-3.951484900511">
        <ele>459.2</ele>
        <time>2019-01-10T14:02:24Z</time>
      </trkpt>
      <trkpt lat="36.810426371721" lon="-3.951381300227">
        <ele>459</ele>
        <time>2019-01-10T14:02:25Z</time>
      </trkpt>
      <trkpt lat="36.810415391432" lon="-3.951163789922">
        <ele>458.4</ele>
        <time>2019-01-10T14:02:27Z</time>
      </trkpt>
      <trkpt lat="36.810428634834" lon="-3.951053735575">
        <ele>458</ele>
        <time>2019-01-10T14:02:28Z</time>
      </trkpt>
      <trkpt lat="36.810456714199" lon="-3.950950554386">
        <ele>457.4</ele>
        <time>2019-01-10T14:02:29Z</time>
      </trkpt>
      <trkpt lat="36.810499461889" lon="-3.950859107857">
        <ele>456.8</ele>
        <time>2019-01-10T14:02:30Z</time>
      </trkpt>
      <trkpt lat="36.810558805741" lon="-3.950788280802">
        <ele>456.2</ele>
        <time>2019-01-10T14:02:31Z</time>
      </trkpt>
      <trkpt lat="36.810633404651" lon="-3.950737654126">
        <ele>455.6</ele>
        <time>2019-01-10T14:02:32Z</time>
      </trkpt>
      <trkpt lat="36.810712697425" lon="-3.950700606128">
        <ele>455.2</ele>
        <time>2019-01-10T14:02:33Z</time>
      </trkpt>
      <trkpt lat="36.810795342959" lon="-3.950677974998">
        <ele>454.6</ele>
        <time>2019-01-10T14:02:34Z</time>
      </trkpt>
      <trkpt lat="36.810876731208" lon="-3.950668754908">
        <ele>454.4</ele>
        <time>2019-01-10T14:02:35Z</time>
      </trkpt>
      <trkpt lat="36.811019642603" lon="-3.950647129606">
        <ele>454</ele>
        <time>2019-01-10T14:02:37Z</time>
      </trkpt>
      <trkpt lat="36.811144700551" lon="-3.950566411909">
        <ele>453.8</ele>
        <time>2019-01-10T14:02:39Z</time>
      </trkpt>
      <trkpt lat="36.811198260892" lon="-3.950501619822">
        <ele>453.6</ele>
        <time>2019-01-10T14:02:40Z</time>
      </trkpt>
      <trkpt lat="36.811245115713" lon="-3.950425176894">
        <ele>453.2</ele>
        <time>2019-01-10T14:02:41Z</time>
      </trkpt>
      <trkpt lat="36.811356175888" lon="-3.950138935009">
        <ele>452.2</ele>
        <time>2019-01-10T14:02:44Z</time>
      </trkpt>
      <trkpt lat="36.811439659612" lon="-3.949931315346">
        <ele>450.8</ele>
        <time>2019-01-10T14:02:46Z</time>
      </trkpt>
      <trkpt lat="36.811503445871" lon="-3.949851938753">
        <ele>449.6</ele>
        <time>2019-01-10T14:02:47Z</time>
      </trkpt>
      <trkpt lat="36.811583241559" lon="-3.949807095588">
        <ele>448.6</ele>
        <time>2019-01-10T14:02:48Z</time>
      </trkpt>
      <trkpt lat="36.811757417441" lon="-3.949804245742">
        <ele>447.6</ele>
        <time>2019-01-10T14:02:50Z</time>
      </trkpt>
      <trkpt lat="36.812146086144" lon="-3.949940032522">
        <ele>447.2</ele>
        <time>2019-01-10T14:02:56Z</time>
      </trkpt>
      <trkpt lat="36.812256559586" lon="-3.950049919231">
        <ele>448.4</ele>
        <time>2019-01-10T14:02:59Z</time>
      </trkpt>
      <trkpt lat="36.812278771621" lon="-3.95009442712">
        <ele>449</ele>
        <time>2019-01-10T14:03:00Z</time>
      </trkpt>
      <trkpt lat="36.812312885954" lon="-3.950294419254">
        <ele>450.2</ele>
        <time>2019-01-10T14:03:04Z</time>
      </trkpt>
      <trkpt lat="36.812335349446" lon="-3.950408999827">
        <ele>450.8</ele>
        <time>2019-01-10T14:03:06Z</time>
      </trkpt>
      <trkpt lat="36.812391340538" lon="-3.950507990066">
        <ele>451.2</ele>
        <time>2019-01-10T14:03:08Z</time>
      </trkpt>
      <trkpt lat="36.812427969441" lon="-3.950544451331">
        <ele>451.4</ele>
        <time>2019-01-10T14:03:09Z</time>
      </trkpt>
      <trkpt lat="36.81246828638" lon="-3.950571524868">
        <ele>451.6</ele>
        <time>2019-01-10T14:03:10Z</time>
      </trkpt>
      <trkpt lat="36.812591248853" lon="-3.950615278386">
        <ele>452</ele>
        <time>2019-01-10T14:03:13Z</time>
      </trkpt>
      <trkpt lat="36.812703231037" lon="-3.950627935055">
        <ele>452.6</ele>
        <time>2019-01-10T14:03:16Z</time>
      </trkpt>
      <trkpt lat="36.812895260366" lon="-3.950625420485">
        <ele>453.6</ele>
        <time>2019-01-10T14:03:21Z</time>
      </trkpt>
      <trkpt lat="36.81307178318" lon="-3.950573536524">
        <ele>454.8</ele>
        <time>2019-01-10T14:03:26Z</time>
      </trkpt>
      <trkpt lat="36.813209162521" lon="-3.950518383622">
        <ele>455.8</ele>
        <time>2019-01-10T14:03:32Z</time>
      </trkpt>
      <trkpt lat="36.813223579389" lon="-3.950506565143">
        <ele>456</ele>
        <time>2019-01-10T14:03:33Z</time>
      </trkpt>
      <trkpt lat="36.813312092253" lon="-3.950466834937">
        <ele>456.6</ele>
        <time>2019-01-10T14:03:39Z</time>
      </trkpt>
      <trkpt lat="36.813348218242" lon="-3.950442527427">
        <ele>457</ele>
        <time>2019-01-10T14:03:41Z</time>
      </trkpt>
      <trkpt lat="36.813455422743" lon="-3.95037186801">
        <ele>458</ele>
        <time>2019-01-10T14:03:47Z</time>
      </trkpt>
      <trkpt lat="36.81355290424" lon="-3.950302465878">
        <ele>459</ele>
        <time>2019-01-10T14:03:52Z</time>
      </trkpt>
      <trkpt lat="36.8136484579" lon="-3.950232896108">
        <ele>460.2</ele>
        <time>2019-01-10T14:03:57Z</time>
      </trkpt>
      <trkpt lat="36.813754405116" lon="-3.950174138989">
        <ele>461.4</ele>
        <time>2019-01-10T14:04:02Z</time>
      </trkpt>
      <trkpt lat="36.813858424495" lon="-3.95012627834">
        <ele>462.4</ele>
        <time>2019-01-10T14:04:07Z</time>
      </trkpt>
      <trkpt lat="36.813957414734" lon="-3.950063497909">
        <ele>463.6</ele>
        <time>2019-01-10T14:04:12Z</time>
      </trkpt>
      <trkpt lat="36.814064619235" lon="-3.949995185424">
        <ele>464.6</ele>
        <time>2019-01-10T14:04:18Z</time>
      </trkpt>
      <trkpt lat="36.814133434634" lon="-3.949952437734">
        <ele>465.6</ele>
        <time>2019-01-10T14:04:22Z</time>
      </trkpt>
      <trkpt lat="36.81424692556" lon="-3.949870462752">
        <ele>466.6</ele>
        <time>2019-01-10T14:04:28Z</time>
      </trkpt>
      <trkpt lat="36.814374414259" lon="-3.949793097815">
        <ele>467.6</ele>
        <time>2019-01-10T14:04:34Z</time>
      </trkpt>
      <trkpt lat="36.814399811416" lon="-3.949786224657">
        <ele>467.8</ele>
        <time>2019-01-10T14:04:35Z</time>
      </trkpt>
      <trkpt lat="36.814531742522" lon="-3.949798043136">
        <ele>468.8</ele>
        <time>2019-01-10T14:04:41Z</time>
      </trkpt>
      <trkpt lat="36.81461656735" lon="-3.949814639298">
        <ele>470</ele>
        <time>2019-01-10T14:04:45Z</time>
      </trkpt>
      <trkpt lat="36.814727711344" lon="-3.949822685922">
        <ele>471.2</ele>
        <time>2019-01-10T14:04:50Z</time>
      </trkpt>
      <trkpt lat="36.814836676044" lon="-3.949809107244">
        <ele>472.2</ele>
        <time>2019-01-10T14:04:55Z</time>
      </trkpt>
      <trkpt lat="36.814940024871" lon="-3.949781698431">
        <ele>473.2</ele>
        <time>2019-01-10T14:05:00Z</time>
      </trkpt>
      <trkpt lat="36.81503482416" lon="-3.949799970973">
        <ele>474.6</ele>
        <time>2019-01-10T14:05:05Z</time>
      </trkpt>
      <trkpt lat="36.815110345079" lon="-3.949890327855">
        <ele>475.6</ele>
        <time>2019-01-10T14:05:10Z</time>
      </trkpt>
      <trkpt lat="36.815124091395" lon="-3.949929555147">
        <ele>476</ele>
        <time>2019-01-10T14:05:12Z</time>
      </trkpt>
      <trkpt lat="36.815134149675" lon="-3.95001144631">
        <ele>476.6</ele>
        <time>2019-01-10T14:05:15Z</time>
      </trkpt>
      <trkpt lat="36.815109758346" lon="-3.950168606935">
        <ele>477.8</ele>
        <time>2019-01-10T14:05:20Z</time>
      </trkpt>
      <trkpt lat="36.815061897697" lon="-3.950305064267">
        <ele>478.2</ele>
        <time>2019-01-10T14:05:26Z</time>
      </trkpt>
      <trkpt lat="36.815037674006" lon="-3.950342447541">
        <ele>478.6</ele>
        <time>2019-01-10T14:05:28Z</time>
      </trkpt>
      <trkpt lat="36.815018479455" lon="-3.950360049531">
        <ele>478.8</ele>
        <time>2019-01-10T14:05:29Z</time>
      </trkpt>
      <trkpt lat="36.814880429562" lon="-3.950432720604">
        <ele>480</ele>
        <time>2019-01-10T14:05:35Z</time>
      </trkpt>
      <trkpt lat="36.814749252827" lon="-3.950511761921">
        <ele>481</ele>
        <time>2019-01-10T14:05:41Z</time>
      </trkpt>
      <trkpt lat="36.814731986113" lon="-3.950523161305">
        <ele>481.2</ele>
        <time>2019-01-10T14:05:42Z</time>
      </trkpt>
      <trkpt lat="36.814631906227" lon="-3.950619469336">
        <ele>482.2</ele>
        <time>2019-01-10T14:05:47Z</time>
      </trkpt>
      <trkpt lat="36.814571640366" lon="-3.950742180352">
        <ele>483.4</ele>
        <time>2019-01-10T14:05:51Z</time>
      </trkpt>
      <trkpt lat="36.814591337831" lon="-3.950925995419">
        <ele>484.6</ele>
        <time>2019-01-10T14:05:57Z</time>
      </trkpt>
      <trkpt lat="36.814599300636" lon="-3.951131351969">
        <ele>485.8</ele>
        <time>2019-01-10T14:06:03Z</time>
      </trkpt>
      <trkpt lat="36.814586057234" lon="-3.951284824558">
        <ele>486.8</ele>
        <time>2019-01-10T14:06:07Z</time>
      </trkpt>
      <trkpt lat="36.814563174647" lon="-3.951428238867">
        <ele>487.6</ele>
        <time>2019-01-10T14:06:11Z</time>
      </trkpt>
      <trkpt lat="36.814565353941" lon="-3.951463778123">
        <ele>488</ele>
        <time>2019-01-10T14:06:12Z</time>
      </trkpt>
      <trkpt lat="36.814628637286" lon="-3.951627979544">
        <ele>489</ele>
        <time>2019-01-10T14:06:17Z</time>
      </trkpt>
      <trkpt lat="36.814759646383" lon="-3.951629488286">
        <ele>490.2</ele>
        <time>2019-01-10T14:06:23Z</time>
      </trkpt>
      <trkpt lat="36.814837346596" lon="-3.951573748651">
        <ele>491.2</ele>
        <time>2019-01-10T14:06:27Z</time>
      </trkpt>
      <trkpt lat="36.814850673817" lon="-3.951550027874">
        <ele>491.2</ele>
        <time>2019-01-10T14:06:28Z</time>
      </trkpt>
      <trkpt lat="36.814954022644" lon="-3.951410553058">
        <ele>492.4</ele>
        <time>2019-01-10T14:06:34Z</time>
      </trkpt>
      <trkpt lat="36.815066340104" lon="-3.951277197029">
        <ele>493.4</ele>
        <time>2019-01-10T14:06:40Z</time>
      </trkpt>
      <trkpt lat="36.815088384501" lon="-3.951260852324">
        <ele>493.6</ele>
        <time>2019-01-10T14:06:41Z</time>
      </trkpt>
      <trkpt lat="36.815216459933" lon="-3.951203436309">
        <ele>494.4</ele>
        <time>2019-01-10T14:06:47Z</time>
      </trkpt>
      <trkpt lat="36.815262141288" lon="-3.951176781867">
        <ele>494.6</ele>
        <time>2019-01-10T14:06:49Z</time>
      </trkpt>
      <trkpt lat="36.815401616104" lon="-3.951087346994">
        <ele>495.8</ele>
        <time>2019-01-10T14:06:55Z</time>
      </trkpt>
      <trkpt lat="36.815486440932" lon="-3.951030014798">
        <ele>496.8</ele>
        <time>2019-01-10T14:06:59Z</time>
      </trkpt>
      <trkpt lat="36.815615019278" lon="-3.950917026786">
        <ele>497.6</ele>
        <time>2019-01-10T14:07:05Z</time>
      </trkpt>
      <trkpt lat="36.815702358676" lon="-3.950848211387">
        <ele>498.2</ele>
        <time>2019-01-10T14:07:09Z</time>
      </trkpt>
      <trkpt lat="36.815773353369" lon="-3.950806301887">
        <ele>499.2</ele>
        <time>2019-01-10T14:07:12Z</time>
      </trkpt>
      <trkpt lat="36.815928418519" lon="-3.950776462323">
        <ele>500.4</ele>
        <time>2019-01-10T14:07:18Z</time>
      </trkpt>
      <trkpt lat="36.816044340196" lon="-3.950774115391">
        <ele>501.4</ele>
        <time>2019-01-10T14:07:23Z</time>
      </trkpt>
      <trkpt lat="36.816156406199" lon="-3.950759279428">
        <ele>502.6</ele>
        <time>2019-01-10T14:07:28Z</time>
      </trkpt>
      <trkpt lat="36.816266376727" lon="-3.95070965858">
        <ele>503.6</ele>
        <time>2019-01-10T14:07:33Z</time>
      </trkpt>
      <trkpt lat="36.816391937589" lon="-3.950646710511">
        <ele>504.6</ele>
        <time>2019-01-10T14:07:39Z</time>
      </trkpt>
      <trkpt lat="36.816499812642" lon="-3.950568172108">
        <ele>505.8</ele>
        <time>2019-01-10T14:07:45Z</time>
      </trkpt>
      <trkpt lat="36.816591426809" lon="-3.950494411388">
        <ele>506.8</ele>
        <time>2019-01-10T14:07:50Z</time>
      </trkpt>
      <trkpt lat="36.816729560521" lon="-3.950458620675">
        <ele>507.6</ele>
        <time>2019-01-10T14:07:56Z</time>
      </trkpt>
      <trkpt lat="36.81675395185" lon="-3.950466080566">
        <ele>507.8</ele>
        <time>2019-01-10T14:07:57Z</time>
      </trkpt>
      <trkpt lat="36.816838692859" lon="-3.95052190402">
        <ele>509</ele>
        <time>2019-01-10T14:08:01Z</time>
      </trkpt>
      <trkpt lat="36.816931229035" lon="-3.950623241191">
        <ele>510</ele>
        <time>2019-01-10T14:08:06Z</time>
      </trkpt>
      <trkpt lat="36.81706072939" lon="-3.950729188407">
        <ele>510.8</ele>
        <time>2019-01-10T14:08:12Z</time>
      </trkpt>
      <trkpt lat="36.817111356066" lon="-3.950763218921">
        <ele>511</ele>
        <time>2019-01-10T14:08:14Z</time>
      </trkpt>
      <trkpt lat="36.817242532801" lon="-3.95088903124">
        <ele>512</ele>
        <time>2019-01-10T14:08:20Z</time>
      </trkpt>
      <trkpt lat="36.81725016033" lon="-3.950920547184">
        <ele>512</ele>
        <time>2019-01-10T14:08:21Z</time>
      </trkpt>
      <trkpt lat="36.817165084045" lon="-3.951133866539">
        <ele>512.6</ele>
        <time>2019-01-10T14:08:27Z</time>
      </trkpt>
      <trkpt lat="36.817066009987" lon="-3.951230090751">
        <ele>513.4</ele>
        <time>2019-01-10T14:08:31Z</time>
      </trkpt>
      <trkpt lat="36.816971378336" lon="-3.951463359028">
        <ele>514.4</ele>
        <time>2019-01-10T14:08:37Z</time>
      </trkpt>
      <trkpt lat="36.816979089684" lon="-3.951698974237">
        <ele>515</ele>
        <time>2019-01-10T14:08:43Z</time>
      </trkpt>
      <trkpt lat="36.817130885893" lon="-3.951804837634">
        <ele>515.2</ele>
        <time>2019-01-10T14:08:49Z</time>
      </trkpt>
      <trkpt lat="36.817160557819" lon="-3.951806765471">
        <ele>515.6</ele>
        <time>2019-01-10T14:08:50Z</time>
      </trkpt>
      <trkpt lat="36.817295674047" lon="-3.95182696585">
        <ele>516.8</ele>
        <time>2019-01-10T14:08:55Z</time>
      </trkpt>
      <trkpt lat="36.817445626238" lon="-3.951846411858">
        <ele>517.8</ele>
        <time>2019-01-10T14:09:01Z</time>
      </trkpt>
      <trkpt lat="36.817602703044" lon="-3.95185462612">
        <ele>519</ele>
        <time>2019-01-10T14:09:07Z</time>
      </trkpt>
      <trkpt lat="36.817761959144" lon="-3.951857811242">
        <ele>520.2</ele>
        <time>2019-01-10T14:09:13Z</time>
      </trkpt>
      <trkpt lat="36.81791233043" lon="-3.951877592526">
        <ele>521.2</ele>
        <time>2019-01-10T14:09:19Z</time>
      </trkpt>
      <trkpt lat="36.818006962081" lon="-3.951965099562">
        <ele>522</ele>
        <time>2019-01-10T14:09:24Z</time>
      </trkpt>
      <trkpt lat="36.818019870207" lon="-3.952018743722">
        <ele>522.4</ele>
        <time>2019-01-10T14:09:26Z</time>
      </trkpt>
      <trkpt lat="36.818034035618" lon="-3.952161822755">
        <ele>523.4</ele>
        <time>2019-01-10T14:09:31Z</time>
      </trkpt>
      <trkpt lat="36.81805817549" lon="-3.95225695732">
        <ele>524.8</ele>
        <time>2019-01-10T14:09:35Z</time>
      </trkpt>
      <trkpt lat="36.818132606762" lon="-3.952400036353">
        <ele>525.6</ele>
        <time>2019-01-10T14:09:41Z</time>
      </trkpt>
      <trkpt lat="36.818214246468" lon="-3.952524088473">
        <ele>526</ele>
        <time>2019-01-10T14:09:47Z</time>
      </trkpt>
      <trkpt lat="36.818245510955" lon="-3.952629281318">
        <ele>527.2</ele>
        <time>2019-01-10T14:09:51Z</time>
      </trkpt>
      <trkpt lat="36.81822581349" lon="-3.952752243791">
        <ele>528.2</ele>
        <time>2019-01-10T14:09:57Z</time>
      </trkpt>
      <trkpt lat="36.818179210126" lon="-3.952902028344">
        <ele>529.4</ele>
        <time>2019-01-10T14:10:03Z</time>
      </trkpt>
      <trkpt lat="36.818222879825" lon="-3.953064469566">
        <ele>530.2</ele>
        <time>2019-01-10T14:10:09Z</time>
      </trkpt>
      <trkpt lat="36.818257916167" lon="-3.953106295247">
        <ele>530.6</ele>
        <time>2019-01-10T14:10:11Z</time>
      </trkpt>
      <trkpt lat="36.818316924743" lon="-3.953163292167">
        <ele>531.8</ele>
        <time>2019-01-10T14:10:14Z</time>
      </trkpt>
      <trkpt lat="36.81840518615" lon="-3.953218947983">
        <ele>532.8</ele>
        <time>2019-01-10T14:10:18Z</time>
      </trkpt>
      <trkpt lat="36.818492106453" lon="-3.953273514152">
        <ele>533.8</ele>
        <time>2019-01-10T14:10:22Z</time>
      </trkpt>
      <trkpt lat="36.818575171082" lon="-3.953368732536">
        <ele>534.8</ele>
        <time>2019-01-10T14:10:27Z</time>
      </trkpt>
      <trkpt lat="36.818584726448" lon="-3.953495885959">
        <ele>536.2</ele>
        <time>2019-01-10T14:10:32Z</time>
      </trkpt>
      <trkpt lat="36.818532088116" lon="-3.953617758785">
        <ele>537.2</ele>
        <time>2019-01-10T14:10:37Z</time>
      </trkpt>
      <trkpt lat="36.818413651869" lon="-3.953741643267">
        <ele>538</ele>
        <time>2019-01-10T14:10:43Z</time>
      </trkpt>
      <trkpt lat="36.818349781791" lon="-3.95379838873">
        <ele>538.2</ele>
        <time>2019-01-10T14:10:46Z</time>
      </trkpt>
      <trkpt lat="36.818193375537" lon="-3.953884554662">
        <ele>539.2</ele>
        <time>2019-01-10T14:10:52Z</time>
      </trkpt>
      <trkpt lat="36.818166469638" lon="-3.953897546607">
        <ele>539.4</ele>
        <time>2019-01-10T14:10:53Z</time>
      </trkpt>
      <trkpt lat="36.817987516073" lon="-3.953958566839">
        <ele>540.2</ele>
        <time>2019-01-10T14:10:59Z</time>
      </trkpt>
      <trkpt lat="36.817956083948" lon="-3.953970804413">
        <ele>540.4</ele>
        <time>2019-01-10T14:11:00Z</time>
      </trkpt>
      <trkpt lat="36.817815854761" lon="-3.954106255917">
        <ele>541.4</ele>
        <time>2019-01-10T14:11:06Z</time>
      </trkpt>
      <trkpt lat="36.817805628843" lon="-3.954343463687">
        <ele>542.4</ele>
        <time>2019-01-10T14:11:12Z</time>
      </trkpt>
      <trkpt lat="36.817929178049" lon="-3.95467345909">
        <ele>541.8</ele>
        <time>2019-01-10T14:11:18Z</time>
      </trkpt>
      <trkpt lat="36.817993383403" lon="-3.95479499664">
        <ele>541.2</ele>
        <time>2019-01-10T14:11:20Z</time>
      </trkpt>
      <trkpt lat="36.818075358385" lon="-3.954892561956">
        <ele>540.8</ele>
        <time>2019-01-10T14:11:22Z</time>
      </trkpt>
      <trkpt lat="36.818162446326" lon="-3.954953163093">
        <ele>540.8</ele>
        <time>2019-01-10T14:11:24Z</time>
      </trkpt>
      <trkpt lat="36.818394205861" lon="-3.954981661553">
        <ele>541.4</ele>
        <time>2019-01-10T14:11:30Z</time>
      </trkpt>
      <trkpt lat="36.818480707069" lon="-3.954954168921">
        <ele>542.6</ele>
        <time>2019-01-10T14:11:33Z</time>
      </trkpt>
      <trkpt lat="36.818582463335" lon="-3.954922904434">
        <ele>543.8</ele>
        <time>2019-01-10T14:11:38Z</time>
      </trkpt>
      <trkpt lat="36.818663013394" lon="-3.95488719754">
        <ele>544.8</ele>
        <time>2019-01-10T14:11:42Z</time>
      </trkpt>
      <trkpt lat="36.818762422728" lon="-3.954803965273">
        <ele>546</ele>
        <time>2019-01-10T14:11:47Z</time>
      </trkpt>
      <trkpt lat="36.818858227845" lon="-3.954684104103">
        <ele>547.2</ele>
        <time>2019-01-10T14:11:53Z</time>
      </trkpt>
      <trkpt lat="36.818927043244" lon="-3.954607744994">
        <ele>548.4</ele>
        <time>2019-01-10T14:11:57Z</time>
      </trkpt>
      <trkpt lat="36.819073810313" lon="-3.954592406117">
        <ele>549.4</ele>
        <time>2019-01-10T14:12:03Z</time>
      </trkpt>
      <trkpt lat="36.819193503845" lon="-3.954659042222">
        <ele>550.6</ele>
        <time>2019-01-10T14:12:08Z</time>
      </trkpt>
      <trkpt lat="36.819326524598" lon="-3.954704891215">
        <ele>551.6</ele>
        <time>2019-01-10T14:12:13Z</time>
      </trkpt>
      <trkpt lat="36.819495503702" lon="-3.954691144899">
        <ele>552.4</ele>
        <time>2019-01-10T14:12:19Z</time>
      </trkpt>
      <trkpt lat="36.819551494794" lon="-3.954707992518">
        <ele>552.8</ele>
        <time>2019-01-10T14:12:21Z</time>
      </trkpt>
      <trkpt lat="36.819673954353" lon="-3.954867583894">
        <ele>553.6</ele>
        <time>2019-01-10T14:12:27Z</time>
      </trkpt>
      <trkpt lat="36.819688706497" lon="-3.954986774512">
        <ele>553.8</ele>
        <time>2019-01-10T14:12:30Z</time>
      </trkpt>
      <trkpt lat="36.819660124218" lon="-3.955168158828">
        <ele>554.6</ele>
        <time>2019-01-10T14:12:36Z</time>
      </trkpt>
      <trkpt lat="36.81965241287" lon="-3.955227251223">
        <ele>554.8</ele>
        <time>2019-01-10T14:12:38Z</time>
      </trkpt>
      <trkpt lat="36.81963145812" lon="-3.955345436013">
        <ele>556</ele>
        <time>2019-01-10T14:12:42Z</time>
      </trkpt>
      <trkpt lat="36.819618549994" lon="-3.955495974937">
        <ele>557</ele>
        <time>2019-01-10T14:12:47Z</time>
      </trkpt>
      <trkpt lat="36.819625423152" lon="-3.955695045062">
        <ele>557.6</ele>
        <time>2019-01-10T14:12:53Z</time>
      </trkpt>
      <trkpt lat="36.819619304365" lon="-3.955838878466">
        <ele>558</ele>
        <time>2019-01-10T14:12:57Z</time>
      </trkpt>
      <trkpt lat="36.81960715061" lon="-3.956063932481">
        <ele>558.8</ele>
        <time>2019-01-10T14:13:03Z</time>
      </trkpt>
      <trkpt lat="36.819598684891" lon="-3.956138196115">
        <ele>559.2</ele>
        <time>2019-01-10T14:13:05Z</time>
      </trkpt>
      <trkpt lat="36.819600696547" lon="-3.956285969012">
        <ele>560.4</ele>
        <time>2019-01-10T14:13:09Z</time>
      </trkpt>
      <trkpt lat="36.819624836419" lon="-3.956512364131">
        <ele>561</ele>
        <time>2019-01-10T14:13:15Z</time>
      </trkpt>
      <trkpt lat="36.8196498983" lon="-3.956619987727">
        <ele>561.4</ele>
        <time>2019-01-10T14:13:18Z</time>
      </trkpt>
      <trkpt lat="36.819705637935" lon="-3.956788128641">
        <ele>562.4</ele>
        <time>2019-01-10T14:13:23Z</time>
      </trkpt>
      <trkpt lat="36.819766322891" lon="-3.956937326461">
        <ele>563.6</ele>
        <time>2019-01-10T14:13:28Z</time>
      </trkpt>
      <trkpt lat="36.819853159375" lon="-3.957093397439">
        <ele>564.8</ele>
        <time>2019-01-10T14:13:33Z</time>
      </trkpt>
      <trkpt lat="36.819943348619" lon="-3.957171684385">
        <ele>565.8</ele>
        <time>2019-01-10T14:13:37Z</time>
      </trkpt>
      <trkpt lat="36.820036639166" lon="-3.957233039893">
        <ele>566.8</ele>
        <time>2019-01-10T14:13:41Z</time>
      </trkpt>
      <trkpt lat="36.820162367666" lon="-3.957305710966">
        <ele>567.8</ele>
        <time>2019-01-10T14:13:46Z</time>
      </trkpt>
      <trkpt lat="36.820267392873" lon="-3.957403108644">
        <ele>569</ele>
        <time>2019-01-10T14:13:51Z</time>
      </trkpt>
      <trkpt lat="36.820285916872" lon="-3.957524897651">
        <ele>569.6</ele>
        <time>2019-01-10T14:13:56Z</time>
      </trkpt>
      <trkpt lat="36.820287257976" lon="-3.957603436054">
        <ele>570</ele>
        <time>2019-01-10T14:13:59Z</time>
      </trkpt>
      <trkpt lat="36.820305279061" lon="-3.957734864246">
        <ele>571</ele>
        <time>2019-01-10T14:14:04Z</time>
      </trkpt>
      <trkpt lat="36.820319193015" lon="-3.957757914471">
        <ele>571.2</ele>
        <time>2019-01-10T14:14:05Z</time>
      </trkpt>
      <trkpt lat="36.820408627888" lon="-3.957813821744">
        <ele>572</ele>
        <time>2019-01-10T14:14:09Z</time>
      </trkpt>
      <trkpt lat="36.820536200406" lon="-3.95785019919">
        <ele>573.2</ele>
        <time>2019-01-10T14:14:14Z</time>
      </trkpt>
      <trkpt lat="36.820618091569" lon="-3.95788456498">
        <ele>574</ele>
        <time>2019-01-10T14:14:19Z</time>
      </trkpt>
      <trkpt lat="36.820601998321" lon="-3.957909626861">
        <ele>574.4</ele>
        <time>2019-01-10T14:15:16Z</time>
      </trkpt>
      <trkpt lat="36.820581211209" lon="-3.957908369576">
        <ele>574.4</ele>
        <time>2019-01-10T14:15:17Z</time>
      </trkpt>
      <trkpt lat="36.820519185149" lon="-3.957883894428">
        <ele>574.4</ele>
        <time>2019-01-10T14:15:19Z</time>
      </trkpt>
      <trkpt lat="36.820336124453" lon="-3.957793789003">
        <ele>573.4</ele>
        <time>2019-01-10T14:15:23Z</time>
      </trkpt>
      <trkpt lat="36.820276110049" lon="-3.957675185118">
        <ele>572.8</ele>
        <time>2019-01-10T14:15:25Z</time>
      </trkpt>
      <trkpt lat="36.820247108675" lon="-3.957427332335">
        <ele>572</ele>
        <time>2019-01-10T14:15:28Z</time>
      </trkpt>
      <trkpt lat="36.820163289675" lon="-3.957299256903">
        <ele>571</ele>
        <time>2019-01-10T14:15:30Z</time>
      </trkpt>
      <trkpt lat="36.820028257266" lon="-3.95722658583">
        <ele>569.8</ele>
        <time>2019-01-10T14:15:32Z</time>
      </trkpt>
      <trkpt lat="36.819955586193" lon="-3.957181239751">
        <ele>569.2</ele>
        <time>2019-01-10T14:15:33Z</time>
      </trkpt>
      <trkpt lat="36.819884256224" lon="-3.957128852876">
        <ele>568.6</ele>
        <time>2019-01-10T14:15:34Z</time>
      </trkpt>
      <trkpt lat="36.819814267359" lon="-3.957054253966">
        <ele>568</ele>
        <time>2019-01-10T14:15:35Z</time>
      </trkpt>
      <trkpt lat="36.819758863" lon="-3.956966663111">
        <ele>567.4</ele>
        <time>2019-01-10T14:15:36Z</time>
      </trkpt>
      <trkpt lat="36.819715025663" lon="-3.956862727551">
        <ele>566.8</ele>
        <time>2019-01-10T14:15:37Z</time>
      </trkpt>
      <trkpt lat="36.81967336762" lon="-3.956752421747">
        <ele>566</ele>
        <time>2019-01-10T14:15:38Z</time>
      </trkpt>
      <trkpt lat="36.819592566104" lon="-3.956520578393">
        <ele>564.6</ele>
        <time>2019-01-10T14:15:40Z</time>
      </trkpt>
      <trkpt lat="36.819562558902" lon="-3.956269205212">
        <ele>563</ele>
        <time>2019-01-10T14:15:42Z</time>
      </trkpt>
      <trkpt lat="36.819564905834" lon="-3.956007438475">
        <ele>561.8</ele>
        <time>2019-01-10T14:15:44Z</time>
      </trkpt>
      <trkpt lat="36.819582172548" lon="-3.955745755557">
        <ele>560.2</ele>
        <time>2019-01-10T14:15:46Z</time>
      </trkpt>
      <trkpt lat="36.819594913036" lon="-3.955493711824">
        <ele>559.2</ele>
        <time>2019-01-10T14:15:48Z</time>
      </trkpt>
      <trkpt lat="36.819616119243" lon="-3.95524007553">
        <ele>558</ele>
        <time>2019-01-10T14:15:50Z</time>
      </trkpt>
      <trkpt lat="36.819643360418" lon="-3.955024912157">
        <ele>556.8</ele>
        <time>2019-01-10T14:15:52Z</time>
      </trkpt>
      <trkpt lat="36.81965157468" lon="-3.954930112868">
        <ele>556</ele>
        <time>2019-01-10T14:15:53Z</time>
      </trkpt>
      <trkpt lat="36.819640259115" lon="-3.954842102918">
        <ele>555.4</ele>
        <time>2019-01-10T14:15:54Z</time>
      </trkpt>
      <trkpt lat="36.81960379785" lon="-3.954762474868">
        <ele>554.8</ele>
        <time>2019-01-10T14:15:55Z</time>
      </trkpt>
      <trkpt lat="36.819537413202" lon="-3.954710674726">
        <ele>554.2</ele>
        <time>2019-01-10T14:15:56Z</time>
      </trkpt>
      <trkpt lat="36.819462395197" lon="-3.95468351737">
        <ele>553.8</ele>
        <time>2019-01-10T14:15:57Z</time>
      </trkpt>
      <trkpt lat="36.819309425522" lon="-3.954680751343">
        <ele>553.4</ele>
        <time>2019-01-10T14:15:59Z</time>
      </trkpt>
      <trkpt lat="36.819229462196" lon="-3.954665328647">
        <ele>553</ele>
        <time>2019-01-10T14:16:00Z</time>
      </trkpt>
      <trkpt lat="36.819057046513" lon="-3.954608331727">
        <ele>552.6</ele>
        <time>2019-01-10T14:16:02Z</time>
      </trkpt>
      <trkpt lat="36.818888318866" lon="-3.954656360014">
        <ele>552</ele>
        <time>2019-01-10T14:16:04Z</time>
      </trkpt>
      <trkpt lat="36.818739372503" lon="-3.954805306377">
        <ele>551</ele>
        <time>2019-01-10T14:16:06Z</time>
      </trkpt>
      <trkpt lat="36.818567208277" lon="-3.954916366552">
        <ele>549.4</ele>
        <time>2019-01-10T14:16:08Z</time>
      </trkpt>
      <trkpt lat="36.818358666605" lon="-3.954983840847">
        <ele>548.2</ele>
        <time>2019-01-10T14:16:10Z</time>
      </trkpt>
      <trkpt lat="36.818253222303" lon="-3.955003538312">
        <ele>547.2</ele>
        <time>2019-01-10T14:16:11Z</time>
      </trkpt>
      <trkpt lat="36.818152388046" lon="-3.955005047054">
        <ele>546.4</ele>
        <time>2019-01-10T14:16:12Z</time>
      </trkpt>
      <trkpt lat="36.818048201029" lon="-3.954974956033">
        <ele>545</ele>
        <time>2019-01-10T14:16:13Z</time>
      </trkpt>
      <trkpt lat="36.817895231354" lon="-3.954799941961">
        <ele>543.2</ele>
        <time>2019-01-10T14:16:15Z</time>
      </trkpt>
      <trkpt lat="36.817813172553" lon="-3.954584862407">
        <ele>542.6</ele>
        <time>2019-01-10T14:16:17Z</time>
      </trkpt>
      <trkpt lat="36.817758774022" lon="-3.954394258001">
        <ele>542.2</ele>
        <time>2019-01-10T14:16:19Z</time>
      </trkpt>
      <trkpt lat="36.81773966329" lon="-3.954306164232">
        <ele>542</ele>
        <time>2019-01-10T14:16:20Z</time>
      </trkpt>
      <trkpt lat="36.817757181461" lon="-3.954144477381">
        <ele>542</ele>
        <time>2019-01-10T14:16:22Z</time>
      </trkpt>
      <trkpt lat="36.817857512804" lon="-3.954029896808">
        <ele>542</ele>
        <time>2019-01-10T14:16:24Z</time>
      </trkpt>
      <trkpt lat="36.81797854744" lon="-3.953945239618">
        <ele>542</ele>
        <time>2019-01-10T14:16:26Z</time>
      </trkpt>
      <trkpt lat="36.818105197949" lon="-3.953903833032">
        <ele>541</ele>
        <time>2019-01-10T14:16:28Z</time>
      </trkpt>
      <trkpt lat="36.818209636423" lon="-3.953860498609">
        <ele>540</ele>
        <time>2019-01-10T14:16:30Z</time>
      </trkpt>
      <trkpt lat="36.818301585866" lon="-3.953803501689">
        <ele>539.4</ele>
        <time>2019-01-10T14:16:32Z</time>
      </trkpt>
      <trkpt lat="36.81838171683" lon="-3.953733093729">
        <ele>538.8</ele>
        <time>2019-01-10T14:16:34Z</time>
      </trkpt>
      <trkpt lat="36.818416166439" lon="-3.953695375179">
        <ele>538.4</ele>
        <time>2019-01-10T14:16:35Z</time>
      </trkpt>
      <trkpt lat="36.818512977384" lon="-3.95353100612">
        <ele>538</ele>
        <time>2019-01-10T14:16:38Z</time>
      </trkpt>
      <trkpt lat="36.818529405908" lon="-3.953462945092">
        <ele>537.8</ele>
        <time>2019-01-10T14:16:39Z</time>
      </trkpt>
      <trkpt lat="36.818522784207" lon="-3.953388849096">
        <ele>537.6</ele>
        <time>2019-01-10T14:16:40Z</time>
      </trkpt>
      <trkpt lat="36.818434774257" lon="-3.953257085628">
        <ele>537.2</ele>
        <time>2019-01-10T14:16:42Z</time>
      </trkpt>
      <trkpt lat="36.818297981649" lon="-3.953157843932">
        <ele>535.8</ele>
        <time>2019-01-10T14:16:44Z</time>
      </trkpt>
      <trkpt lat="36.818232099915" lon="-3.95309850008">
        <ele>535.2</ele>
        <time>2019-01-10T14:16:45Z</time>
      </trkpt>
      <trkpt lat="36.81817887485" lon="-3.953028678853">
        <ele>534.6</ele>
        <time>2019-01-10T14:16:46Z</time>
      </trkpt>
      <trkpt lat="36.818154148245" lon="-3.952941590912">
        <ele>534</ele>
        <time>2019-01-10T14:16:47Z</time>
      </trkpt>
      <trkpt lat="36.818166050543" lon="-3.952844025596">
        <ele>533.2</ele>
        <time>2019-01-10T14:16:48Z</time>
      </trkpt>
      <trkpt lat="36.818187340569" lon="-3.952743442796">
        <ele>532.4</ele>
        <time>2019-01-10T14:16:49Z</time>
      </trkpt>
      <trkpt lat="36.818191615338" lon="-3.952636070657">
        <ele>531.8</ele>
        <time>2019-01-10T14:16:50Z</time>
      </trkpt>
      <trkpt lat="36.818174600081" lon="-3.952527776509">
        <ele>531</ele>
        <time>2019-01-10T14:16:51Z</time>
      </trkpt>
      <trkpt lat="36.818128918726" lon="-3.95242878627">
        <ele>530</ele>
        <time>2019-01-10T14:16:52Z</time>
      </trkpt>
      <trkpt lat="36.818072676177" lon="-3.95233490899">
        <ele>529</ele>
        <time>2019-01-10T14:16:53Z</time>
      </trkpt>
      <trkpt lat="36.81803470617" lon="-3.952230302878">
        <ele>528</ele>
        <time>2019-01-10T14:16:54Z</time>
      </trkpt>
      <trkpt lat="36.818014841067" lon="-3.952125948223">
        <ele>526.8</ele>
        <time>2019-01-10T14:16:55Z</time>
      </trkpt>
      <trkpt lat="36.817977373974" lon="-3.952023018491">
        <ele>525.6</ele>
        <time>2019-01-10T14:16:56Z</time>
      </trkpt>
      <trkpt lat="36.817834714036" lon="-3.951885052417">
        <ele>524</ele>
        <time>2019-01-10T14:16:58Z</time>
      </trkpt>
      <trkpt lat="36.8176382423" lon="-3.951854542301">
        <ele>523</ele>
        <time>2019-01-10T14:17:00Z</time>
      </trkpt>
      <trkpt lat="36.81733146476" lon="-3.951821014701">
        <ele>521.6</ele>
        <time>2019-01-10T14:17:03Z</time>
      </trkpt>
      <trkpt lat="36.817054275327" lon="-3.951802574521">
        <ele>520.2</ele>
        <time>2019-01-10T14:17:06Z</time>
      </trkpt>
      <trkpt lat="36.816937264003" lon="-3.951692939269">
        <ele>518.6</ele>
        <time>2019-01-10T14:17:08Z</time>
      </trkpt>
      <trkpt lat="36.816917985633" lon="-3.951508872745">
        <ele>517.2</ele>
        <time>2019-01-10T14:17:10Z</time>
      </trkpt>
      <trkpt lat="36.816962242065" lon="-3.951321621099">
        <ele>516</ele>
        <time>2019-01-10T14:17:12Z</time>
      </trkpt>
      <trkpt lat="36.817076990276" lon="-3.951167561777">
        <ele>515.2</ele>
        <time>2019-01-10T14:17:14Z</time>
      </trkpt>
      <trkpt lat="36.817142201458" lon="-3.951107547373">
        <ele>514.8</ele>
        <time>2019-01-10T14:17:15Z</time>
      </trkpt>
      <trkpt lat="36.817187798994" lon="-3.951033032282">
        <ele>514.4</ele>
        <time>2019-01-10T14:17:16Z</time>
      </trkpt>
      <trkpt lat="36.817187547537" lon="-3.950864136997">
        <ele>513.8</ele>
        <time>2019-01-10T14:17:18Z</time>
      </trkpt>
      <trkpt lat="36.817084869262" lon="-3.95074402437">
        <ele>513.2</ele>
        <time>2019-01-10T14:17:20Z</time>
      </trkpt>
      <trkpt lat="36.816967606481" lon="-3.950645453226">
        <ele>512.4</ele>
        <time>2019-01-10T14:17:22Z</time>
      </trkpt>
      <trkpt lat="36.81678747945" lon="-3.950479240149">
        <ele>511</ele>
        <time>2019-01-10T14:17:25Z</time>
      </trkpt>
      <trkpt lat="36.816626211694" lon="-3.950481587081">
        <ele>510.2</ele>
        <time>2019-01-10T14:17:27Z</time>
      </trkpt>
      <trkpt lat="36.816541805961" lon="-3.950527603712">
        <ele>509.4</ele>
        <time>2019-01-10T14:17:28Z</time>
      </trkpt>
      <trkpt lat="36.816374922332" lon="-3.950632042186">
        <ele>507.8</ele>
        <time>2019-01-10T14:17:30Z</time>
      </trkpt>
      <trkpt lat="36.816179288786" lon="-3.950725165095">
        <ele>506.2</ele>
        <time>2019-01-10T14:17:32Z</time>
      </trkpt>
      <trkpt lat="36.816074682674" lon="-3.950756345763">
        <ele>505.2</ele>
        <time>2019-01-10T14:17:33Z</time>
      </trkpt>
      <trkpt lat="36.815762708356" lon="-3.950819545289">
        <ele>503.8</ele>
        <time>2019-01-10T14:17:36Z</time>
      </trkpt>
      <trkpt lat="36.815669669266" lon="-3.950868998499">
        <ele>502.8</ele>
        <time>2019-01-10T14:17:37Z</time>
      </trkpt>
      <trkpt lat="36.815498259411" lon="-3.951007718944">
        <ele>500.6</ele>
        <time>2019-01-10T14:17:39Z</time>
      </trkpt>
      <trkpt lat="36.815409411271" lon="-3.951075528515">
        <ele>499.6</ele>
        <time>2019-01-10T14:17:40Z</time>
      </trkpt>
      <trkpt lat="36.815219645055" lon="-3.951200586463">
        <ele>498</ele>
        <time>2019-01-10T14:17:42Z</time>
      </trkpt>
      <trkpt lat="36.815028370097" lon="-3.951346515342">
        <ele>497</ele>
        <time>2019-01-10T14:17:44Z</time>
      </trkpt>
      <trkpt lat="36.814858888079" lon="-3.951527815839">
        <ele>495.8</ele>
        <time>2019-01-10T14:17:46Z</time>
      </trkpt>
      <trkpt lat="36.814782612789" lon="-3.951606605699">
        <ele>494.8</ele>
        <time>2019-01-10T14:17:47Z</time>
      </trkpt>
      <trkpt lat="36.814711701915" lon="-3.951667039198">
        <ele>493.2</ele>
        <time>2019-01-10T14:17:48Z</time>
      </trkpt>
      <trkpt lat="36.814641210136" lon="-3.951699980065">
        <ele>492</ele>
        <time>2019-01-10T14:17:49Z</time>
      </trkpt>
      <trkpt lat="36.814573400565" lon="-3.9516886645">
        <ele>491.2</ele>
        <time>2019-01-10T14:17:50Z</time>
      </trkpt>
      <trkpt lat="36.814515230179" lon="-3.951637199634">
        <ele>490.6</ele>
        <time>2019-01-10T14:17:51Z</time>
      </trkpt>
      <trkpt lat="36.81448916247" lon="-3.951547345666">
        <ele>490.2</ele>
        <time>2019-01-10T14:17:52Z</time>
      </trkpt>
      <trkpt lat="36.814573568203" lon="-3.951176195134">
        <ele>489.4</ele>
        <time>2019-01-10T14:17:55Z</time>
      </trkpt>
      <trkpt lat="36.814586643967" lon="-3.951056920697">
        <ele>489.4</ele>
        <time>2019-01-10T14:17:56Z</time>
      </trkpt>
      <trkpt lat="36.814577256239" lon="-3.950836057632">
        <ele>488.2</ele>
        <time>2019-01-10T14:17:58Z</time>
      </trkpt>
      <trkpt lat="36.814573987298" lon="-3.950736899755">
        <ele>487.2</ele>
        <time>2019-01-10T14:17:59Z</time>
      </trkpt>
      <trkpt lat="36.814592678935" lon="-3.950649057443">
        <ele>486.2</ele>
        <time>2019-01-10T14:18:00Z</time>
      </trkpt>
      <trkpt lat="36.814642215964" lon="-3.950579487673">
        <ele>485.6</ele>
        <time>2019-01-10T14:18:01Z</time>
      </trkpt>
      <trkpt lat="36.814715306132" lon="-3.950523077486">
        <ele>485</ele>
        <time>2019-01-10T14:18:02Z</time>
      </trkpt>
      <trkpt lat="36.814953268273" lon="-3.950373712028">
        <ele>483.6</ele>
        <time>2019-01-10T14:18:05Z</time>
      </trkpt>
      <trkpt lat="36.815057790566" lon="-3.950213198643">
        <ele>482.2</ele>
        <time>2019-01-10T14:18:07Z</time>
      </trkpt>
      <trkpt lat="36.815112440554" lon="-3.950017565097">
        <ele>480.6</ele>
        <time>2019-01-10T14:18:09Z</time>
      </trkpt>
      <trkpt lat="36.815095509116" lon="-3.949832492745">
        <ele>479.4</ele>
        <time>2019-01-10T14:18:11Z</time>
      </trkpt>
      <trkpt lat="36.814955950481" lon="-3.94974574008">
        <ele>478.4</ele>
        <time>2019-01-10T14:18:13Z</time>
      </trkpt>
      <trkpt lat="36.814864587771" lon="-3.949752780876">
        <ele>477.8</ele>
        <time>2019-01-10T14:18:14Z</time>
      </trkpt>
      <trkpt lat="36.814768447378" lon="-3.949764264079">
        <ele>477</ele>
        <time>2019-01-10T14:18:15Z</time>
      </trkpt>
      <trkpt lat="36.814665601465" lon="-3.949767113925">
        <ele>476.2</ele>
        <time>2019-01-10T14:18:16Z</time>
      </trkpt>
      <trkpt lat="36.814440044536" lon="-3.949788068675">
        <ele>474.6</ele>
        <time>2019-01-10T14:18:18Z</time>
      </trkpt>
      <trkpt lat="36.814216163987" lon="-3.949895524633">
        <ele>472.8</ele>
        <time>2019-01-10T14:18:20Z</time>
      </trkpt>
      <trkpt lat="36.814109797676" lon="-3.94996534586">
        <ele>471.4</ele>
        <time>2019-01-10T14:18:21Z</time>
      </trkpt>
      <trkpt lat="36.814004521012" lon="-3.950031981965">
        <ele>469.8</ele>
        <time>2019-01-10T14:18:22Z</time>
      </trkpt>
      <trkpt lat="36.813899831081" lon="-3.950094091844">
        <ele>468.4</ele>
        <time>2019-01-10T14:18:23Z</time>
      </trkpt>
      <trkpt lat="36.813695815635" lon="-3.950219904163">
        <ele>467</ele>
        <time>2019-01-10T14:18:25Z</time>
      </trkpt>
      <trkpt lat="36.813488782705" lon="-3.950360720083">
        <ele>464.8</ele>
        <time>2019-01-10T14:18:27Z</time>
      </trkpt>
      <trkpt lat="36.81338275167" lon="-3.950438001201">
        <ele>463.2</ele>
        <time>2019-01-10T14:18:28Z</time>
      </trkpt>
      <trkpt lat="36.813271691495" lon="-3.950505643134">
        <ele>461.6</ele>
        <time>2019-01-10T14:18:29Z</time>
      </trkpt>
      <trkpt lat="36.813156943284" lon="-3.950558700561">
        <ele>460.6</ele>
        <time>2019-01-10T14:18:30Z</time>
      </trkpt>
      <trkpt lat="36.812917723858" lon="-3.950637825697">
        <ele>458.8</ele>
        <time>2019-01-10T14:18:32Z</time>
      </trkpt>
      <trkpt lat="36.812796521584" lon="-3.950663055216">
        <ele>457.6</ele>
        <time>2019-01-10T14:18:33Z</time>
      </trkpt>
      <trkpt lat="36.812568450085" lon="-3.950671856211">
        <ele>455.8</ele>
        <time>2019-01-10T14:18:35Z</time>
      </trkpt>
      <trkpt lat="36.812471220045" lon="-3.950656182058">
        <ele>454.6</ele>
        <time>2019-01-10T14:18:36Z</time>
      </trkpt>
      <trkpt lat="36.812384970294" lon="-3.950623492648">
        <ele>453.6</ele>
        <time>2019-01-10T14:18:37Z</time>
      </trkpt>
      <trkpt lat="36.812310455203" lon="-3.950557359457">
        <ele>452.8</ele>
        <time>2019-01-10T14:18:38Z</time>
      </trkpt>
      <trkpt lat="36.812262594554" lon="-3.950461721978">
        <ele>452.4</ele>
        <time>2019-01-10T14:18:39Z</time>
      </trkpt>
      <trkpt lat="36.812243316184" lon="-3.950348901604">
        <ele>452.2</ele>
        <time>2019-01-10T14:18:40Z</time>
      </trkpt>
      <trkpt lat="36.812233928456" lon="-3.95012208739">
        <ele>452</ele>
        <time>2019-01-10T14:18:42Z</time>
      </trkpt>
      <trkpt lat="36.81211373201" lon="-3.949980098004">
        <ele>451.6</ele>
        <time>2019-01-10T14:18:44Z</time>
      </trkpt>
      <trkpt lat="36.812031337933" lon="-3.949937937047">
        <ele>451.2</ele>
        <time>2019-01-10T14:18:45Z</time>
      </trkpt>
      <trkpt lat="36.81184886397" lon="-3.949867696725">
        <ele>450</ele>
        <time>2019-01-10T14:18:47Z</time>
      </trkpt>
      <trkpt lat="36.811654571528" lon="-3.949832744202">
        <ele>449.2</ele>
        <time>2019-01-10T14:18:49Z</time>
      </trkpt>
      <trkpt lat="36.811564801379" lon="-3.949835845505">
        <ele>448.6</ele>
        <time>2019-01-10T14:18:50Z</time>
      </trkpt>
      <trkpt lat="36.811480647103" lon="-3.949878006462">
        <ele>448</ele>
        <time>2019-01-10T14:18:51Z</time>
      </trkpt>
      <trkpt lat="36.811379729027" lon="-3.950035083268">
        <ele>447.4</ele>
        <time>2019-01-10T14:18:53Z</time>
      </trkpt>
      <trkpt lat="36.811283504815" lon="-3.950305567181">
        <ele>448.8</ele>
        <time>2019-01-10T14:18:57Z</time>
      </trkpt>
      <trkpt lat="36.811247378826" lon="-3.950407658723">
        <ele>450.2</ele>
        <time>2019-01-10T14:18:59Z</time>
      </trkpt>
      <trkpt lat="36.811191471553" lon="-3.950528693359">
        <ele>451.2</ele>
        <time>2019-01-10T14:19:02Z</time>
      </trkpt>
      <trkpt lat="36.811111592046" lon="-3.950620307526">
        <ele>452.2</ele>
        <time>2019-01-10T14:19:05Z</time>
      </trkpt>
      <trkpt lat="36.811006399201" lon="-3.950686273079">
        <ele>453.2</ele>
        <time>2019-01-10T14:19:08Z</time>
      </trkpt>
      <trkpt lat="36.810965160253" lon="-3.950698678291">
        <ele>453.4</ele>
        <time>2019-01-10T14:19:09Z</time>
      </trkpt>
      <trkpt lat="36.810799617728" lon="-3.950707898381">
        <ele>454</ele>
        <time>2019-01-10T14:19:13Z</time>
      </trkpt>
      <trkpt lat="36.810705656629" lon="-3.950737067393">
        <ele>454.2</ele>
        <time>2019-01-10T14:19:15Z</time>
      </trkpt>
      <trkpt lat="36.810572384419" lon="-3.950813510321">
        <ele>454.4</ele>
        <time>2019-01-10T14:19:18Z</time>
      </trkpt>
      <trkpt lat="36.810532486575" lon="-3.950847708473">
        <ele>454.4</ele>
        <time>2019-01-10T14:19:19Z</time>
      </trkpt>
      <trkpt lat="36.810494600387" lon="-3.950884924109">
        <ele>454.6</ele>
        <time>2019-01-10T14:19:20Z</time>
      </trkpt>
      <trkpt lat="36.810411032844" lon="-3.951100171301">
        <ele>455.6</ele>
        <time>2019-01-10T14:19:25Z</time>
      </trkpt>
      <trkpt lat="36.810408937369" lon="-3.951277448486">
        <ele>456.2</ele>
        <time>2019-01-10T14:19:31Z</time>
      </trkpt>
      <trkpt lat="36.810420420572" lon="-3.951323297479">
        <ele>456.8</ele>
        <time>2019-01-10T14:19:33Z</time>
      </trkpt>
      <trkpt lat="36.810442129693" lon="-3.951452797834">
        <ele>457.8</ele>
        <time>2019-01-10T14:19:38Z</time>
      </trkpt>
      <trkpt lat="36.810447577928" lon="-3.951648934294">
        <ele>459</ele>
        <time>2019-01-10T14:19:44Z</time>
      </trkpt>
      <trkpt lat="36.810391167741" lon="-3.951837191768">
        <ele>460</ele>
        <time>2019-01-10T14:19:50Z</time>
      </trkpt>
      <trkpt lat="36.810276670987" lon="-3.951995358221">
        <ele>460.6</ele>
        <time>2019-01-10T14:19:56Z</time>
      </trkpt>
      <trkpt lat="36.810213303823" lon="-3.952050594942">
        <ele>461</ele>
        <time>2019-01-10T14:19:59Z</time>
      </trkpt>
      <trkpt lat="36.810061423795" lon="-3.95214883081">
        <ele>461.4</ele>
        <time>2019-01-10T14:20:05Z</time>
      </trkpt>
      <trkpt lat="36.809993278948" lon="-3.952174227967">
        <ele>461.4</ele>
        <time>2019-01-10T14:20:08Z</time>
      </trkpt>
      <trkpt lat="36.809856318702" lon="-3.952268105247">
        <ele>461.8</ele>
        <time>2019-01-10T14:20:14Z</time>
      </trkpt>
      <trkpt lat="36.809805272931" lon="-3.952309847109">
        <ele>462.2</ele>
        <time>2019-01-10T14:20:16Z</time>
      </trkpt>
      <trkpt lat="36.809675521119" lon="-3.952403472932">
        <ele>463.2</ele>
        <time>2019-01-10T14:20:21Z</time>
      </trkpt>
      <trkpt lat="36.809497489563" lon="-3.952440688568">
        <ele>464.4</ele>
        <time>2019-01-10T14:20:27Z</time>
      </trkpt>
      <trkpt lat="36.809286098045" lon="-3.952385535666">
        <ele>464.8</ele>
        <time>2019-01-10T14:20:33Z</time>
      </trkpt>
      <trkpt lat="36.809144695392" lon="-3.952339602854">
        <ele>465.4</ele>
        <time>2019-01-10T14:20:37Z</time>
      </trkpt>
      <trkpt lat="36.80897387227" lon="-3.952420572008">
        <ele>466.2</ele>
        <time>2019-01-10T14:20:43Z</time>
      </trkpt>
      <trkpt lat="36.808960712687" lon="-3.95244890283">
        <ele>466.4</ele>
        <time>2019-01-10T14:20:44Z</time>
      </trkpt>
      <trkpt lat="36.808933387693" lon="-3.952605141446">
        <ele>467.4</ele>
        <time>2019-01-10T14:20:49Z</time>
      </trkpt>
      <trkpt lat="36.808894747134" lon="-3.952805217399">
        <ele>468.4</ele>
        <time>2019-01-10T14:20:55Z</time>
      </trkpt>
      <trkpt lat="36.808886281415" lon="-3.952838325904">
        <ele>468.4</ele>
        <time>2019-01-10T14:20:56Z</time>
      </trkpt>
      <trkpt lat="36.808844455734" lon="-3.952930526804">
        <ele>469</ele>
        <time>2019-01-10T14:20:59Z</time>
      </trkpt>
      <trkpt lat="36.808771281747" lon="-3.953011244501">
        <ele>469.6</ele>
        <time>2019-01-10T14:21:02Z</time>
      </trkpt>
      <trkpt lat="36.808596770589" lon="-3.953082742108">
        <ele>470.4</ele>
        <time>2019-01-10T14:21:08Z</time>
      </trkpt>
      <trkpt lat="36.808492918848" lon="-3.953116353527">
        <ele>470.6</ele>
        <time>2019-01-10T14:21:12Z</time>
      </trkpt>
      <trkpt lat="36.808405663269" lon="-3.953136721544">
        <ele>471.8</ele>
        <time>2019-01-10T14:21:16Z</time>
      </trkpt>
      <trkpt lat="36.808284293357" lon="-3.953160023226">
        <ele>472.8</ele>
        <time>2019-01-10T14:21:21Z</time>
      </trkpt>
      <trkpt lat="36.808146830197" lon="-3.953165052366">
        <ele>473.8</ele>
        <time>2019-01-10T14:21:26Z</time>
      </trkpt>
      <trkpt lat="36.80798145531" lon="-3.953136386268">
        <ele>474.4</ele>
        <time>2019-01-10T14:21:32Z</time>
      </trkpt>
      <trkpt lat="36.807844662702" lon="-3.953140158123">
        <ele>475</ele>
        <time>2019-01-10T14:21:37Z</time>
      </trkpt>
      <trkpt lat="36.80767383958" lon="-3.953143510883">
        <ele>475.6</ele>
        <time>2019-01-10T14:21:43Z</time>
      </trkpt>
      <trkpt lat="36.807567137993" lon="-3.953154994086">
        <ele>475.6</ele>
        <time>2019-01-10T14:21:46Z</time>
      </trkpt>
      <trkpt lat="36.807364379832" lon="-3.953236717611">
        <ele>475.6</ele>
        <time>2019-01-10T14:21:52Z</time>
      </trkpt>
      <trkpt lat="36.807158855644" lon="-3.9533398988">
        <ele>475.8</ele>
        <time>2019-01-10T14:21:58Z</time>
      </trkpt>
      <trkpt lat="36.806970346713" lon="-3.953471829906">
        <ele>475.6</ele>
        <time>2019-01-10T14:22:04Z</time>
      </trkpt>
      <trkpt lat="36.806817712314" lon="-3.953647095435">
        <ele>475.2</ele>
        <time>2019-01-10T14:22:10Z</time>
      </trkpt>
      <trkpt lat="36.806699443705" lon="-3.953819846394">
        <ele>476.2</ele>
        <time>2019-01-10T14:22:15Z</time>
      </trkpt>
      <trkpt lat="36.806609422099" lon="-3.953982203797">
        <ele>477</ele>
        <time>2019-01-10T14:22:19Z</time>
      </trkpt>
      <trkpt lat="36.806572122644" lon="-3.95408169695">
        <ele>477.2</ele>
        <time>2019-01-10T14:22:21Z</time>
      </trkpt>
      <trkpt lat="36.806508252566" lon="-3.954386462834">
        <ele>477.6</ele>
        <time>2019-01-10T14:22:27Z</time>
      </trkpt>
      <trkpt lat="36.806446142687" lon="-3.95467094452">
        <ele>478.2</ele>
        <time>2019-01-10T14:22:33Z</time>
      </trkpt>
      <trkpt lat="36.806387134111" lon="-3.954887448997">
        <ele>478.4</ele>
        <time>2019-01-10T14:22:37Z</time>
      </trkpt>
      <trkpt lat="36.806346314258" lon="-3.955106887139">
        <ele>478.4</ele>
        <time>2019-01-10T14:22:41Z</time>
      </trkpt>
      <trkpt lat="36.806341620394" lon="-3.955448617202">
        <ele>478.8</ele>
        <time>2019-01-10T14:22:47Z</time>
      </trkpt>
      <trkpt lat="36.806323934585" lon="-3.955559845015">
        <ele>479</ele>
        <time>2019-01-10T14:22:49Z</time>
      </trkpt>
      <trkpt lat="36.806282611818" lon="-3.955663277661">
        <ele>479.2</ele>
        <time>2019-01-10T14:22:51Z</time>
      </trkpt>
      <trkpt lat="36.806255538281" lon="-3.955711557405">
        <ele>479.4</ele>
        <time>2019-01-10T14:22:52Z</time>
      </trkpt>
      <trkpt lat="36.806218406464" lon="-3.955752712534">
        <ele>479.6</ele>
        <time>2019-01-10T14:22:53Z</time>
      </trkpt>
      <trkpt lat="36.806120170596" lon="-3.955801495192">
        <ele>479.8</ele>
        <time>2019-01-10T14:22:55Z</time>
      </trkpt>
      <trkpt lat="36.805749522978" lon="-3.955942730207">
        <ele>478.2</ele>
        <time>2019-01-10T14:23:01Z</time>
      </trkpt>
      <trkpt lat="36.805646090332" lon="-3.956061753187">
        <ele>477.8</ele>
        <time>2019-01-10T14:23:03Z</time>
      </trkpt>
      <trkpt lat="36.805544920799" lon="-3.956252022317">
        <ele>477.8</ele>
        <time>2019-01-10T14:23:06Z</time>
      </trkpt>
      <trkpt lat="36.805475853943" lon="-3.956348330348">
        <ele>477.8</ele>
        <time>2019-01-10T14:23:08Z</time>
      </trkpt>
      <trkpt lat="36.805253649774" lon="-3.956575815114">
        <ele>477.4</ele>
        <time>2019-01-10T14:23:14Z</time>
      </trkpt>
      <trkpt lat="36.805151893508" lon="-3.956736663775">
        <ele>477.6</ele>
        <time>2019-01-10T14:23:17Z</time>
      </trkpt>
      <trkpt lat="36.805083078109" lon="-3.956915365883">
        <ele>477.2</ele>
        <time>2019-01-10T14:23:20Z</time>
      </trkpt>
      <trkpt lat="36.804954918858" lon="-3.957155926413">
        <ele>477.6</ele>
        <time>2019-01-10T14:23:25Z</time>
      </trkpt>
      <trkpt lat="36.804756519285" lon="-3.957447281257">
        <ele>477.8</ele>
        <time>2019-01-10T14:23:31Z</time>
      </trkpt>
      <trkpt lat="36.804728188463" lon="-3.957493465526">
        <ele>478</ele>
        <time>2019-01-10T14:23:32Z</time>
      </trkpt>
      <trkpt lat="36.804661887634" lon="-3.957582481304">
        <ele>478.4</ele>
        <time>2019-01-10T14:23:34Z</time>
      </trkpt>
      <trkpt lat="36.804575470245" lon="-3.957715669695">
        <ele>479</ele>
        <time>2019-01-10T14:23:37Z</time>
      </trkpt>
      <trkpt lat="36.804549570174" lon="-3.957860006013">
        <ele>479.4</ele>
        <time>2019-01-10T14:23:40Z</time>
      </trkpt>
      <trkpt lat="36.804658702512" lon="-3.958083635105">
        <ele>480.2</ele>
        <time>2019-01-10T14:23:46Z</time>
      </trkpt>
      <trkpt lat="36.804695163777" lon="-3.95811841999">
        <ele>480.4</ele>
        <time>2019-01-10T14:23:47Z</time>
      </trkpt>
      <trkpt lat="36.804878140654" lon="-3.958357807054">
        <ele>481</ele>
        <time>2019-01-10T14:23:53Z</time>
      </trkpt>
      <trkpt lat="36.804939160886" lon="-3.958448080117">
        <ele>481</ele>
        <time>2019-01-10T14:23:55Z</time>
      </trkpt>
      <trkpt lat="36.805005294077" lon="-3.958614544651">
        <ele>481.4</ele>
        <time>2019-01-10T14:23:58Z</time>
      </trkpt>
      <trkpt lat="36.805017783108" lon="-3.95867833091">
        <ele>481.6</ele>
        <time>2019-01-10T14:23:59Z</time>
      </trkpt>
      <trkpt lat="36.805022309334" lon="-3.958744045006">
        <ele>481.6</ele>
        <time>2019-01-10T14:24:00Z</time>
      </trkpt>
      <trkpt lat="36.805003785335" lon="-3.958882346356">
        <ele>481.8</ele>
        <time>2019-01-10T14:24:02Z</time>
      </trkpt>
      <trkpt lat="36.804868585288" lon="-3.959304794116">
        <ele>481.8</ele>
        <time>2019-01-10T14:24:08Z</time>
      </trkpt>
      <trkpt lat="36.804817790974" lon="-3.95959614896">
        <ele>481</ele>
        <time>2019-01-10T14:24:12Z</time>
      </trkpt>
      <trkpt lat="36.804775294741" lon="-3.959729002075">
        <ele>481</ele>
        <time>2019-01-10T14:24:14Z</time>
      </trkpt>
      <trkpt lat="36.804553509667" lon="-3.960124627755">
        <ele>481</ele>
        <time>2019-01-10T14:24:20Z</time>
      </trkpt>
      <trkpt lat="36.804345890004" lon="-3.960559983641">
        <ele>480.6</ele>
        <time>2019-01-10T14:24:26Z</time>
      </trkpt>
      <trkpt lat="36.804307584721" lon="-3.960626871203">
        <ele>480.6</ele>
        <time>2019-01-10T14:24:27Z</time>
      </trkpt>
      <trkpt lat="36.804220664418" lon="-3.960760981603">
        <ele>480.4</ele>
        <time>2019-01-10T14:24:29Z</time>
      </trkpt>
      <trkpt lat="36.804014218221" lon="-3.961110339195">
        <ele>479.8</ele>
        <time>2019-01-10T14:24:34Z</time>
      </trkpt>
      <trkpt lat="36.804002986475" lon="-3.96127839629">
        <ele>479.4</ele>
        <time>2019-01-10T14:24:36Z</time>
      </trkpt>
      <trkpt lat="36.804099965058" lon="-3.961576959568">
        <ele>479.4</ele>
        <time>2019-01-10T14:24:40Z</time>
      </trkpt>
      <trkpt lat="36.804128714975" lon="-3.961710315597">
        <ele>479.8</ele>
        <time>2019-01-10T14:24:42Z</time>
      </trkpt>
      <trkpt lat="36.804131481002" lon="-3.96184082178">
        <ele>480</ele>
        <time>2019-01-10T14:24:44Z</time>
      </trkpt>
      <trkpt lat="36.804113627555" lon="-3.961971747058">
        <ele>480</ele>
        <time>2019-01-10T14:24:46Z</time>
      </trkpt>
      <trkpt lat="36.804069538761" lon="-3.962171571554">
        <ele>479.8</ele>
        <time>2019-01-10T14:24:49Z</time>
      </trkpt>
      <trkpt lat="36.803930315402" lon="-3.962589828364">
        <ele>479.6</ele>
        <time>2019-01-10T14:24:55Z</time>
      </trkpt>
      <trkpt lat="36.803765108153" lon="-3.962842207373">
        <ele>479.8</ele>
        <time>2019-01-10T14:24:59Z</time>
      </trkpt>
      <trkpt lat="36.803653796521" lon="-3.962926026373">
        <ele>479.8</ele>
        <time>2019-01-10T14:25:01Z</time>
      </trkpt>
      <trkpt lat="36.803454474939" lon="-3.963015545065">
        <ele>479.8</ele>
        <time>2019-01-10T14:25:04Z</time>
      </trkpt>
      <trkpt lat="36.803340145823" lon="-3.963110260535">
        <ele>479.8</ele>
        <time>2019-01-10T14:25:06Z</time>
      </trkpt>
      <trkpt lat="36.80321047783" lon="-3.963268510807">
        <ele>479.6</ele>
        <time>2019-01-10T14:25:09Z</time>
      </trkpt>
      <trkpt lat="36.803116935826" lon="-3.963333051437">
        <ele>480</ele>
        <time>2019-01-10T14:25:11Z</time>
      </trkpt>
      <trkpt lat="36.803014760465" lon="-3.963328944306">
        <ele>480.6</ele>
        <time>2019-01-10T14:25:13Z</time>
      </trkpt>
      <trkpt lat="36.802917530425" lon="-3.963259542174">
        <ele>481.4</ele>
        <time>2019-01-10T14:25:15Z</time>
      </trkpt>
      <trkpt lat="36.802831280674" lon="-3.963151248026">
        <ele>481.8</ele>
        <time>2019-01-10T14:25:17Z</time>
      </trkpt>
      <trkpt lat="36.802694571885" lon="-3.962987717157">
        <ele>481.4</ele>
        <time>2019-01-10T14:25:20Z</time>
      </trkpt>
      <trkpt lat="36.802570519765" lon="-3.962942790173">
        <ele>481</ele>
        <time>2019-01-10T14:25:22Z</time>
      </trkpt>
      <trkpt lat="36.80245359226" lon="-3.962945220924">
        <ele>480.8</ele>
        <time>2019-01-10T14:25:24Z</time>
      </trkpt>
      <trkpt lat="36.802355691668" lon="-3.962906077451">
        <ele>480.8</ele>
        <time>2019-01-10T14:25:26Z</time>
      </trkpt>
      <trkpt lat="36.802259299818" lon="-3.962827203772">
        <ele>480.8</ele>
        <time>2019-01-10T14:25:28Z</time>
      </trkpt>
      <trkpt lat="36.802210433341" lon="-3.962783282616">
        <ele>480.8</ele>
        <time>2019-01-10T14:25:29Z</time>
      </trkpt>
      <trkpt lat="36.802005495886" lon="-3.962607095078">
        <ele>480.2</ele>
        <time>2019-01-10T14:25:33Z</time>
      </trkpt>
      <trkpt lat="36.801886472906" lon="-3.962560910809">
        <ele>480.2</ele>
        <time>2019-01-10T14:25:35Z</time>
      </trkpt>
      <trkpt lat="36.801764432442" lon="-3.962548421778">
        <ele>480.2</ele>
        <time>2019-01-10T14:25:37Z</time>
      </trkpt>
      <trkpt lat="36.801652114982" lon="-3.962613297684">
        <ele>480.2</ele>
        <time>2019-01-10T14:25:39Z</time>
      </trkpt>
      <trkpt lat="36.801565027041" lon="-3.962712371742">
        <ele>480.4</ele>
        <time>2019-01-10T14:25:41Z</time>
      </trkpt>
      <trkpt lat="36.801511885795" lon="-3.962839441346">
        <ele>480.4</ele>
        <time>2019-01-10T14:25:43Z</time>
      </trkpt>
      <trkpt lat="36.801454050685" lon="-3.963118307159">
        <ele>480.8</ele>
        <time>2019-01-10T14:25:47Z</time>
      </trkpt>
      <trkpt lat="36.801377272481" lon="-3.96330262514">
        <ele>480.8</ele>
        <time>2019-01-10T14:25:50Z</time>
      </trkpt>
      <trkpt lat="36.801173257035" lon="-3.963642259728">
        <ele>481.4</ele>
        <time>2019-01-10T14:25:56Z</time>
      </trkpt>
      <trkpt lat="36.801087761655" lon="-3.963740411777">
        <ele>481.8</ele>
        <time>2019-01-10T14:25:58Z</time>
      </trkpt>
      <trkpt lat="36.800864467839" lon="-3.963988767474">
        <ele>482</ele>
        <time>2019-01-10T14:26:03Z</time>
      </trkpt>
      <trkpt lat="36.800634049408" lon="-3.964315326298">
        <ele>482.2</ele>
        <time>2019-01-10T14:26:09Z</time>
      </trkpt>
      <trkpt lat="36.800539920671" lon="-3.964388332647">
        <ele>482.2</ele>
        <time>2019-01-10T14:26:11Z</time>
      </trkpt>
      <trkpt lat="36.800430704514" lon="-3.964435774201">
        <ele>482.2</ele>
        <time>2019-01-10T14:26:13Z</time>
      </trkpt>
      <trkpt lat="36.800314950475" lon="-3.964450023431">
        <ele>482.4</ele>
        <time>2019-01-10T14:26:15Z</time>
      </trkpt>
      <trkpt lat="36.799974058602" lon="-3.964331000451">
        <ele>482.2</ele>
        <time>2019-01-10T14:26:21Z</time>
      </trkpt>
      <trkpt lat="36.799652696556" lon="-3.964165374107">
        <ele>482</ele>
        <time>2019-01-10T14:26:27Z</time>
      </trkpt>
      <trkpt lat="36.799518502337" lon="-3.964102090762">
        <ele>482.4</ele>
        <time>2019-01-10T14:26:30Z</time>
      </trkpt>
      <trkpt lat="36.799389756353" lon="-3.964028916775">
        <ele>482.8</ele>
        <time>2019-01-10T14:26:34Z</time>
      </trkpt>
      <trkpt lat="36.799248856614" lon="-3.963956664797">
        <ele>484.2</ele>
        <time>2019-01-10T14:26:39Z</time>
      </trkpt>
      <trkpt lat="36.799152883859" lon="-3.963928920708">
        <ele>485.2</ele>
        <time>2019-01-10T14:26:43Z</time>
      </trkpt>
      <trkpt lat="36.799002931668" lon="-3.963910145252">
        <ele>485.8</ele>
        <time>2019-01-10T14:26:49Z</time>
      </trkpt>
      <trkpt lat="36.798865971422" lon="-3.963925148853">
        <ele>486.4</ele>
        <time>2019-01-10T14:26:54Z</time>
      </trkpt>
      <trkpt lat="36.79871275029" lon="-3.964059845986">
        <ele>487.2</ele>
        <time>2019-01-10T14:27:00Z</time>
      </trkpt>
      <trkpt lat="36.798686347305" lon="-3.964091781025">
        <ele>487.4</ele>
        <time>2019-01-10T14:27:01Z</time>
      </trkpt>
      <trkpt lat="36.798539664055" lon="-3.964304094552">
        <ele>488</ele>
        <time>2019-01-10T14:27:07Z</time>
      </trkpt>
      <trkpt lat="36.798406894759" lon="-3.964483467212">
        <ele>488.6</ele>
        <time>2019-01-10T14:27:12Z</time>
      </trkpt>
      <trkpt lat="36.79821402724" lon="-3.964641298389">
        <ele>489.4</ele>
        <time>2019-01-10T14:27:18Z</time>
      </trkpt>
      <trkpt lat="36.798084610704" lon="-3.964735008031">
        <ele>489.6</ele>
        <time>2019-01-10T14:27:22Z</time>
      </trkpt>
      <trkpt lat="36.797882439276" lon="-3.964823604714">
        <ele>490.4</ele>
        <time>2019-01-10T14:27:28Z</time>
      </trkpt>
      <trkpt lat="36.797851258608" lon="-3.964836009926">
        <ele>490.6</ele>
        <time>2019-01-10T14:27:29Z</time>
      </trkpt>
      <trkpt lat="36.79765495451" lon="-3.964869537526">
        <ele>491.6</ele>
        <time>2019-01-10T14:27:35Z</time>
      </trkpt>
      <trkpt lat="36.797620421082" lon="-3.964871465363">
        <ele>491.6</ele>
        <time>2019-01-10T14:27:36Z</time>
      </trkpt>
      <trkpt lat="36.797446748114" lon="-3.964840955247">
        <ele>492.8</ele>
        <time>2019-01-10T14:27:42Z</time>
      </trkpt>
      <trkpt lat="36.797299226674" lon="-3.964782784861">
        <ele>493.8</ele>
        <time>2019-01-10T14:27:48Z</time>
      </trkpt>
      <trkpt lat="36.797133684149" lon="-3.964712376901">
        <ele>494.6</ele>
        <time>2019-01-10T14:27:54Z</time>
      </trkpt>
      <trkpt lat="36.797069394976" lon="-3.964711706349">
        <ele>495</ele>
        <time>2019-01-10T14:27:56Z</time>
      </trkpt>
      <trkpt lat="36.796902343709" lon="-3.964854198649">
        <ele>495.2</ele>
        <time>2019-01-10T14:28:02Z</time>
      </trkpt>
      <trkpt lat="36.796858171096" lon="-3.96508042613">
        <ele>496</ele>
        <time>2019-01-10T14:28:07Z</time>
      </trkpt>
      <trkpt lat="36.796866050082" lon="-3.965230043045">
        <ele>496.6</ele>
        <time>2019-01-10T14:28:10Z</time>
      </trkpt>
      <trkpt lat="36.796894799999" lon="-3.965496419827">
        <ele>497.2</ele>
        <time>2019-01-10T14:28:15Z</time>
      </trkpt>
      <trkpt lat="36.796928159961" lon="-3.965829600352">
        <ele>497.6</ele>
        <time>2019-01-10T14:28:21Z</time>
      </trkpt>
      <trkpt lat="36.796902846623" lon="-3.966132689856">
        <ele>498</ele>
        <time>2019-01-10T14:28:27Z</time>
      </trkpt>
      <trkpt lat="36.796886921013" lon="-3.966182729799">
        <ele>498.2</ele>
        <time>2019-01-10T14:28:28Z</time>
      </trkpt>
      <trkpt lat="36.796867810281" lon="-3.966231763914">
        <ele>498.4</ele>
        <time>2019-01-10T14:28:29Z</time>
      </trkpt>
      <trkpt lat="36.796683073205" lon="-3.966520855645">
        <ele>498.4</ele>
        <time>2019-01-10T14:28:35Z</time>
      </trkpt>
      <trkpt lat="36.796488277849" lon="-3.966805672607">
        <ele>498.4</ele>
        <time>2019-01-10T14:28:40Z</time>
      </trkpt>
      <trkpt lat="36.796376044208" lon="-3.966889156331">
        <ele>498.2</ele>
        <time>2019-01-10T14:28:42Z</time>
      </trkpt>
      <trkpt lat="36.796242520541" lon="-3.966932909849">
        <ele>498</ele>
        <time>2019-01-10T14:28:44Z</time>
      </trkpt>
      <trkpt lat="36.79603138048" lon="-3.966970293123">
        <ele>497</ele>
        <time>2019-01-10T14:28:47Z</time>
      </trkpt>
      <trkpt lat="36.795910094387" lon="-3.966987811294">
        <ele>495.8</ele>
        <time>2019-01-10T14:28:49Z</time>
      </trkpt>
      <trkpt lat="36.795783192421" lon="-3.967010861519">
        <ele>494.6</ele>
        <time>2019-01-10T14:28:51Z</time>
      </trkpt>
      <trkpt lat="36.795653859704" lon="-3.967044556757">
        <ele>493.6</ele>
        <time>2019-01-10T14:28:53Z</time>
      </trkpt>
      <trkpt lat="36.795378849565" lon="-3.967052519562">
        <ele>492.6</ele>
        <time>2019-01-10T14:28:57Z</time>
      </trkpt>
      <trkpt lat="36.795303244827" lon="-3.967033073554">
        <ele>492.2</ele>
        <time>2019-01-10T14:28:58Z</time>
      </trkpt>
      <trkpt lat="36.795142815261" lon="-3.966980686679">
        <ele>491.2</ele>
        <time>2019-01-10T14:29:00Z</time>
      </trkpt>
      <trkpt lat="36.794789518176" lon="-3.966908769977">
        <ele>490.4</ele>
        <time>2019-01-10T14:29:04Z</time>
      </trkpt>
      <trkpt lat="36.794699580389" lon="-3.966921007551">
        <ele>490.2</ele>
        <time>2019-01-10T14:29:05Z</time>
      </trkpt>
      <trkpt lat="36.794615426113" lon="-3.966954283694">
        <ele>490</ele>
        <time>2019-01-10T14:29:06Z</time>
      </trkpt>
      <trkpt lat="36.79447653803" lon="-3.967077162348">
        <ele>489.8</ele>
        <time>2019-01-10T14:29:08Z</time>
      </trkpt>
      <trkpt lat="36.79436002962" lon="-3.967230634937">
        <ele>488.8</ele>
        <time>2019-01-10T14:29:10Z</time>
      </trkpt>
      <trkpt lat="36.794171269232" lon="-3.967471195467">
        <ele>487.4</ele>
        <time>2019-01-10T14:29:13Z</time>
      </trkpt>
      <trkpt lat="36.793898354568" lon="-3.967770848392">
        <ele>486.2</ele>
        <time>2019-01-10T14:29:17Z</time>
      </trkpt>
      <trkpt lat="36.793823168925" lon="-3.967832287719">
        <ele>486</ele>
        <time>2019-01-10T14:29:18Z</time>
      </trkpt>
      <trkpt lat="36.793665002472" lon="-3.967936390917">
        <ele>485.2</ele>
        <time>2019-01-10T14:29:20Z</time>
      </trkpt>
      <trkpt lat="36.793440702828" lon="-3.968077625932">
        <ele>484</ele>
        <time>2019-01-10T14:29:23Z</time>
      </trkpt>
      <trkpt lat="36.793219672125" lon="-3.96821190397">
        <ele>483</ele>
        <time>2019-01-10T14:29:26Z</time>
      </trkpt>
      <trkpt lat="36.792814239622" lon="-3.968447519179">
        <ele>482.2</ele>
        <time>2019-01-10T14:29:32Z</time>
      </trkpt>
      <trkpt lat="36.792462032184" lon="-3.96874164005">
        <ele>481.8</ele>
        <time>2019-01-10T14:29:37Z</time>
      </trkpt>
      <trkpt lat="36.792101191389" lon="-3.969103486673">
        <ele>480</ele>
        <time>2019-01-10T14:29:42Z</time>
      </trkpt>
      <trkpt lat="36.792033130361" lon="-3.969326361394">
        <ele>478.4</ele>
        <time>2019-01-10T14:29:44Z</time>
      </trkpt>
      <trkpt lat="36.791982503685" lon="-3.969564658811">
        <ele>476.8</ele>
        <time>2019-01-10T14:29:46Z</time>
      </trkpt>
      <trkpt lat="36.791884100179" lon="-3.969757610149">
        <ele>475.8</ele>
        <time>2019-01-10T14:29:48Z</time>
      </trkpt>
      <trkpt lat="36.791592074783" lon="-3.970079223652">
        <ele>474.8</ele>
        <time>2019-01-10T14:29:52Z</time>
      </trkpt>
      <trkpt lat="36.791428208638" lon="-3.970246526376">
        <ele>473.2</ele>
        <time>2019-01-10T14:29:54Z</time>
      </trkpt>
      <trkpt lat="36.791348161493" lon="-3.970331267385">
        <ele>472.2</ele>
        <time>2019-01-10T14:29:55Z</time>
      </trkpt>
      <trkpt lat="36.791268114348" lon="-3.97041885824">
        <ele>471</ele>
        <time>2019-01-10T14:29:56Z</time>
      </trkpt>
      <trkpt lat="36.791185301176" lon="-3.97050770638">
        <ele>469.8</ele>
        <time>2019-01-10T14:29:57Z</time>
      </trkpt>
      <trkpt lat="36.791012131122" lon="-3.970673248905">
        <ele>468</ele>
        <time>2019-01-10T14:29:59Z</time>
      </trkpt>
      <trkpt lat="36.790916158367" lon="-3.970742567218">
        <ele>467.2</ele>
        <time>2019-01-10T14:30:00Z</time>
      </trkpt>
      <trkpt lat="36.790818760689" lon="-3.970794534998">
        <ele>466.6</ele>
        <time>2019-01-10T14:30:01Z</time>
      </trkpt>
      <trkpt lat="36.790623043324" lon="-3.970866786976">
        <ele>465.2</ele>
        <time>2019-01-10T14:30:03Z</time>
      </trkpt>
      <trkpt lat="36.790528830768" lon="-3.970881203844">
        <ele>464.4</ele>
        <time>2019-01-10T14:30:04Z</time>
      </trkpt>
      <trkpt lat="36.790442748655" lon="-3.97087399541">
        <ele>463.2</ele>
        <time>2019-01-10T14:30:05Z</time>
      </trkpt>
      <trkpt lat="36.790366305727" lon="-3.970846921873">
        <ele>462.2</ele>
        <time>2019-01-10T14:30:06Z</time>
      </trkpt>
      <trkpt lat="36.790246360738" lon="-3.970712643835">
        <ele>461</ele>
        <time>2019-01-10T14:30:08Z</time>
      </trkpt>
      <trkpt lat="36.790204702695" lon="-3.97050435362">
        <ele>460.6</ele>
        <time>2019-01-10T14:30:10Z</time>
      </trkpt>
      <trkpt lat="36.790193638587" lon="-3.970043181482">
        <ele>459.4</ele>
        <time>2019-01-10T14:30:14Z</time>
      </trkpt>
      <trkpt lat="36.790166397412" lon="-3.969816115811">
        <ele>457.6</ele>
        <time>2019-01-10T14:30:16Z</time>
      </trkpt>
      <trkpt lat="36.79011627365" lon="-3.969600700981">
        <ele>455.8</ele>
        <time>2019-01-10T14:30:18Z</time>
      </trkpt>
      <trkpt lat="36.79000563257" lon="-3.96944404327">
        <ele>454.6</ele>
        <time>2019-01-10T14:30:20Z</time>
      </trkpt>
      <trkpt lat="36.789835899095" lon="-3.969379921735">
        <ele>453.8</ele>
        <time>2019-01-10T14:30:22Z</time>
      </trkpt>
      <trkpt lat="36.789743446738" lon="-3.969377658622">
        <ele>453.2</ele>
        <time>2019-01-10T14:30:23Z</time>
      </trkpt>
      <trkpt lat="36.789649653277" lon="-3.969366259238">
        <ele>452.4</ele>
        <time>2019-01-10T14:30:24Z</time>
      </trkpt>
      <trkpt lat="36.789566588648" lon="-3.969325439385">
        <ele>451.8</ele>
        <time>2019-01-10T14:30:25Z</time>
      </trkpt>
      <trkpt lat="36.78949349848" lon="-3.969263078049">
        <ele>451.4</ele>
        <time>2019-01-10T14:30:26Z</time>
      </trkpt>
      <trkpt lat="36.78942225233" lon="-3.969191412804">
        <ele>451</ele>
        <time>2019-01-10T14:30:27Z</time>
      </trkpt>
      <trkpt lat="36.789352179646" lon="-3.969114969876">
        <ele>450.8</ele>
        <time>2019-01-10T14:30:28Z</time>
      </trkpt>
      <trkpt lat="36.789281687867" lon="-3.969043304631">
        <ele>450.4</ele>
        <time>2019-01-10T14:30:29Z</time>
      </trkpt>
      <trkpt lat="36.789113714591" lon="-3.96896962773">
        <ele>449.8</ele>
        <time>2019-01-10T14:30:31Z</time>
      </trkpt>
      <trkpt lat="36.789025369365" lon="-3.968972058481">
        <ele>449.6</ele>
        <time>2019-01-10T14:30:32Z</time>
      </trkpt>
      <trkpt lat="36.788933839017" lon="-3.96900064076">
        <ele>449.2</ele>
        <time>2019-01-10T14:30:33Z</time>
      </trkpt>
      <trkpt lat="36.788760836601" lon="-3.969111198021">
        <ele>448.2</ele>
        <time>2019-01-10T14:30:35Z</time>
      </trkpt>
      <trkpt lat="36.788586493081" lon="-3.969238183806">
        <ele>447</ele>
        <time>2019-01-10T14:30:37Z</time>
      </trkpt>
      <trkpt lat="36.788323804335" lon="-3.969431302782">
        <ele>445.8</ele>
        <time>2019-01-10T14:30:40Z</time>
      </trkpt>
      <trkpt lat="36.788135463042" lon="-3.969544290794">
        <ele>444.4</ele>
        <time>2019-01-10T14:30:42Z</time>
      </trkpt>
      <trkpt lat="36.787935973822" lon="-3.969584356276">
        <ele>443.6</ele>
        <time>2019-01-10T14:30:44Z</time>
      </trkpt>
      <trkpt lat="36.787838240868" lon="-3.969580584421">
        <ele>443.2</ele>
        <time>2019-01-10T14:30:45Z</time>
      </trkpt>
      <trkpt lat="36.787747045796" lon="-3.969567089562">
        <ele>442.4</ele>
        <time>2019-01-10T14:30:46Z</time>
      </trkpt>
      <trkpt lat="36.787662304787" lon="-3.969540183663">
        <ele>441.2</ele>
        <time>2019-01-10T14:30:47Z</time>
      </trkpt>
      <trkpt lat="36.787584353117" lon="-3.969494167032">
        <ele>440.2</ele>
        <time>2019-01-10T14:30:48Z</time>
      </trkpt>
      <trkpt lat="36.787454098391" lon="-3.969342287004">
        <ele>438.4</ele>
        <time>2019-01-10T14:30:50Z</time>
      </trkpt>
      <trkpt lat="36.787344882234" lon="-3.969146066725">
        <ele>436.8</ele>
        <time>2019-01-10T14:30:52Z</time>
      </trkpt>
      <trkpt lat="36.787208005807" lon="-3.968969376273">
        <ele>435.4</ele>
        <time>2019-01-10T14:30:54Z</time>
      </trkpt>
      <trkpt lat="36.786956464988" lon="-3.968770389967">
        <ele>433.6</ele>
        <time>2019-01-10T14:30:57Z</time>
      </trkpt>
      <trkpt lat="36.786865521373" lon="-3.968718086911">
        <ele>433</ele>
        <time>2019-01-10T14:30:58Z</time>
      </trkpt>
      <trkpt lat="36.786768123695" lon="-3.96867709942">
        <ele>431.6</ele>
        <time>2019-01-10T14:30:59Z</time>
      </trkpt>
      <trkpt lat="36.78666879818" lon="-3.968648014227">
        <ele>430.4</ele>
        <time>2019-01-10T14:31:00Z</time>
      </trkpt>
      <trkpt lat="36.786567461009" lon="-3.968618761396">
        <ele>429.2</ele>
        <time>2019-01-10T14:31:01Z</time>
      </trkpt>
      <trkpt lat="36.78626143784" lon="-3.968532176369">
        <ele>428</ele>
        <time>2019-01-10T14:31:04Z</time>
      </trkpt>
      <trkpt lat="36.785951810454" lon="-3.968450620482">
        <ele>426.4</ele>
        <time>2019-01-10T14:31:07Z</time>
      </trkpt>
      <trkpt lat="36.785856843527" lon="-3.968427570257">
        <ele>425.4</ele>
        <time>2019-01-10T14:31:08Z</time>
      </trkpt>
      <trkpt lat="36.785769671767" lon="-3.968405190584">
        <ele>424.2</ele>
        <time>2019-01-10T14:31:09Z</time>
      </trkpt>
      <trkpt lat="36.785690295174" lon="-3.968376608305">
        <ele>422.8</ele>
        <time>2019-01-10T14:31:10Z</time>
      </trkpt>
      <trkpt lat="36.785552664376" lon="-3.968258758791">
        <ele>421</ele>
        <time>2019-01-10T14:31:12Z</time>
      </trkpt>
      <trkpt lat="36.785494242533" lon="-3.968059940123">
        <ele>420.2</ele>
        <time>2019-01-10T14:31:14Z</time>
      </trkpt>
      <trkpt lat="36.785483932796" lon="-3.967936726193">
        <ele>419.8</ele>
        <time>2019-01-10T14:31:15Z</time>
      </trkpt>
      <trkpt lat="36.785516873663" lon="-3.967447558509">
        <ele>418.4</ele>
        <time>2019-01-10T14:31:19Z</time>
      </trkpt>
      <trkpt lat="36.785553502566" lon="-3.967220409019">
        <ele>417.2</ele>
        <time>2019-01-10T14:31:21Z</time>
      </trkpt>
      <trkpt lat="36.78561016421" lon="-3.966902483552">
        <ele>415.8</ele>
        <time>2019-01-10T14:31:24Z</time>
      </trkpt>
      <trkpt lat="36.78570823244" lon="-3.966754123922">
        <ele>415</ele>
        <time>2019-01-10T14:31:26Z</time>
      </trkpt>
      <trkpt lat="36.785775539097" lon="-3.966719255218">
        <ele>414.8</ele>
        <time>2019-01-10T14:31:27Z</time>
      </trkpt>
      <trkpt lat="36.785850138007" lon="-3.966709113119">
        <ele>414.6</ele>
        <time>2019-01-10T14:31:28Z</time>
      </trkpt>
      <trkpt lat="36.78610050536" lon="-3.966739790873">
        <ele>414</ele>
        <time>2019-01-10T14:31:31Z</time>
      </trkpt>
      <trkpt lat="36.78619019169" lon="-3.96673249862">
        <ele>413.6</ele>
        <time>2019-01-10T14:31:32Z</time>
      </trkpt>
      <trkpt lat="36.786278453097" lon="-3.966699473934">
        <ele>413.4</ele>
        <time>2019-01-10T14:31:33Z</time>
      </trkpt>
      <trkpt lat="36.786513481573" lon="-3.966518927808">
        <ele>412.6</ele>
        <time>2019-01-10T14:31:36Z</time>
      </trkpt>
      <trkpt lat="36.786650609457" lon="-3.966428906202">
        <ele>411.2</ele>
        <time>2019-01-10T14:31:38Z</time>
      </trkpt>
      <trkpt lat="36.786713054612" lon="-3.966261352021">
        <ele>410</ele>
        <time>2019-01-10T14:31:40Z</time>
      </trkpt>
      <trkpt lat="36.786630828173" lon="-3.966082146999">
        <ele>409.4</ele>
        <time>2019-01-10T14:31:42Z</time>
      </trkpt>
      <trkpt lat="36.786482384724" lon="-3.965974942498">
        <ele>409</ele>
        <time>2019-01-10T14:31:44Z</time>
      </trkpt>
      <trkpt lat="36.786397476077" lon="-3.965928925867">
        <ele>408.6</ele>
        <time>2019-01-10T14:31:45Z</time>
      </trkpt>
      <trkpt lat="36.786210894983" lon="-3.965860529563">
        <ele>407.2</ele>
        <time>2019-01-10T14:31:47Z</time>
      </trkpt>
      <trkpt lat="36.786010316116" lon="-3.965815434941">
        <ele>406</ele>
        <time>2019-01-10T14:31:49Z</time>
      </trkpt>
      <trkpt lat="36.785695156676" lon="-3.965746200447">
        <ele>404.6</ele>
        <time>2019-01-10T14:31:52Z</time>
      </trkpt>
      <trkpt lat="36.785487369375" lon="-3.965727341172">
        <ele>402</ele>
        <time>2019-01-10T14:31:54Z</time>
      </trkpt>
      <trkpt lat="36.785394665561" lon="-3.965722395851">
        <ele>400.6</ele>
        <time>2019-01-10T14:31:55Z</time>
      </trkpt>
      <trkpt lat="36.785306152697" lon="-3.965705464413">
        <ele>399.4</ele>
        <time>2019-01-10T14:31:56Z</time>
      </trkpt>
      <trkpt lat="36.785166091148" lon="-3.96559256022">
        <ele>397.8</ele>
        <time>2019-01-10T14:31:58Z</time>
      </trkpt>
      <trkpt lat="36.785134659023" lon="-3.965345713265">
        <ele>396</ele>
        <time>2019-01-10T14:32:00Z</time>
      </trkpt>
      <trkpt lat="36.785132563548" lon="-3.965071625135">
        <ele>394.2</ele>
        <time>2019-01-10T14:32:02Z</time>
      </trkpt>
      <trkpt lat="36.785112195531" lon="-3.964804410163">
        <ele>392.4</ele>
        <time>2019-01-10T14:32:04Z</time>
      </trkpt>
      <trkpt lat="36.785143627656" lon="-3.964558149941">
        <ele>390.8</ele>
        <time>2019-01-10T14:32:06Z</time>
      </trkpt>
      <trkpt lat="36.785186962079" lon="-3.964342567473">
        <ele>388.8</ele>
        <time>2019-01-10T14:32:08Z</time>
      </trkpt>
      <trkpt lat="36.785170282098" lon="-3.964235865886">
        <ele>387.6</ele>
        <time>2019-01-10T14:32:09Z</time>
      </trkpt>
      <trkpt lat="36.785114877739" lon="-3.964143916443">
        <ele>386.6</ele>
        <time>2019-01-10T14:32:10Z</time>
      </trkpt>
      <trkpt lat="36.784925782075" lon="-3.964060432719">
        <ele>385.2</ele>
        <time>2019-01-10T14:32:12Z</time>
      </trkpt>
      <trkpt lat="36.784708439408" lon="-3.964030676974">
        <ele>384.4</ele>
        <time>2019-01-10T14:32:14Z</time>
      </trkpt>
      <trkpt lat="36.784621435286" lon="-3.963990695311">
        <ele>383.8</ele>
        <time>2019-01-10T14:32:15Z</time>
      </trkpt>
      <trkpt lat="36.784546920195" lon="-3.963921963731">
        <ele>382.4</ele>
        <time>2019-01-10T14:32:16Z</time>
      </trkpt>
      <trkpt lat="36.784473243294" lon="-3.963843676785">
        <ele>381</ele>
        <time>2019-01-10T14:32:17Z</time>
      </trkpt>
      <trkpt lat="36.784396381271" lon="-3.96376530602">
        <ele>379.6</ele>
        <time>2019-01-10T14:32:18Z</time>
      </trkpt>
      <trkpt lat="36.78422715071" lon="-3.963610157051">
        <ele>378</ele>
        <time>2019-01-10T14:32:20Z</time>
      </trkpt>
      <trkpt lat="36.784058590701" lon="-3.963451990598">
        <ele>376.8</ele>
        <time>2019-01-10T14:32:22Z</time>
      </trkpt>
      <trkpt lat="36.783881984068" lon="-3.963311761411">
        <ele>375.8</ele>
        <time>2019-01-10T14:32:24Z</time>
      </trkpt>
      <trkpt lat="36.783694480965" lon="-3.963232887732">
        <ele>374.6</ele>
        <time>2019-01-10T14:32:26Z</time>
      </trkpt>
      <trkpt lat="36.783622145168" lon="-3.963186703463">
        <ele>374</ele>
        <time>2019-01-10T14:32:27Z</time>
      </trkpt>
      <trkpt lat="36.78357000975" lon="-3.963113780933">
        <ele>373.4</ele>
        <time>2019-01-10T14:32:28Z</time>
      </trkpt>
      <trkpt lat="36.783547881534" lon="-3.96302350787">
        <ele>373.2</ele>
        <time>2019-01-10T14:32:29Z</time>
      </trkpt>
      <trkpt lat="36.783620049693" lon="-3.962849415807">
        <ele>373</ele>
        <time>2019-01-10T14:32:31Z</time>
      </trkpt>
      <trkpt lat="36.783841248034" lon="-3.962652441157">
        <ele>372.4</ele>
        <time>2019-01-10T14:32:34Z</time>
      </trkpt>
      <trkpt lat="36.783933700391" lon="-3.962442809838">
        <ele>371.2</ele>
        <time>2019-01-10T14:32:36Z</time>
      </trkpt>
      <trkpt lat="36.7839513862" lon="-3.962199650919">
        <ele>369.2</ele>
        <time>2019-01-10T14:32:38Z</time>
      </trkpt>
      <trkpt lat="36.783933197477" lon="-3.961950373213">
        <ele>368</ele>
        <time>2019-01-10T14:32:40Z</time>
      </trkpt>
      <trkpt lat="36.783910147252" lon="-3.961826991645">
        <ele>367.2</ele>
        <time>2019-01-10T14:32:41Z</time>
      </trkpt>
      <trkpt lat="36.783883241353" lon="-3.96170754957">
        <ele>366.2</ele>
        <time>2019-01-10T14:32:42Z</time>
      </trkpt>
      <trkpt lat="36.783862789517" lon="-3.961586766391">
        <ele>365.2</ele>
        <time>2019-01-10T14:32:43Z</time>
      </trkpt>
      <trkpt lat="36.783894892194" lon="-3.961343942748">
        <ele>364</ele>
        <time>2019-01-10T14:32:45Z</time>
      </trkpt>
      <trkpt lat="36.784000336496" lon="-3.961127102995">
        <ele>363</ele>
        <time>2019-01-10T14:32:47Z</time>
      </trkpt>
      <trkpt lat="36.784073426664" lon="-3.961033896267">
        <ele>362.6</ele>
        <time>2019-01-10T14:32:48Z</time>
      </trkpt>
      <trkpt lat="36.784159424958" lon="-3.960950328724">
        <ele>362.2</ele>
        <time>2019-01-10T14:32:49Z</time>
      </trkpt>
      <trkpt lat="36.784353885038" lon="-3.960823678215">
        <ele>361.2</ele>
        <time>2019-01-10T14:32:51Z</time>
      </trkpt>
      <trkpt lat="36.784558403398" lon="-3.96071848537">
        <ele>360.2</ele>
        <time>2019-01-10T14:32:53Z</time>
      </trkpt>
      <trkpt lat="36.784749007804" lon="-3.960599713847">
        <ele>359.2</ele>
        <time>2019-01-10T14:32:55Z</time>
      </trkpt>
      <trkpt lat="36.784832491528" lon="-3.960520421073">
        <ele>358.6</ele>
        <time>2019-01-10T14:32:56Z</time>
      </trkpt>
      <trkpt lat="36.784988730144" lon="-3.96036560738">
        <ele>357.2</ele>
        <time>2019-01-10T14:32:58Z</time>
      </trkpt>
      <trkpt lat="36.785175814152" lon="-3.96030777227">
        <ele>356</ele>
        <time>2019-01-10T14:33:00Z</time>
      </trkpt>
      <trkpt lat="36.785358288115" lon="-3.960263180562">
        <ele>355.2</ele>
        <time>2019-01-10T14:33:02Z</time>
      </trkpt>
      <trkpt lat="36.785528440685" lon="-3.960205680728">
        <ele>354.8</ele>
        <time>2019-01-10T14:33:04Z</time>
      </trkpt>
      <trkpt lat="36.785613097875" lon="-3.960188497833">
        <ele>354.6</ele>
        <time>2019-01-10T14:33:05Z</time>
      </trkpt>
      <trkpt lat="36.78586078302" lon="-3.960172572223">
        <ele>354</ele>
        <time>2019-01-10T14:33:08Z</time>
      </trkpt>
      <trkpt lat="36.785990367194" lon="-3.960081041875">
        <ele>354</ele>
        <time>2019-01-10T14:33:10Z</time>
      </trkpt>
      <trkpt lat="36.786021631681" lon="-3.959926312001">
        <ele>354.2</ele>
        <time>2019-01-10T14:33:12Z</time>
      </trkpt>
      <trkpt lat="36.785962455467" lon="-3.959793375067">
        <ele>354.4</ele>
        <time>2019-01-10T14:33:14Z</time>
      </trkpt>
      <trkpt lat="36.785838235709" lon="-3.959727828609">
        <ele>354.4</ele>
        <time>2019-01-10T14:33:16Z</time>
      </trkpt>
      <trkpt lat="36.78569146864" lon="-3.959696899398">
        <ele>354.2</ele>
        <time>2019-01-10T14:33:18Z</time>
      </trkpt>
      <trkpt lat="36.785612427323" lon="-3.959697234674">
        <ele>353.8</ele>
        <time>2019-01-10T14:33:19Z</time>
      </trkpt>
      <trkpt lat="36.785378739951" lon="-3.959726152229">
        <ele>352.6</ele>
        <time>2019-01-10T14:33:22Z</time>
      </trkpt>
      <trkpt lat="36.785028208893" lon="-3.959664796721">
        <ele>351.4</ele>
        <time>2019-01-10T14:33:26Z</time>
      </trkpt>
      <trkpt lat="36.784737189325" lon="-3.959582402644">
        <ele>350.4</ele>
        <time>2019-01-10T14:33:29Z</time>
      </trkpt>
      <trkpt lat="36.784548596575" lon="-3.959516017996">
        <ele>349</ele>
        <time>2019-01-10T14:33:31Z</time>
      </trkpt>
      <trkpt lat="36.784457317684" lon="-3.959484082957">
        <ele>348</ele>
        <time>2019-01-10T14:33:32Z</time>
      </trkpt>
      <trkpt lat="36.784277861205" lon="-3.959424739105">
        <ele>346.4</ele>
        <time>2019-01-10T14:33:34Z</time>
      </trkpt>
      <trkpt lat="36.783945937965" lon="-3.959304375021">
        <ele>345.6</ele>
        <time>2019-01-10T14:33:38Z</time>
      </trkpt>
      <trkpt lat="36.783845187527" lon="-3.959162469454">
        <ele>345.4</ele>
        <time>2019-01-10T14:33:40Z</time>
      </trkpt>
      <trkpt lat="36.783803110389" lon="-3.958979576396">
        <ele>345.4</ele>
        <time>2019-01-10T14:33:42Z</time>
      </trkpt>
      <trkpt lat="36.78371334024" lon="-3.95883088149">
        <ele>345.6</ele>
        <time>2019-01-10T14:33:44Z</time>
      </trkpt>
      <trkpt lat="36.783573613967" lon="-3.958768939249">
        <ele>345.6</ele>
        <time>2019-01-10T14:33:46Z</time>
      </trkpt>
      <trkpt lat="36.783426595441" lon="-3.958752343087">
        <ele>345.2</ele>
        <time>2019-01-10T14:33:48Z</time>
      </trkpt>
      <trkpt lat="36.783288629367" lon="-3.958808166541">
        <ele>345</ele>
        <time>2019-01-10T14:33:50Z</time>
      </trkpt>
      <trkpt lat="36.783152004397" lon="-3.959014864195">
        <ele>344.6</ele>
        <time>2019-01-10T14:33:53Z</time>
      </trkpt>
      <trkpt lat="36.783045386629" lon="-3.959130282958">
        <ele>344.6</ele>
        <time>2019-01-10T14:33:55Z</time>
      </trkpt>
      <trkpt lat="36.78294052906" lon="-3.95926422572">
        <ele>344.2</ele>
        <time>2019-01-10T14:33:57Z</time>
      </trkpt>
      <trkpt lat="36.7828030659" lon="-3.959623054859">
        <ele>343.2</ele>
        <time>2019-01-10T14:34:01Z</time>
      </trkpt>
      <trkpt lat="36.78269996853" lon="-3.959767810272">
        <ele>342.6</ele>
        <time>2019-01-10T14:34:03Z</time>
      </trkpt>
      <trkpt lat="36.782559739343" lon="-3.95983335673">
        <ele>342</ele>
        <time>2019-01-10T14:34:05Z</time>
      </trkpt>
      <trkpt lat="36.782090185305" lon="-3.959839810793">
        <ele>340.8</ele>
        <time>2019-01-10T14:34:11Z</time>
      </trkpt>
      <trkpt lat="36.781940736028" lon="-3.959904267604">
        <ele>339.8</ele>
        <time>2019-01-10T14:34:13Z</time>
      </trkpt>
      <trkpt lat="36.781872423543" lon="-3.959948943131">
        <ele>339.4</ele>
        <time>2019-01-10T14:34:14Z</time>
      </trkpt>
      <trkpt lat="36.781679723662" lon="-3.960111384353">
        <ele>338.4</ele>
        <time>2019-01-10T14:34:17Z</time>
      </trkpt>
      <trkpt lat="36.781495824776" lon="-3.960288661538">
        <ele>337.2</ele>
        <time>2019-01-10T14:34:20Z</time>
      </trkpt>
      <trkpt lat="36.781432960526" lon="-3.96034046168">
        <ele>337</ele>
        <time>2019-01-10T14:34:21Z</time>
      </trkpt>
      <trkpt lat="36.781287450742" lon="-3.960380275705">
        <ele>335.8</ele>
        <time>2019-01-10T14:34:23Z</time>
      </trkpt>
      <trkpt lat="36.781146886279" lon="-3.960333253246">
        <ele>334.8</ele>
        <time>2019-01-10T14:34:25Z</time>
      </trkpt>
      <trkpt lat="36.781052841361" lon="-3.960186569996">
        <ele>334.4</ele>
        <time>2019-01-10T14:34:27Z</time>
      </trkpt>
      <trkpt lat="36.781009926033" lon="-3.959974088831">
        <ele>334</ele>
        <time>2019-01-10T14:34:29Z</time>
      </trkpt>
      <trkpt lat="36.780985199428" lon="-3.959741072011">
        <ele>333.8</ele>
        <time>2019-01-10T14:34:31Z</time>
      </trkpt>
      <trkpt lat="36.780899620229" lon="-3.959549880872">
        <ele>333.4</ele>
        <time>2019-01-10T14:34:33Z</time>
      </trkpt>
      <trkpt lat="36.780741621414" lon="-3.959502858413">
        <ele>332.8</ele>
        <time>2019-01-10T14:34:35Z</time>
      </trkpt>
      <trkpt lat="36.780663250649" lon="-3.959540660782">
        <ele>332.6</ele>
        <time>2019-01-10T14:34:36Z</time>
      </trkpt>
      <trkpt lat="36.780591417766" lon="-3.959592628562">
        <ele>332.4</ele>
        <time>2019-01-10T14:34:37Z</time>
      </trkpt>
      <trkpt lat="36.780184476521" lon="-3.959907368907">
        <ele>331.6</ele>
        <time>2019-01-10T14:34:43Z</time>
      </trkpt>
      <trkpt lat="36.78003955347" lon="-3.959938381937">
        <ele>331.6</ele>
        <time>2019-01-10T14:34:45Z</time>
      </trkpt>
      <trkpt lat="36.779659434305" lon="-3.959904686699">
        <ele>332</ele>
        <time>2019-01-10T14:34:50Z</time>
      </trkpt>
      <trkpt lat="36.77921896546" lon="-3.959648535835">
        <ele>330.8</ele>
        <time>2019-01-10T14:34:56Z</time>
      </trkpt>
      <trkpt lat="36.779171272449" lon="-3.959561196437">
        <ele>329.8</ele>
        <time>2019-01-10T14:34:57Z</time>
      </trkpt>
      <trkpt lat="36.779152329355" lon="-3.95945449485">
        <ele>328.6</ele>
        <time>2019-01-10T14:34:58Z</time>
      </trkpt>
      <trkpt lat="36.779115700452" lon="-3.959220388383">
        <ele>327.2</ele>
        <time>2019-01-10T14:35:00Z</time>
      </trkpt>
      <trkpt lat="36.778981087138" lon="-3.959061216102">
        <ele>325.4</ele>
        <time>2019-01-10T14:35:02Z</time>
      </trkpt>
      <trkpt lat="36.778791740017" lon="-3.959043865569">
        <ele>323.4</ele>
        <time>2019-01-10T14:35:04Z</time>
      </trkpt>
      <trkpt lat="36.778657461979" lon="-3.959190381181">
        <ele>322</ele>
        <time>2019-01-10T14:35:06Z</time>
      </trkpt>
      <trkpt lat="36.778550508935" lon="-3.959367406909">
        <ele>321.4</ele>
        <time>2019-01-10T14:35:08Z</time>
      </trkpt>
      <trkpt lat="36.778480184794" lon="-3.959437311955">
        <ele>320.8</ele>
        <time>2019-01-10T14:35:09Z</time>
      </trkpt>
      <trkpt lat="36.778399718554" lon="-3.959492632495">
        <ele>320.4</ele>
        <time>2019-01-10T14:35:10Z</time>
      </trkpt>
      <trkpt lat="36.778233924572" lon="-3.959496571988">
        <ele>319.8</ele>
        <time>2019-01-10T14:35:12Z</time>
      </trkpt>
      <trkpt lat="36.778066202753" lon="-3.959202618755">
        <ele>319</ele>
        <time>2019-01-10T14:35:15Z</time>
      </trkpt>
      <trkpt lat="36.77798598797" lon="-3.959130031501">
        <ele>318.6</ele>
        <time>2019-01-10T14:35:16Z</time>
      </trkpt>
      <trkpt lat="36.77788791974" lon="-3.959092983503">
        <ele>318.2</ele>
        <time>2019-01-10T14:35:17Z</time>
      </trkpt>
      <trkpt lat="36.777783648904" lon="-3.959067753984">
        <ele>317.4</ele>
        <time>2019-01-10T14:35:18Z</time>
      </trkpt>
      <trkpt lat="36.777679964801" lon="-3.959035567488">
        <ele>316.8</ele>
        <time>2019-01-10T14:35:19Z</time>
      </trkpt>
      <trkpt lat="36.777576029241" lon="-3.958990389047">
        <ele>316</ele>
        <time>2019-01-10T14:35:20Z</time>
      </trkpt>
      <trkpt lat="36.777474272975" lon="-3.958930374643">
        <ele>315</ele>
        <time>2019-01-10T14:35:21Z</time>
      </trkpt>
      <trkpt lat="36.777377378211" lon="-3.958853344982">
        <ele>313.8</ele>
        <time>2019-01-10T14:35:22Z</time>
      </trkpt>
      <trkpt lat="36.777291882831" lon="-3.958760892625">
        <ele>312.4</ele>
        <time>2019-01-10T14:35:23Z</time>
      </trkpt>
      <trkpt lat="36.777209488754" lon="-3.958674475236">
        <ele>311</ele>
        <time>2019-01-10T14:35:24Z</time>
      </trkpt>
      <trkpt lat="36.777121143528" lon="-3.958617478316">
        <ele>309.8</ele>
        <time>2019-01-10T14:35:25Z</time>
      </trkpt>
      <trkpt lat="36.777023997307" lon="-3.958604318733">
        <ele>308.4</ele>
        <time>2019-01-10T14:35:26Z</time>
      </trkpt>
      <trkpt lat="36.776925174706" lon="-3.958625105845">
        <ele>307.6</ele>
        <time>2019-01-10T14:35:27Z</time>
      </trkpt>
      <trkpt lat="36.776826855019" lon="-3.958655196866">
        <ele>306.8</ele>
        <time>2019-01-10T14:35:28Z</time>
      </trkpt>
      <trkpt lat="36.776630131826" lon="-3.95871521127">
        <ele>305.4</ele>
        <time>2019-01-10T14:35:30Z</time>
      </trkpt>
      <trkpt lat="36.77633559186" lon="-3.958807160713">
        <ele>304</ele>
        <time>2019-01-10T14:35:33Z</time>
      </trkpt>
      <trkpt lat="36.776136521735" lon="-3.958868013307">
        <ele>302.8</ele>
        <time>2019-01-10T14:35:35Z</time>
      </trkpt>
      <trkpt lat="36.775938457438" lon="-3.958933895041">
        <ele>301.2</ele>
        <time>2019-01-10T14:35:37Z</time>
      </trkpt>
      <trkpt lat="36.775736202191" lon="-3.959017462584">
        <ele>299.8</ele>
        <time>2019-01-10T14:35:39Z</time>
      </trkpt>
      <trkpt lat="36.775539143722" lon="-3.959112429511">
        <ele>298.4</ele>
        <time>2019-01-10T14:35:41Z</time>
      </trkpt>
      <trkpt lat="36.775444847347" lon="-3.959151321527">
        <ele>297.6</ele>
        <time>2019-01-10T14:35:42Z</time>
      </trkpt>
      <trkpt lat="36.775353819913" lon="-3.959172360096">
        <ele>296.6</ele>
        <time>2019-01-10T14:35:43Z</time>
      </trkpt>
      <trkpt lat="36.77526103228" lon="-3.959168252965">
        <ele>295.4</ele>
        <time>2019-01-10T14:35:44Z</time>
      </trkpt>
      <trkpt lat="36.775168496104" lon="-3.959129528587">
        <ele>294</ele>
        <time>2019-01-10T14:35:45Z</time>
      </trkpt>
      <trkpt lat="36.77508082143" lon="-3.959043949388">
        <ele>292.8</ele>
        <time>2019-01-10T14:35:46Z</time>
      </trkpt>
      <trkpt lat="36.77491485981" lon="-3.958865917832">
        <ele>291.2</ele>
        <time>2019-01-10T14:35:48Z</time>
      </trkpt>
      <trkpt lat="36.774767254551" lon="-3.958691239036">
        <ele>290</ele>
        <time>2019-01-10T14:35:50Z</time>
      </trkpt>
      <trkpt lat="36.774708916527" lon="-3.958588141666">
        <ele>289</ele>
        <time>2019-01-10T14:35:51Z</time>
      </trkpt>
      <trkpt lat="36.774674550737" lon="-3.958466101202">
        <ele>287.8</ele>
        <time>2019-01-10T14:35:52Z</time>
      </trkpt>
      <trkpt lat="36.774658792765" lon="-3.958335092105">
        <ele>286.6</ele>
        <time>2019-01-10T14:35:53Z</time>
      </trkpt>
      <trkpt lat="36.774650997598" lon="-3.958192851262">
        <ele>285.6</ele>
        <time>2019-01-10T14:35:54Z</time>
      </trkpt>
      <trkpt lat="36.774563742019" lon="-3.957958158062">
        <ele>284.2</ele>
        <time>2019-01-10T14:35:56Z</time>
      </trkpt>
      <trkpt lat="36.774391745431" lon="-3.957794375736">
        <ele>283.6</ele>
        <time>2019-01-10T14:35:58Z</time>
      </trkpt>
      <trkpt lat="36.774299460712" lon="-3.957737714092">
        <ele>282.8</ele>
        <time>2019-01-10T14:35:59Z</time>
      </trkpt>
      <trkpt lat="36.774201895396" lon="-3.957709467089">
        <ele>281.6</ele>
        <time>2019-01-10T14:36:00Z</time>
      </trkpt>
      <trkpt lat="36.774105922641" lon="-3.957725895613">
        <ele>280</ele>
        <time>2019-01-10T14:36:01Z</time>
      </trkpt>
      <trkpt lat="36.774015649578" lon="-3.957781719067">
        <ele>278.6</ele>
        <time>2019-01-10T14:36:02Z</time>
      </trkpt>
      <trkpt lat="36.773931495302" lon="-3.957863274954">
        <ele>277.6</ele>
        <time>2019-01-10T14:36:03Z</time>
      </trkpt>
      <trkpt lat="36.773768551166" lon="-3.95801951357">
        <ele>276.6</ele>
        <time>2019-01-10T14:36:05Z</time>
      </trkpt>
      <trkpt lat="36.773569397222" lon="-3.958101153276">
        <ele>275.6</ele>
        <time>2019-01-10T14:36:07Z</time>
      </trkpt>
      <trkpt lat="36.773466383671" lon="-3.958124203501">
        <ele>275</ele>
        <time>2019-01-10T14:36:08Z</time>
      </trkpt>
      <trkpt lat="36.773264212243" lon="-3.958166532096">
        <ele>273.6</ele>
        <time>2019-01-10T14:36:10Z</time>
      </trkpt>
      <trkpt lat="36.773164551452" lon="-3.958174075806">
        <ele>273</ele>
        <time>2019-01-10T14:36:11Z</time>
      </trkpt>
      <trkpt lat="36.773064555385" lon="-3.958169130485">
        <ele>272.4</ele>
        <time>2019-01-10T14:36:12Z</time>
      </trkpt>
      <trkpt lat="36.772868335106" lon="-3.958134261781">
        <ele>270.8</ele>
        <time>2019-01-10T14:36:14Z</time>
      </trkpt>
      <trkpt lat="36.772674461759" lon="-3.958061506889">
        <ele>269.4</ele>
        <time>2019-01-10T14:36:16Z</time>
      </trkpt>
      <trkpt lat="36.772407079149" lon="-3.95789043231">
        <ele>267.6</ele>
        <time>2019-01-10T14:36:19Z</time>
      </trkpt>
      <trkpt lat="36.772330384764" lon="-3.95782086254">
        <ele>266.8</ele>
        <time>2019-01-10T14:36:20Z</time>
      </trkpt>
      <trkpt lat="36.77225612113" lon="-3.957753136788">
        <ele>266</ele>
        <time>2019-01-10T14:36:21Z</time>
      </trkpt>
      <trkpt lat="36.772172972682" lon="-3.957711227288">
        <ele>265.6</ele>
        <time>2019-01-10T14:36:22Z</time>
      </trkpt>
      <trkpt lat="36.77198370938" lon="-3.95774710182">
        <ele>264.6</ele>
        <time>2019-01-10T14:36:24Z</time>
      </trkpt>
      <trkpt lat="36.771807102747" lon="-3.957857826719">
        <ele>263.6</ele>
        <time>2019-01-10T14:36:26Z</time>
      </trkpt>
      <trkpt lat="36.771623874413" lon="-3.95787953584">
        <ele>262.2</ele>
        <time>2019-01-10T14:36:28Z</time>
      </trkpt>
      <trkpt lat="36.771454057119" lon="-3.957813654106">
        <ele>260.8</ele>
        <time>2019-01-10T14:36:30Z</time>
      </trkpt>
      <trkpt lat="36.771388426842" lon="-3.957740312481">
        <ele>259.8</ele>
        <time>2019-01-10T14:36:31Z</time>
      </trkpt>
      <trkpt lat="36.771335704691" lon="-3.957650961427">
        <ele>258.8</ele>
        <time>2019-01-10T14:36:32Z</time>
      </trkpt>
      <trkpt lat="36.771285916205" lon="-3.957560688364">
        <ele>258</ele>
        <time>2019-01-10T14:36:33Z</time>
      </trkpt>
      <trkpt lat="36.771225817982" lon="-3.957481647047">
        <ele>257.4</ele>
        <time>2019-01-10T14:36:34Z</time>
      </trkpt>
      <trkpt lat="36.771066980977" lon="-3.957426661783">
        <ele>256.8</ele>
        <time>2019-01-10T14:36:36Z</time>
      </trkpt>
      <trkpt lat="36.770889703792" lon="-3.957476869364">
        <ele>256.2</ele>
        <time>2019-01-10T14:36:38Z</time>
      </trkpt>
      <trkpt lat="36.770800939471" lon="-3.957505451643">
        <ele>255.6</ele>
        <time>2019-01-10T14:36:39Z</time>
      </trkpt>
      <trkpt lat="36.770709073847" lon="-3.957514587914">
        <ele>255</ele>
        <time>2019-01-10T14:36:40Z</time>
      </trkpt>
      <trkpt lat="36.770520900192" lon="-3.95748223378">
        <ele>254</ele>
        <time>2019-01-10T14:36:42Z</time>
      </trkpt>
      <trkpt lat="36.770330631062" lon="-3.9574386479">
        <ele>252.8</ele>
        <time>2019-01-10T14:36:44Z</time>
      </trkpt>
      <trkpt lat="36.770131477118" lon="-3.957419453349">
        <ele>251.2</ele>
        <time>2019-01-10T14:36:46Z</time>
      </trkpt>
      <trkpt lat="36.769958977616" lon="-3.957494303716">
        <ele>249.8</ele>
        <time>2019-01-10T14:36:48Z</time>
      </trkpt>
      <trkpt lat="36.769815647126" lon="-3.957614416343">
        <ele>248.2</ele>
        <time>2019-01-10T14:36:50Z</time>
      </trkpt>
      <trkpt lat="36.769738366008" lon="-3.957648949771">
        <ele>247</ele>
        <time>2019-01-10T14:36:51Z</time>
      </trkpt>
      <trkpt lat="36.769656139569" lon="-3.957658588956">
        <ele>245.8</ele>
        <time>2019-01-10T14:36:52Z</time>
      </trkpt>
      <trkpt lat="36.769483220972" lon="-3.957611482678">
        <ele>244.2</ele>
        <time>2019-01-10T14:36:54Z</time>
      </trkpt>
      <trkpt lat="36.769214832534" lon="-3.957521209615">
        <ele>243.4</ele>
        <time>2019-01-10T14:36:57Z</time>
      </trkpt>
      <trkpt lat="36.769123721281" lon="-3.957506876566">
        <ele>243</ele>
        <time>2019-01-10T14:36:58Z</time>
      </trkpt>
      <trkpt lat="36.769033532037" lon="-3.957503272349">
        <ele>242.4</ele>
        <time>2019-01-10T14:36:59Z</time>
      </trkpt>
      <trkpt lat="36.768947114648" lon="-3.957505032548">
        <ele>241.6</ele>
        <time>2019-01-10T14:37:00Z</time>
      </trkpt>
      <trkpt lat="36.768777129716" lon="-3.957527160764">
        <ele>240.4</ele>
        <time>2019-01-10T14:37:02Z</time>
      </trkpt>
      <trkpt lat="36.768518715739" lon="-3.957564711676">
        <ele>239.6</ele>
        <time>2019-01-10T14:37:05Z</time>
      </trkpt>
      <trkpt lat="36.768435232015" lon="-3.957551971188">
        <ele>239.4</ele>
        <time>2019-01-10T14:37:06Z</time>
      </trkpt>
      <trkpt lat="36.768358872906" lon="-3.957509726412">
        <ele>239.2</ele>
        <time>2019-01-10T14:37:07Z</time>
      </trkpt>
      <trkpt lat="36.76826466035" lon="-3.957344519163">
        <ele>238.4</ele>
        <time>2019-01-10T14:37:09Z</time>
      </trkpt>
      <trkpt lat="36.768217805529" lon="-3.957136480405">
        <ele>237.4</ele>
        <time>2019-01-10T14:37:11Z</time>
      </trkpt>
      <trkpt lat="36.768130130855" lon="-3.956987617861">
        <ele>237</ele>
        <time>2019-01-10T14:37:13Z</time>
      </trkpt>
      <trkpt lat="36.768056286316" lon="-3.956954928451">
        <ele>236.8</ele>
        <time>2019-01-10T14:37:14Z</time>
      </trkpt>
      <trkpt lat="36.767978586103" lon="-3.956947133284">
        <ele>236.6</ele>
        <time>2019-01-10T14:37:15Z</time>
      </trkpt>
      <trkpt lat="36.767825532609" lon="-3.956946546551">
        <ele>235.8</ele>
        <time>2019-01-10T14:37:17Z</time>
      </trkpt>
      <trkpt lat="36.767753029174" lon="-3.956926597629">
        <ele>235.2</ele>
        <time>2019-01-10T14:37:18Z</time>
      </trkpt>
      <trkpt lat="36.767683291766" lon="-3.956889549631">
        <ele>235</ele>
        <time>2019-01-10T14:37:19Z</time>
      </trkpt>
      <trkpt lat="36.767469301859" lon="-3.956735238852">
        <ele>234.4</ele>
        <time>2019-01-10T14:37:22Z</time>
      </trkpt>
      <trkpt lat="36.767391182551" lon="-3.956694586637">
        <ele>234.2</ele>
        <time>2019-01-10T14:37:23Z</time>
      </trkpt>
      <trkpt lat="36.767306776818" lon="-3.956666591091">
        <ele>234</ele>
        <time>2019-01-10T14:37:24Z</time>
      </trkpt>
      <trkpt lat="36.767134361135" lon="-3.956687964936">
        <ele>233.6</ele>
        <time>2019-01-10T14:37:26Z</time>
      </trkpt>
      <trkpt lat="36.766997736165" lon="-3.956834564367">
        <ele>232.6</ele>
        <time>2019-01-10T14:37:28Z</time>
      </trkpt>
      <trkpt lat="36.766867146163" lon="-3.956978984504">
        <ele>231</ele>
        <time>2019-01-10T14:37:30Z</time>
      </trkpt>
      <trkpt lat="36.766697328869" lon="-3.957062216771">
        <ele>230</ele>
        <time>2019-01-10T14:37:32Z</time>
      </trkpt>
      <trkpt lat="36.766410416432" lon="-3.957135390758">
        <ele>229.2</ele>
        <time>2019-01-10T14:37:35Z</time>
      </trkpt>
      <trkpt lat="36.766317712618" lon="-3.957125667754">
        <ele>228.8</ele>
        <time>2019-01-10T14:37:36Z</time>
      </trkpt>
      <trkpt lat="36.766227355736" lon="-3.957085183177">
        <ele>228.2</ele>
        <time>2019-01-10T14:37:37Z</time>
      </trkpt>
      <trkpt lat="36.766141273623" lon="-3.957025336411">
        <ele>227.6</ele>
        <time>2019-01-10T14:37:38Z</time>
      </trkpt>
      <trkpt lat="36.766058795727" lon="-3.956960209048">
        <ele>226.4</ele>
        <time>2019-01-10T14:37:39Z</time>
      </trkpt>
      <trkpt lat="36.765978580944" lon="-3.95689047164">
        <ele>225.2</ele>
        <time>2019-01-10T14:37:40Z</time>
      </trkpt>
      <trkpt lat="36.765900545455" lon="-3.956817381472">
        <ele>224</ele>
        <time>2019-01-10T14:37:41Z</time>
      </trkpt>
      <trkpt lat="36.765833154979" lon="-3.956739429802">
        <ele>223</ele>
        <time>2019-01-10T14:37:42Z</time>
      </trkpt>
      <trkpt lat="36.765778504991" lon="-3.956645301065">
        <ele>222.4</ele>
        <time>2019-01-10T14:37:43Z</time>
      </trkpt>
      <trkpt lat="36.765742630459" lon="-3.956537006917">
        <ele>222</ele>
        <time>2019-01-10T14:37:44Z</time>
      </trkpt>
      <trkpt lat="36.765718322949" lon="-3.956424605638">
        <ele>221.2</ele>
        <time>2019-01-10T14:37:45Z</time>
      </trkpt>
      <trkpt lat="36.765688148109" lon="-3.95632134063">
        <ele>220.8</ele>
        <time>2019-01-10T14:37:46Z</time>
      </trkpt>
      <trkpt lat="36.765549260026" lon="-3.956202150012">
        <ele>220</ele>
        <time>2019-01-10T14:37:48Z</time>
      </trkpt>
      <trkpt lat="36.765346166589" lon="-3.956217321251">
        <ele>218.6</ele>
        <time>2019-01-10T14:37:50Z</time>
      </trkpt>
      <trkpt lat="36.765240806106" lon="-3.956243891874">
        <ele>217.4</ele>
        <time>2019-01-10T14:37:51Z</time>
      </trkpt>
      <trkpt lat="36.765140223306" lon="-3.956279850225">
        <ele>216.4</ele>
        <time>2019-01-10T14:37:52Z</time>
      </trkpt>
      <trkpt lat="36.764943500113" lon="-3.956384875432">
        <ele>214.8</ele>
        <time>2019-01-10T14:37:54Z</time>
      </trkpt>
      <trkpt lat="36.764752057517" lon="-3.956522925325">
        <ele>213.6</ele>
        <time>2019-01-10T14:37:56Z</time>
      </trkpt>
      <trkpt lat="36.764667819422" lon="-3.956594674389">
        <ele>212.8</ele>
        <time>2019-01-10T14:37:57Z</time>
      </trkpt>
      <trkpt lat="36.764611912149" lon="-3.956674889172">
        <ele>212.2</ele>
        <time>2019-01-10T14:37:58Z</time>
      </trkpt>
      <trkpt lat="36.764595567444" lon="-3.956779998198">
        <ele>211.6</ele>
        <time>2019-01-10T14:37:59Z</time>
      </trkpt>
      <trkpt lat="36.764608894665" lon="-3.956892567115">
        <ele>210.6</ele>
        <time>2019-01-10T14:38:00Z</time>
      </trkpt>
      <trkpt lat="36.764644769197" lon="-3.95700530367">
        <ele>209.4</ele>
        <time>2019-01-10T14:38:01Z</time>
      </trkpt>
      <trkpt lat="36.764667819422" lon="-3.957116280026">
        <ele>208</ele>
        <time>2019-01-10T14:38:02Z</time>
      </trkpt>
      <trkpt lat="36.764657677323" lon="-3.957231279694">
        <ele>207</ele>
        <time>2019-01-10T14:38:03Z</time>
      </trkpt>
      <trkpt lat="36.764622054248" lon="-3.957343261878">
        <ele>206.2</ele>
        <time>2019-01-10T14:38:04Z</time>
      </trkpt>
      <trkpt lat="36.764533709022" lon="-3.957552222645">
        <ele>205</ele>
        <time>2019-01-10T14:38:06Z</time>
      </trkpt>
      <trkpt lat="36.76443580843" lon="-3.957750203123">
        <ele>204.4</ele>
        <time>2019-01-10T14:38:08Z</time>
      </trkpt>
      <trkpt lat="36.764377218949" lon="-3.957839554177">
        <ele>203.8</ele>
        <time>2019-01-10T14:38:09Z</time>
      </trkpt>
      <trkpt lat="36.7643125945" lon="-3.957919685141">
        <ele>203</ele>
        <time>2019-01-10T14:38:10Z</time>
      </trkpt>
      <trkpt lat="36.764240593979" lon="-3.957982968486">
        <ele>202</ele>
        <time>2019-01-10T14:38:11Z</time>
      </trkpt>
      <trkpt lat="36.764163731956" lon="-3.958026051452">
        <ele>201.4</ele>
        <time>2019-01-10T14:38:12Z</time>
      </trkpt>
      <trkpt lat="36.764082678983" lon="-3.958045581279">
        <ele>200.8</ele>
        <time>2019-01-10T14:38:13Z</time>
      </trkpt>
      <trkpt lat="36.764002548019" lon="-3.958039881587">
        <ele>200.4</ele>
        <time>2019-01-10T14:38:14Z</time>
      </trkpt>
      <trkpt lat="36.763925183082" lon="-3.957991937119">
        <ele>199.8</ele>
        <time>2019-01-10T14:38:15Z</time>
      </trkpt>
      <trkpt lat="36.763856451502" lon="-3.957918176399">
        <ele>199.2</ele>
        <time>2019-01-10T14:38:16Z</time>
      </trkpt>
      <trkpt lat="36.76372753788" lon="-3.957732768771">
        <ele>198.4</ele>
        <time>2019-01-10T14:38:18Z</time>
      </trkpt>
      <trkpt lat="36.763561911536" lon="-3.957587678082">
        <ele>196.8</ele>
        <time>2019-01-10T14:38:20Z</time>
      </trkpt>
      <trkpt lat="36.763379353754" lon="-3.957461614306">
        <ele>195</ele>
        <time>2019-01-10T14:38:22Z</time>
      </trkpt>
      <trkpt lat="36.76328413537" lon="-3.957417190236">
        <ele>194.2</ele>
        <time>2019-01-10T14:38:23Z</time>
      </trkpt>
      <trkpt lat="36.763186653873" lon="-3.957386428663">
        <ele>193.4</ele>
        <time>2019-01-10T14:38:24Z</time>
      </trkpt>
      <trkpt lat="36.763086490168" lon="-3.957370083958">
        <ele>192.6</ele>
        <time>2019-01-10T14:38:25Z</time>
      </trkpt>
      <trkpt lat="36.762985572092" lon="-3.957364719542">
        <ele>191.8</ele>
        <time>2019-01-10T14:38:26Z</time>
      </trkpt>
      <trkpt lat="36.762782813931" lon="-3.957348207199">
        <ele>190.8</ele>
        <time>2019-01-10T14:38:28Z</time>
      </trkpt>
      <trkpt lat="36.762497158779" lon="-3.957305627147">
        <ele>189.4</ele>
        <time>2019-01-10T14:38:31Z</time>
      </trkpt>
      <trkpt lat="36.762414345607" lon="-3.957275033212">
        <ele>188</ele>
        <time>2019-01-10T14:38:32Z</time>
      </trkpt>
      <trkpt lat="36.762340752525" lon="-3.957223903622">
        <ele>186.6</ele>
        <time>2019-01-10T14:38:33Z</time>
      </trkpt>
      <trkpt lat="36.762280989578" lon="-3.957148550341">
        <ele>185.4</ele>
        <time>2019-01-10T14:38:34Z</time>
      </trkpt>
      <trkpt lat="36.762238325707" lon="-3.9570530805">
        <ele>184.4</ele>
        <time>2019-01-10T14:38:35Z</time>
      </trkpt>
      <trkpt lat="36.762222232459" lon="-3.956947049465">
        <ele>183.6</ele>
        <time>2019-01-10T14:38:36Z</time>
      </trkpt>
      <trkpt lat="36.762226255771" lon="-3.95683682748">
        <ele>183.2</ele>
        <time>2019-01-10T14:38:37Z</time>
      </trkpt>
      <trkpt lat="36.762266321253" lon="-3.956550669414">
        <ele>182.6</ele>
        <time>2019-01-10T14:38:40Z</time>
      </trkpt>
      <trkpt lat="36.762234972947" lon="-3.956402393603">
        <ele>182.2</ele>
        <time>2019-01-10T14:38:42Z</time>
      </trkpt>
      <trkpt lat="36.762161296046" lon="-3.956304828287">
        <ele>181</ele>
        <time>2019-01-10T14:38:44Z</time>
      </trkpt>
      <trkpt lat="36.762044619998" lon="-3.956312371997">
        <ele>180</ele>
        <time>2019-01-10T14:38:46Z</time>
      </trkpt>
      <trkpt lat="36.761986365793" lon="-3.956351766927">
        <ele>179.6</ele>
        <time>2019-01-10T14:38:47Z</time>
      </trkpt>
      <trkpt lat="36.761879999482" lon="-3.956437346126">
        <ele>178.2</ele>
        <time>2019-01-10T14:38:49Z</time>
      </trkpt>
      <trkpt lat="36.761756869371" lon="-3.956440866524">
        <ele>177.4</ele>
        <time>2019-01-10T14:38:51Z</time>
      </trkpt>
      <trkpt lat="36.761624267713" lon="-3.956408093295">
        <ele>177.2</ele>
        <time>2019-01-10T14:38:53Z</time>
      </trkpt>
      <trkpt lat="36.761556458142" lon="-3.956409769675">
        <ele>177.2</ele>
        <time>2019-01-10T14:38:54Z</time>
      </trkpt>
      <trkpt lat="36.761485547268" lon="-3.956403818526">
        <ele>177</ele>
        <time>2019-01-10T14:38:55Z</time>
      </trkpt>
      <trkpt lat="36.761344060796" lon="-3.956345899597">
        <ele>175.8</ele>
        <time>2019-01-10T14:38:57Z</time>
      </trkpt>
      <trkpt lat="36.761289662265" lon="-3.95627691656">
        <ele>174.6</ele>
        <time>2019-01-10T14:38:58Z</time>
      </trkpt>
      <trkpt lat="36.761252614267" lon="-3.956182704004">
        <ele>173.6</ele>
        <time>2019-01-10T14:38:59Z</time>
      </trkpt>
      <trkpt lat="36.761311958119" lon="-3.955950441555">
        <ele>171.8</ele>
        <time>2019-01-10T14:39:01Z</time>
      </trkpt>
      <trkpt lat="36.761432489841" lon="-3.955764531013">
        <ele>170.6</ele>
        <time>2019-01-10T14:39:03Z</time>
      </trkpt>
      <trkpt lat="36.761473393513" lon="-3.955601083963">
        <ele>169.6</ele>
        <time>2019-01-10T14:39:05Z</time>
      </trkpt>
      <trkpt lat="36.761420839" lon="-3.955431853402">
        <ele>168.6</ele>
        <time>2019-01-10T14:39:07Z</time>
      </trkpt>
      <trkpt lat="36.761283711116" lon="-3.955305873445">
        <ele>167.6</ele>
        <time>2019-01-10T14:39:09Z</time>
      </trkpt>
      <trkpt lat="36.761201987591" lon="-3.955265640325">
        <ele>167</ele>
        <time>2019-01-10T14:39:10Z</time>
      </trkpt>
      <trkpt lat="36.760952458428" lon="-3.955175115805">
        <ele>165.4</ele>
        <time>2019-01-10T14:39:13Z</time>
      </trkpt>
      <trkpt lat="36.760798985839" lon="-3.955122561292">
        <ele>163.8</ele>
        <time>2019-01-10T14:39:15Z</time>
      </trkpt>
      <trkpt lat="36.760671916235" lon="-3.955069252408">
        <ele>162.8</ele>
        <time>2019-01-10T14:39:17Z</time>
      </trkpt>
      <trkpt lat="36.760600921542" lon="-3.955040251034">
        <ele>162.2</ele>
        <time>2019-01-10T14:39:18Z</time>
      </trkpt>
      <trkpt lat="36.760524059519" lon="-3.955034467523">
        <ele>161.6</ele>
        <time>2019-01-10T14:39:19Z</time>
      </trkpt>
      <trkpt lat="36.760448706238" lon="-3.955060619051">
        <ele>161</ele>
        <time>2019-01-10T14:39:20Z</time>
      </trkpt>
      <trkpt lat="36.760376957174" lon="-3.955096577402">
        <ele>160.6</ele>
        <time>2019-01-10T14:39:21Z</time>
      </trkpt>
      <trkpt lat="36.760246115715" lon="-3.95518978413">
        <ele>159.8</ele>
        <time>2019-01-10T14:39:23Z</time>
      </trkpt>
      <trkpt lat="36.760106137985" lon="-3.955223814644">
        <ele>158.6</ele>
        <time>2019-01-10T14:39:25Z</time>
      </trkpt>
      <trkpt lat="36.760036903491" lon="-3.955209230138">
        <ele>157.6</ele>
        <time>2019-01-10T14:39:26Z</time>
      </trkpt>
      <trkpt lat="36.759972614318" lon="-3.955176624547">
        <ele>156.6</ele>
        <time>2019-01-10T14:39:27Z</time>
      </trkpt>
      <trkpt lat="36.759916455588" lon="-3.955127003699">
        <ele>155.8</ele>
        <time>2019-01-10T14:39:28Z</time>
      </trkpt>
      <trkpt lat="36.759867924387" lon="-3.955059110309">
        <ele>155.4</ele>
        <time>2019-01-10T14:39:29Z</time>
      </trkpt>
      <trkpt lat="36.759801958834" lon="-3.954870014645">
        <ele>155</ele>
        <time>2019-01-10T14:39:31Z</time>
      </trkpt>
      <trkpt lat="36.759782680464" lon="-3.954767923103">
        <ele>154.6</ele>
        <time>2019-01-10T14:39:32Z</time>
      </trkpt>
      <trkpt lat="36.759744710457" lon="-3.954591148832">
        <ele>153.4</ele>
        <time>2019-01-10T14:39:34Z</time>
      </trkpt>
      <trkpt lat="36.759673883402" lon="-3.954426528316">
        <ele>152.4</ele>
        <time>2019-01-10T14:39:36Z</time>
      </trkpt>
      <trkpt lat="36.759538683355" lon="-3.954176328601">
        <ele>151</ele>
        <time>2019-01-10T14:39:39Z</time>
      </trkpt>
      <trkpt lat="36.759448661749" lon="-3.954048672264">
        <ele>149.8</ele>
        <time>2019-01-10T14:39:41Z</time>
      </trkpt>
      <trkpt lat="36.759354533012" lon="-3.953946413084">
        <ele>148.2</ele>
        <time>2019-01-10T14:39:43Z</time>
      </trkpt>
      <trkpt lat="36.759243640475" lon="-3.953875418391">
        <ele>146.6</ele>
        <time>2019-01-10T14:39:45Z</time>
      </trkpt>
      <trkpt lat="36.758880033653" lon="-3.9537170843">
        <ele>145.8</ele>
        <time>2019-01-10T14:39:51Z</time>
      </trkpt>
      <trkpt lat="36.758746677624" lon="-3.95366260195">
        <ele>145.4</ele>
        <time>2019-01-10T14:39:53Z</time>
      </trkpt>
      <trkpt lat="36.758544925291" lon="-3.953601078804">
        <ele>144.4</ele>
        <time>2019-01-10T14:39:56Z</time>
      </trkpt>
      <trkpt lat="36.758380137137" lon="-3.95352597698">
        <ele>143.2</ele>
        <time>2019-01-10T14:39:59Z</time>
      </trkpt>
      <trkpt lat="36.758273100274" lon="-3.953524216781">
        <ele>143</ele>
        <time>2019-01-10T14:40:01Z</time>
      </trkpt>
      <trkpt lat="36.758166314868" lon="-3.953536286717">
        <ele>143.2</ele>
        <time>2019-01-10T14:40:03Z</time>
      </trkpt>
      <trkpt lat="36.758057853082" lon="-3.953579788778">
        <ele>143.4</ele>
        <time>2019-01-10T14:40:05Z</time>
      </trkpt>
      <trkpt lat="36.75781494562" lon="-3.953814901073">
        <ele>143.8</ele>
        <time>2019-01-10T14:40:10Z</time>
      </trkpt>
      <trkpt lat="36.757712015888" lon="-3.953883381196">
        <ele>143.2</ele>
        <time>2019-01-10T14:40:12Z</time>
      </trkpt>
      <trkpt lat="36.75759282527" lon="-3.953895954046">
        <ele>142.6</ele>
        <time>2019-01-10T14:40:14Z</time>
      </trkpt>
      <trkpt lat="36.757475981584" lon="-3.953839795316">
        <ele>142</ele>
        <time>2019-01-10T14:40:16Z</time>
      </trkpt>
      <trkpt lat="36.757381433752" lon="-3.953724376553">
        <ele>141.6</ele>
        <time>2019-01-10T14:40:18Z</time>
      </trkpt>
      <trkpt lat="36.757310690516" lon="-3.953557157648">
        <ele>140.8</ele>
        <time>2019-01-10T14:40:20Z</time>
      </trkpt>
      <trkpt lat="36.757219998358" lon="-3.953288182477">
        <ele>139.4</ele>
        <time>2019-01-10T14:40:23Z</time>
      </trkpt>
      <trkpt lat="36.75718211217" lon="-3.953073941113">
        <ele>138.4</ele>
        <time>2019-01-10T14:40:25Z</time>
      </trkpt>
      <trkpt lat="36.757178507953" lon="-3.952968748268">
        <ele>137.8</ele>
        <time>2019-01-10T14:40:26Z</time>
      </trkpt>
      <trkpt lat="36.757187895681" lon="-3.952865734717">
        <ele>137.2</ele>
        <time>2019-01-10T14:40:27Z</time>
      </trkpt>
      <trkpt lat="36.757211700277" lon="-3.952764146089">
        <ele>136.8</ele>
        <time>2019-01-10T14:40:28Z</time>
      </trkpt>
      <trkpt lat="36.75733633913" lon="-3.952480334955">
        <ele>135.6</ele>
        <time>2019-01-10T14:40:31Z</time>
      </trkpt>
      <trkpt lat="36.757432144247" lon="-3.952308757462">
        <ele>133.8</ele>
        <time>2019-01-10T14:40:33Z</time>
      </trkpt>
      <trkpt lat="36.757479753439" lon="-3.952221920978">
        <ele>132.8</ele>
        <time>2019-01-10T14:40:34Z</time>
      </trkpt>
      <trkpt lat="36.757573379262" lon="-3.952044140879">
        <ele>131.4</ele>
        <time>2019-01-10T14:40:36Z</time>
      </trkpt>
      <trkpt lat="36.7576573659" lon="-3.951862002192">
        <ele>130.6</ele>
        <time>2019-01-10T14:40:38Z</time>
      </trkpt>
      <trkpt lat="36.757689803853" lon="-3.951762006125">
        <ele>130</ele>
        <time>2019-01-10T14:40:39Z</time>
      </trkpt>
      <trkpt lat="36.757703885445" lon="-3.951657986746">
        <ele>129.6</ele>
        <time>2019-01-10T14:40:40Z</time>
      </trkpt>
      <trkpt lat="36.757707489662" lon="-3.951550866064">
        <ele>129</ele>
        <time>2019-01-10T14:40:41Z</time>
      </trkpt>
      <trkpt lat="36.757700448866" lon="-3.951445002667">
        <ele>128.4</ele>
        <time>2019-01-10T14:40:42Z</time>
      </trkpt>
      <trkpt lat="36.757688462749" lon="-3.951341905297">
        <ele>127.8</ele>
        <time>2019-01-10T14:40:43Z</time>
      </trkpt>
      <trkpt lat="36.757650911837" lon="-3.951158006411">
        <ele>127.2</ele>
        <time>2019-01-10T14:40:45Z</time>
      </trkpt>
      <trkpt lat="36.757580168601" lon="-3.951029428065">
        <ele>127.2</ele>
        <time>2019-01-10T14:40:47Z</time>
      </trkpt>
      <trkpt lat="36.757461397078" lon="-3.950983830529">
        <ele>127</ele>
        <time>2019-01-10T14:40:49Z</time>
      </trkpt>
      <trkpt lat="36.757273055785" lon="-3.950965474168">
        <ele>126.8</ele>
        <time>2019-01-10T14:40:52Z</time>
      </trkpt>
      <trkpt lat="36.757212119372" lon="-3.950954158603">
        <ele>126.8</ele>
        <time>2019-01-10T14:40:53Z</time>
      </trkpt>
      <trkpt lat="36.757093096392" lon="-3.950968407833">
        <ele>126.6</ele>
        <time>2019-01-10T14:40:55Z</time>
      </trkpt>
      <trkpt lat="36.756913304637" lon="-3.950989530221">
        <ele>126.2</ele>
        <time>2019-01-10T14:40:58Z</time>
      </trkpt>
      <trkpt lat="36.756548859625" lon="-3.950880816978">
        <ele>126.2</ele>
        <time>2019-01-10T14:41:04Z</time>
      </trkpt>
      <trkpt lat="36.756434279052" lon="-3.950899760072">
        <ele>126.6</ele>
        <time>2019-01-10T14:41:06Z</time>
      </trkpt>
      <trkpt lat="36.75607067223" lon="-3.95098290852">
        <ele>127</ele>
        <time>2019-01-10T14:41:12Z</time>
      </trkpt>
      <trkpt lat="36.755886018973" lon="-3.951030014798">
        <ele>127.8</ele>
        <time>2019-01-10T14:41:15Z</time>
      </trkpt>
      <trkpt lat="36.755769594382" lon="-3.951064296769">
        <ele>128</ele>
        <time>2019-01-10T14:41:17Z</time>
      </trkpt>
      <trkpt lat="36.755411938709" lon="-3.951065386416">
        <ele>127.8</ele>
        <time>2019-01-10T14:41:23Z</time>
      </trkpt>
      <trkpt lat="36.755105328807" lon="-3.951052645928">
        <ele>128.4</ele>
        <time>2019-01-10T14:41:29Z</time>
      </trkpt>
      <trkpt lat="36.755006338568" lon="-3.951045353675">
        <ele>128.6</ele>
        <time>2019-01-10T14:41:31Z</time>
      </trkpt>
      <trkpt lat="36.754915143496" lon="-3.951025404753">
        <ele>129</ele>
        <time>2019-01-10T14:41:33Z</time>
      </trkpt>
      <trkpt lat="36.754872144349" lon="-3.951016268482">
        <ele>129.2</ele>
        <time>2019-01-10T14:41:34Z</time>
      </trkpt>
      <trkpt lat="36.754735687017" lon="-3.950986931832">
        <ele>130.2</ele>
        <time>2019-01-10T14:41:38Z</time>
      </trkpt>
      <trkpt lat="36.754565785904" lon="-3.950938149174">
        <ele>131</ele>
        <time>2019-01-10T14:41:44Z</time>
      </trkpt>
      <trkpt lat="36.754537790358" lon="-3.950929599636">
        <ele>131.2</ele>
        <time>2019-01-10T14:41:45Z</time>
      </trkpt>
      <trkpt lat="36.754392448212" lon="-3.950944016504">
        <ele>132.4</ele>
        <time>2019-01-10T14:41:50Z</time>
      </trkpt>
      <trkpt lat="36.754309048307" lon="-3.950975783905">
        <ele>133.6</ele>
        <time>2019-01-10T14:41:54Z</time>
      </trkpt>
      <trkpt lat="36.754259092183" lon="-3.951048119702">
        <ele>134.8</ele>
        <time>2019-01-10T14:41:58Z</time>
      </trkpt>
      <trkpt lat="36.754276694173" lon="-3.951156330031">
        <ele>136</ele>
        <time>2019-01-10T14:42:02Z</time>
      </trkpt>
      <trkpt lat="36.754353556196" lon="-3.951271329699">
        <ele>136.8</ele>
        <time>2019-01-10T14:42:08Z</time>
      </trkpt>
      <trkpt lat="36.754404015234" lon="-3.951477189163">
        <ele>136.6</ele>
        <time>2019-01-10T14:42:14Z</time>
      </trkpt>
      <trkpt lat="36.75435657368" lon="-3.95156628876">
        <ele>136.4</ele>
        <time>2019-01-10T14:42:16Z</time>
      </trkpt>
      <trkpt lat="36.75425347631" lon="-3.951614736142">
        <ele>135.8</ele>
        <time>2019-01-10T14:42:18Z</time>
      </trkpt>
      <trkpt lat="36.754109223811" lon="-3.951651197407">
        <ele>135</ele>
        <time>2019-01-10T14:42:20Z</time>
      </trkpt>
      <trkpt lat="36.753893138429" lon="-3.951705176843">
        <ele>133.8</ele>
        <time>2019-01-10T14:42:23Z</time>
      </trkpt>
      <trkpt lat="36.753734385243" lon="-3.951742811574">
        <ele>132.8</ele>
        <time>2019-01-10T14:42:25Z</time>
      </trkpt>
      <trkpt lat="36.753494579084" lon="-3.951802239245">
        <ele>131.8</ele>
        <time>2019-01-10T14:42:28Z</time>
      </trkpt>
      <trkpt lat="36.75307414298" lon="-3.951896367982">
        <ele>130.2</ele>
        <time>2019-01-10T14:42:33Z</time>
      </trkpt>
      <trkpt lat="36.752899045089" lon="-3.951946994658">
        <ele>128.4</ele>
        <time>2019-01-10T14:42:35Z</time>
      </trkpt>
      <trkpt lat="36.752723109008" lon="-3.952016564428">
        <ele>127.2</ele>
        <time>2019-01-10T14:42:37Z</time>
      </trkpt>
      <trkpt lat="36.752563182356" lon="-3.952109268242">
        <ele>126</ele>
        <time>2019-01-10T14:42:39Z</time>
      </trkpt>
      <trkpt lat="36.752217764257" lon="-3.9523759803">
        <ele>124.6</ele>
        <time>2019-01-10T14:42:44Z</time>
      </trkpt>
      <trkpt lat="36.752105949711" lon="-3.952490979968">
        <ele>123.2</ele>
        <time>2019-01-10T14:42:46Z</time>
      </trkpt>
      <trkpt lat="36.752003690531" lon="-3.952589132017">
        <ele>122</ele>
        <time>2019-01-10T14:42:48Z</time>
      </trkpt>
      <trkpt lat="36.751765560752" lon="-3.952826507425">
        <ele>121.6</ele>
        <time>2019-01-10T14:42:54Z</time>
      </trkpt>
      <trkpt lat="36.751583924979" lon="-3.952978890367">
        <ele>123</ele>
        <time>2019-01-10T14:43:00Z</time>
      </trkpt>
      <trkpt lat="36.751547547533" lon="-3.952999677479">
        <ele>123.2</ele>
        <time>2019-01-10T14:43:01Z</time>
      </trkpt>
      <trkpt lat="36.751504716024" lon="-3.953018452935">
        <ele>123.4</ele>
        <time>2019-01-10T14:43:02Z</time>
      </trkpt>
      <trkpt lat="36.75120833204" lon="-3.953099505908">
        <ele>123.6</ele>
        <time>2019-01-10T14:43:08Z</time>
      </trkpt>
      <trkpt lat="36.750865679968" lon="-3.953161699606">
        <ele>122.2</ele>
        <time>2019-01-10T14:43:14Z</time>
      </trkpt>
      <trkpt lat="36.750495116169" lon="-3.953234035403">
        <ele>121</ele>
        <time>2019-01-10T14:43:20Z</time>
      </trkpt>
      <trkpt lat="36.750094628987" lon="-3.953305868286">
        <ele>120.6</ele>
        <time>2019-01-10T14:43:26Z</time>
      </trkpt>
      <trkpt lat="36.750024304846" lon="-3.953326152484">
        <ele>120.4</ele>
        <time>2019-01-10T14:43:27Z</time>
      </trkpt>
      <trkpt lat="36.749888601885" lon="-3.953379042273">
        <ele>119.6</ele>
        <time>2019-01-10T14:43:29Z</time>
      </trkpt>
      <trkpt lat="36.74968869357" lon="-3.953473254829">
        <ele>118.4</ele>
        <time>2019-01-10T14:43:32Z</time>
      </trkpt>
      <trkpt lat="36.749619039981" lon="-3.953503764945">
        <ele>118.2</ele>
        <time>2019-01-10T14:43:33Z</time>
      </trkpt>
      <trkpt lat="36.749416868553" lon="-3.953614908939">
        <ele>117.2</ele>
        <time>2019-01-10T14:43:36Z</time>
      </trkpt>
      <trkpt lat="36.749019063579" lon="-3.953894445304">
        <ele>116.2</ele>
        <time>2019-01-10T14:43:42Z</time>
      </trkpt>
      <trkpt lat="36.748799122523" lon="-3.954020006166">
        <ele>114.4</ele>
        <time>2019-01-10T14:43:45Z</time>
      </trkpt>
      <trkpt lat="36.748720835577" lon="-3.954054371956">
        <ele>113.4</ele>
        <time>2019-01-10T14:43:46Z</time>
      </trkpt>
      <trkpt lat="36.748558059079" lon="-3.954118493491">
        <ele>111.6</ele>
        <time>2019-01-10T14:43:48Z</time>
      </trkpt>
      <trkpt lat="36.748051457043" lon="-3.95428286255">
        <ele>110.6</ele>
        <time>2019-01-10T14:43:54Z</time>
      </trkpt>
      <trkpt lat="36.747777033637" lon="-3.954400544426">
        <ele>109.6</ele>
        <time>2019-01-10T14:43:58Z</time>
      </trkpt>
      <trkpt lat="36.747732274291" lon="-3.954439101166">
        <ele>108.8</ele>
        <time>2019-01-10T14:43:59Z</time>
      </trkpt>
      <trkpt lat="36.747700590709" lon="-3.954492326231">
        <ele>108</ele>
        <time>2019-01-10T14:44:00Z</time>
      </trkpt>
      <trkpt lat="36.747689275144" lon="-3.954559800526">
        <ele>107.6</ele>
        <time>2019-01-10T14:44:01Z</time>
      </trkpt>
      <trkpt lat="36.747717186871" lon="-3.954778903392">
        <ele>106.6</ele>
        <time>2019-01-10T14:44:04Z</time>
      </trkpt>
      <trkpt lat="36.747735207956" lon="-3.954926760108">
        <ele>106</ele>
        <time>2019-01-10T14:44:06Z</time>
      </trkpt>
      <trkpt lat="36.747733866852" lon="-3.955005466149">
        <ele>105.6</ele>
        <time>2019-01-10T14:44:07Z</time>
      </trkpt>
      <trkpt lat="36.747701177442" lon="-3.955412658851">
        <ele>104.4</ele>
        <time>2019-01-10T14:44:12Z</time>
      </trkpt>
      <trkpt lat="36.747627081446" lon="-3.955785904858">
        <ele>103.4</ele>
        <time>2019-01-10T14:44:16Z</time>
      </trkpt>
      <trkpt lat="36.747576035675" lon="-3.955986567544">
        <ele>101.6</ele>
        <time>2019-01-10T14:44:18Z</time>
      </trkpt>
      <trkpt lat="36.747528761759" lon="-3.956163677091">
        <ele>100.4</ele>
        <time>2019-01-10T14:44:20Z</time>
      </trkpt>
      <trkpt lat="36.747466148966" lon="-3.956334248756">
        <ele>100</ele>
        <time>2019-01-10T14:44:22Z</time>
      </trkpt>
      <trkpt lat="36.747362632501" lon="-3.95649568415">
        <ele>99.8</ele>
        <time>2019-01-10T14:44:24Z</time>
      </trkpt>
      <trkpt lat="36.747237155458" lon="-3.95665158749">
        <ele>99.2</ele>
        <time>2019-01-10T14:44:26Z</time>
      </trkpt>
      <trkpt lat="36.74708779" lon="-3.956816208006">
        <ele>98.2</ele>
        <time>2019-01-10T14:44:28Z</time>
      </trkpt>
      <trkpt lat="36.747001037335" lon="-3.956895584599">
        <ele>97.6</ele>
        <time>2019-01-10T14:44:29Z</time>
      </trkpt>
      <trkpt lat="36.746829124566" lon="-3.957015529588">
        <ele>95.6</ele>
        <time>2019-01-10T14:44:31Z</time>
      </trkpt>
      <trkpt lat="36.74673826477" lon="-3.957057439088">
        <ele>93.8</ele>
        <time>2019-01-10T14:44:32Z</time>
      </trkpt>
      <trkpt lat="36.746640531816" lon="-3.957093397439">
        <ele>91.8</ele>
        <time>2019-01-10T14:44:33Z</time>
      </trkpt>
      <trkpt lat="36.746538943188" lon="-3.957123320822">
        <ele>89.8</ele>
        <time>2019-01-10T14:44:34Z</time>
      </trkpt>
      <trkpt lat="36.746434169438" lon="-3.957143521201">
        <ele>88.8</ele>
        <time>2019-01-10T14:44:35Z</time>
      </trkpt>
      <trkpt lat="36.746222107368" lon="-3.957146706323">
        <ele>87.4</ele>
        <time>2019-01-10T14:44:37Z</time>
      </trkpt>
      <trkpt lat="36.746011302583" lon="-3.957097336932">
        <ele>86</ele>
        <time>2019-01-10T14:44:39Z</time>
      </trkpt>
      <trkpt lat="36.745915413647" lon="-3.957076633639">
        <ele>84.8</ele>
        <time>2019-01-10T14:44:40Z</time>
      </trkpt>
      <trkpt lat="36.745821787824" lon="-3.95704805136">
        <ele>83.4</ele>
        <time>2019-01-10T14:44:41Z</time>
      </trkpt>
      <trkpt lat="36.7457299222" lon="-3.957014942855">
        <ele>82.4</ele>
        <time>2019-01-10T14:44:42Z</time>
      </trkpt>
      <trkpt lat="36.745545101305" lon="-3.956935314805">
        <ele>80.8</ele>
        <time>2019-01-10T14:44:44Z</time>
      </trkpt>
      <trkpt lat="36.745364219903" lon="-3.956855100022">
        <ele>78.8</ele>
        <time>2019-01-10T14:44:46Z</time>
      </trkpt>
      <trkpt lat="36.745269336795" lon="-3.956819309309">
        <ele>77.8</ele>
        <time>2019-01-10T14:44:47Z</time>
      </trkpt>
      <trkpt lat="36.745171352384" lon="-3.956786619899">
        <ele>76.4</ele>
        <time>2019-01-10T14:44:48Z</time>
      </trkpt>
      <trkpt lat="36.745074876715" lon="-3.956761474199">
        <ele>75.2</ele>
        <time>2019-01-10T14:44:49Z</time>
      </trkpt>
      <trkpt lat="36.74498225672" lon="-3.956749320444">
        <ele>74.2</ele>
        <time>2019-01-10T14:44:50Z</time>
      </trkpt>
      <trkpt lat="36.744887122155" lon="-3.956746219141">
        <ele>73.4</ele>
        <time>2019-01-10T14:44:51Z</time>
      </trkpt>
      <trkpt lat="36.74478947302" lon="-3.956758708172">
        <ele>72.6</ele>
        <time>2019-01-10T14:44:52Z</time>
      </trkpt>
      <trkpt lat="36.744688554944" lon="-3.956784692062">
        <ele>72</ele>
        <time>2019-01-10T14:44:53Z</time>
      </trkpt>
      <trkpt lat="36.744586966316" lon="-3.956819309309">
        <ele>71</ele>
        <time>2019-01-10T14:44:54Z</time>
      </trkpt>
      <trkpt lat="36.744483868946" lon="-3.95685359128">
        <ele>70</ele>
        <time>2019-01-10T14:44:55Z</time>
      </trkpt>
      <trkpt lat="36.74438127449" lon="-3.956896087513">
        <ele>68.8</ele>
        <time>2019-01-10T14:44:56Z</time>
      </trkpt>
      <trkpt lat="36.74428069169" lon="-3.95693992485">
        <ele>67.6</ele>
        <time>2019-01-10T14:44:57Z</time>
      </trkpt>
      <trkpt lat="36.744183964564" lon="-3.956986779671">
        <ele>66.4</ele>
        <time>2019-01-10T14:44:58Z</time>
      </trkpt>
      <trkpt lat="36.744087153619" lon="-3.957028856809">
        <ele>65</ele>
        <time>2019-01-10T14:44:59Z</time>
      </trkpt>
      <trkpt lat="36.743986319362" lon="-3.957060121296">
        <ele>63.4</ele>
        <time>2019-01-10T14:45:00Z</time>
      </trkpt>
      <trkpt lat="36.743882467621" lon="-3.957081076046">
        <ele>62</ele>
        <time>2019-01-10T14:45:01Z</time>
      </trkpt>
      <trkpt lat="36.743776604224" lon="-3.957089709403">
        <ele>61.2</ele>
        <time>2019-01-10T14:45:02Z</time>
      </trkpt>
      <trkpt lat="36.743669232085" lon="-3.957081662779">
        <ele>60.4</ele>
        <time>2019-01-10T14:45:03Z</time>
      </trkpt>
      <trkpt lat="36.743560267385" lon="-3.957057439088">
        <ele>59.6</ele>
        <time>2019-01-10T14:45:04Z</time>
      </trkpt>
      <trkpt lat="36.743449039572" lon="-3.957022821841">
        <ele>58.8</ele>
        <time>2019-01-10T14:45:05Z</time>
      </trkpt>
      <trkpt lat="36.743226919222" lon="-3.956937075004">
        <ele>57.2</ele>
        <time>2019-01-10T14:45:07Z</time>
      </trkpt>
      <trkpt lat="36.742906479185" lon="-3.956802880785">
        <ele>55.4</ele>
        <time>2019-01-10T14:45:10Z</time>
      </trkpt>
      <trkpt lat="36.742801956892" lon="-3.956763150579">
        <ele>54</ele>
        <time>2019-01-10T14:45:11Z</time>
      </trkpt>
      <trkpt lat="36.742695506762" lon="-3.956719397061">
        <ele>52.4</ele>
        <time>2019-01-10T14:45:12Z</time>
      </trkpt>
      <trkpt lat="36.742587044976" lon="-3.956673212792">
        <ele>51.4</ele>
        <time>2019-01-10T14:45:13Z</time>
      </trkpt>
      <trkpt lat="36.742378503304" lon="-3.956590651077">
        <ele>49.6</ele>
        <time>2019-01-10T14:45:15Z</time>
      </trkpt>
      <trkpt lat="36.742276495581" lon="-3.956550837052">
        <ele>48.6</ele>
        <time>2019-01-10T14:45:16Z</time>
      </trkpt>
      <trkpt lat="36.742176080419" lon="-3.956510520113">
        <ele>47.6</ele>
        <time>2019-01-10T14:45:17Z</time>
      </trkpt>
      <trkpt lat="36.741974831" lon="-3.956432149348">
        <ele>46</ele>
        <time>2019-01-10T14:45:19Z</time>
      </trkpt>
      <trkpt lat="36.741875337847" lon="-3.956396610092">
        <ele>44.8</ele>
        <time>2019-01-10T14:45:20Z</time>
      </trkpt>
      <trkpt lat="36.741773749219" lon="-3.95636827927">
        <ele>43.8</ele>
        <time>2019-01-10T14:45:21Z</time>
      </trkpt>
      <trkpt lat="36.741667299089" lon="-3.9563490009">
        <ele>42.6</ele>
        <time>2019-01-10T14:45:22Z</time>
      </trkpt>
      <trkpt lat="36.741451129888" lon="-3.956332404738">
        <ele>40.6</ele>
        <time>2019-01-10T14:45:24Z</time>
      </trkpt>
      <trkpt lat="36.741345769405" lon="-3.956344558493">
        <ele>39.8</ele>
        <time>2019-01-10T14:45:25Z</time>
      </trkpt>
      <trkpt lat="36.741248874641" lon="-3.956363753044">
        <ele>39</ele>
        <time>2019-01-10T14:45:26Z</time>
      </trkpt>
      <trkpt lat="36.741085259953" lon="-3.956422007249">
        <ele>38</ele>
        <time>2019-01-10T14:45:28Z</time>
      </trkpt>
      <trkpt lat="36.740955089046" lon="-3.956514375787">
        <ele>36.6</ele>
        <time>2019-01-10T14:45:30Z</time>
      </trkpt>
      <trkpt lat="36.740904713827" lon="-3.956687210565">
        <ele>35.6</ele>
        <time>2019-01-10T14:45:32Z</time>
      </trkpt>
      <trkpt lat="36.740910748795" lon="-3.956859207153">
        <ele>35.2</ele>
        <time>2019-01-10T14:45:34Z</time>
      </trkpt>
      <trkpt lat="36.740870850951" lon="-3.95698686349">
        <ele>35.8</ele>
        <time>2019-01-10T14:45:36Z</time>
      </trkpt>
      <trkpt lat="36.740772112169" lon="-3.957089290308">
        <ele>36.6</ele>
        <time>2019-01-10T14:45:38Z</time>
      </trkpt>
      <trkpt lat="36.740647640954" lon="-3.957155088223">
        <ele>36.8</ele>
        <time>2019-01-10T14:45:40Z</time>
      </trkpt>
      <trkpt lat="36.740440775662" lon="-3.957226921106">
        <ele>36.2</ele>
        <time>2019-01-10T14:45:43Z</time>
      </trkpt>
      <trkpt lat="36.740323512881" lon="-3.957340160575">
        <ele>35.4</ele>
        <time>2019-01-10T14:45:45Z</time>
      </trkpt>
      <trkpt lat="36.740215302552" lon="-3.957462368677">
        <ele>35</ele>
        <time>2019-01-10T14:45:47Z</time>
      </trkpt>
      <trkpt lat="36.740090328423" lon="-3.957544008383">
        <ele>35</ele>
        <time>2019-01-10T14:45:49Z</time>
      </trkpt>
      <trkpt lat="36.739953368177" lon="-3.957589857376">
        <ele>35.2</ele>
        <time>2019-01-10T14:45:51Z</time>
      </trkpt>
      <trkpt lat="36.739570231528" lon="-3.957631263962">
        <ele>36</ele>
        <time>2019-01-10T14:45:57Z</time>
      </trkpt>
      <trkpt lat="36.739403431718" lon="-3.957674682204">
        <ele>36.4</ele>
        <time>2019-01-10T14:46:00Z</time>
      </trkpt>
      <trkpt lat="36.739121045507" lon="-3.957876937451">
        <ele>36</ele>
        <time>2019-01-10T14:46:06Z</time>
      </trkpt>
      <trkpt lat="36.738997747758" lon="-3.957984896323">
        <ele>36.4</ele>
        <time>2019-01-10T14:46:09Z</time>
      </trkpt>
      <trkpt lat="36.738818123641" lon="-3.958143398052">
        <ele>37.6</ele>
        <time>2019-01-10T14:46:13Z</time>
      </trkpt>
      <trkpt lat="36.738536324163" lon="-3.958396615251">
        <ele>38.6</ele>
        <time>2019-01-10T14:46:19Z</time>
      </trkpt>
      <trkpt lat="36.738491900093" lon="-3.958433411792">
        <ele>38.6</ele>
        <time>2019-01-10T14:46:20Z</time>
      </trkpt>
      <trkpt lat="36.738225942406" lon="-3.958644132758">
        <ele>38.4</ele>
        <time>2019-01-10T14:46:26Z</time>
      </trkpt>
      <trkpt lat="36.737946657498" lon="-3.958825265617">
        <ele>37.8</ele>
        <time>2019-01-10T14:46:32Z</time>
      </trkpt>
      <trkpt lat="36.737621020683" lon="-3.959022324086">
        <ele>38</ele>
        <time>2019-01-10T14:46:38Z</time>
      </trkpt>
      <trkpt lat="36.737496465649" lon="-3.959095581892">
        <ele>37.2</ele>
        <time>2019-01-10T14:46:40Z</time>
      </trkpt>
      <trkpt lat="36.737291192918" lon="-3.959215862157">
        <ele>36</ele>
        <time>2019-01-10T14:46:43Z</time>
      </trkpt>
      <trkpt lat="36.736873019927" lon="-3.959383919252">
        <ele>35.6</ele>
        <time>2019-01-10T14:46:49Z</time>
      </trkpt>
      <trkpt lat="36.736442357905" lon="-3.959467235338">
        <ele>35.8</ele>
        <time>2019-01-10T14:46:55Z</time>
      </trkpt>
      <trkpt lat="36.736224344686" lon="-3.959499924748">
        <ele>34.8</ele>
        <time>2019-01-10T14:46:58Z</time>
      </trkpt>
      <trkpt lat="36.735795275225" lon="-3.959585001033">
        <ele>34.2</ele>
        <time>2019-01-10T14:47:04Z</time>
      </trkpt>
      <trkpt lat="36.735659153169" lon="-3.959630766207">
        <ele>33.4</ele>
        <time>2019-01-10T14:47:06Z</time>
      </trkpt>
      <trkpt lat="36.735364110289" lon="-3.959723218564">
        <ele>32.4</ele>
        <time>2019-01-10T14:47:10Z</time>
      </trkpt>
      <trkpt lat="36.735058757672" lon="-3.95980988741">
        <ele>31.2</ele>
        <time>2019-01-10T14:47:14Z</time>
      </trkpt>
      <trkpt lat="36.734661874707" lon="-3.959906614536">
        <ele>30</ele>
        <time>2019-01-10T14:47:19Z</time>
      </trkpt>
      <trkpt lat="36.734344116878" lon="-3.959991942278">
        <ele>28.8</ele>
        <time>2019-01-10T14:47:23Z</time>
      </trkpt>
      <trkpt lat="36.734182430027" lon="-3.960043993877">
        <ele>27.6</ele>
        <time>2019-01-10T14:47:25Z</time>
      </trkpt>
      <trkpt lat="36.733538532469" lon="-3.96025077535">
        <ele>25</ele>
        <time>2019-01-10T14:47:33Z</time>
      </trkpt>
      <trkpt lat="36.733387155355" lon="-3.96030274313">
        <ele>23</ele>
        <time>2019-01-10T14:47:35Z</time>
      </trkpt>
      <trkpt lat="36.733243238132" lon="-3.96034632901">
        <ele>22</ele>
        <time>2019-01-10T14:47:37Z</time>
      </trkpt>
      <trkpt lat="36.733170315602" lon="-3.960359069498">
        <ele>22</ele>
        <time>2019-01-10T14:47:38Z</time>
      </trkpt>
      <trkpt lat="36.732727751282" lon="-3.960333169427">
        <ele>22.4</ele>
        <time>2019-01-10T14:47:44Z</time>
      </trkpt>
      <trkpt lat="36.732381830269" lon="-3.960291259927">
        <ele>21.6</ele>
        <time>2019-01-10T14:47:49Z</time>
      </trkpt>
      <trkpt lat="36.732247887507" lon="-3.960296372886">
        <ele>21</ele>
        <time>2019-01-10T14:47:51Z</time>
      </trkpt>
      <trkpt lat="36.73218560999" lon="-3.9602717301">
        <ele>20.8</ele>
        <time>2019-01-10T14:47:52Z</time>
      </trkpt>
      <trkpt lat="36.732122326645" lon="-3.96024826078">
        <ele>20.6</ele>
        <time>2019-01-10T14:47:53Z</time>
      </trkpt>
      <trkpt lat="36.731753858321" lon="-3.960156227518">
        <ele>20.8</ele>
        <time>2019-01-10T14:47:59Z</time>
      </trkpt>
      <trkpt lat="36.731417492674" lon="-3.96009990115">
        <ele>21</ele>
        <time>2019-01-10T14:48:05Z</time>
      </trkpt>
      <trkpt lat="36.731070398195" lon="-3.960044496791">
        <ele>21.4</ele>
        <time>2019-01-10T14:48:11Z</time>
      </trkpt>
      <trkpt lat="36.730668737547" lon="-3.959989008613">
        <ele>20.6</ele>
        <time>2019-01-10T14:48:17Z</time>
      </trkpt>
      <trkpt lat="36.730363804025" lon="-3.959947853484">
        <ele>19.6</ele>
        <time>2019-01-10T14:48:23Z</time>
      </trkpt>
      <trkpt lat="36.730254839325" lon="-3.96004038966">
        <ele>18.4</ele>
        <time>2019-01-10T14:48:29Z</time>
      </trkpt>
      <trkpt lat="36.730217958965" lon="-3.960068217568">
        <ele>18.4</ele>
        <time>2019-01-10T14:48:30Z</time>
      </trkpt>
      <trkpt lat="36.73012533897" lon="-3.960079616952">
        <ele>18.4</ele>
        <time>2019-01-10T14:48:32Z</time>
      </trkpt>
      <trkpt lat="36.730041436151" lon="-3.960000407997">
        <ele>18</ele>
        <time>2019-01-10T14:48:34Z</time>
      </trkpt>
      <trkpt lat="36.729997850271" lon="-3.959878954266">
        <ele>17.6</ele>
        <time>2019-01-10T14:48:36Z</time>
      </trkpt>
      <trkpt lat="36.729968765078" lon="-3.959750962653">
        <ele>17.4</ele>
        <time>2019-01-10T14:48:38Z</time>
      </trkpt>
      <trkpt lat="36.729886622458" lon="-3.959359863199">
        <ele>17.2</ele>
        <time>2019-01-10T14:48:44Z</time>
      </trkpt>
      <trkpt lat="36.729759971949" lon="-3.958956777628">
        <ele>17.6</ele>
        <time>2019-01-10T14:48:50Z</time>
      </trkpt>
      <trkpt lat="36.72962242497" lon="-3.958517649887">
        <ele>17.4</ele>
        <time>2019-01-10T14:48:56Z</time>
      </trkpt>
      <trkpt lat="36.729531146079" lon="-3.958041809424">
        <ele>17.4</ele>
        <time>2019-01-10T14:49:02Z</time>
      </trkpt>
      <trkpt lat="36.729490996778" lon="-3.95752833423">
        <ele>16.4</ele>
        <time>2019-01-10T14:49:08Z</time>
      </trkpt>
      <trkpt lat="36.729504156361" lon="-3.956984097463">
        <ele>15.8</ele>
        <time>2019-01-10T14:49:14Z</time>
      </trkpt>
      <trkpt lat="36.729523434731" lon="-3.956710847523">
        <ele>15.2</ele>
        <time>2019-01-10T14:49:17Z</time>
      </trkpt>
      <trkpt lat="36.729580431651" lon="-3.956176166122">
        <ele>14.6</ele>
        <time>2019-01-10T14:49:23Z</time>
      </trkpt>
      <trkpt lat="36.729620664771" lon="-3.955693284863">
        <ele>14.6</ele>
        <time>2019-01-10T14:49:29Z</time>
      </trkpt>
      <trkpt lat="36.729654108552" lon="-3.955256671692">
        <ele>14.6</ele>
        <time>2019-01-10T14:49:35Z</time>
      </trkpt>
      <trkpt lat="36.729691324188" lon="-3.954868002989">
        <ele>15.6</ele>
        <time>2019-01-10T14:49:41Z</time>
      </trkpt>
      <trkpt lat="36.729722085761" lon="-3.954501294864">
        <ele>14.8</ele>
        <time>2019-01-10T14:49:47Z</time>
      </trkpt>
      <trkpt lat="36.729720074105" lon="-3.954439101166">
        <ele>14.8</ele>
        <time>2019-01-10T14:49:48Z</time>
      </trkpt>
      <trkpt lat="36.729700460459" lon="-3.954251430425">
        <ele>15.2</ele>
        <time>2019-01-10T14:49:51Z</time>
      </trkpt>
      <trkpt lat="36.729633740535" lon="-3.953949095292">
        <ele>15.2</ele>
        <time>2019-01-10T14:49:56Z</time>
      </trkpt>
      <trkpt lat="36.72964840886" lon="-3.953825546086">
        <ele>15.2</ele>
        <time>2019-01-10T14:49:58Z</time>
      </trkpt>
      <trkpt lat="36.729805653304" lon="-3.953464956748">
        <ele>16</ele>
        <time>2019-01-10T14:50:04Z</time>
      </trkpt>
      <trkpt lat="36.729840438189" lon="-3.953333277099">
        <ele>16.2</ele>
        <time>2019-01-10T14:50:06Z</time>
      </trkpt>
      <trkpt lat="36.729879581662" lon="-3.953053321639">
        <ele>16.2</ele>
        <time>2019-01-10T14:50:10Z</time>
      </trkpt>
      <trkpt lat="36.72993758441" lon="-3.952620145047">
        <ele>15.4</ele>
        <time>2019-01-10T14:50:16Z</time>
      </trkpt>
      <trkpt lat="36.729988630181" lon="-3.95224773723">
        <ele>15.2</ele>
        <time>2019-01-10T14:50:21Z</time>
      </trkpt>
      <trkpt lat="36.730058032313" lon="-3.951823864547">
        <ele>14.4</ele>
        <time>2019-01-10T14:50:27Z</time>
      </trkpt>
      <trkpt lat="36.730155932905" lon="-3.951372583051">
        <ele>14.4</ele>
        <time>2019-01-10T14:50:33Z</time>
      </trkpt>
      <trkpt lat="36.730194573464" lon="-3.951204023042">
        <ele>14</ele>
        <time>2019-01-10T14:50:35Z</time>
      </trkpt>
      <trkpt lat="36.730273950057" lon="-3.950862292979">
        <ele>12.8</ele>
        <time>2019-01-10T14:50:39Z</time>
      </trkpt>
      <trkpt lat="36.730318206489" lon="-3.950688536192">
        <ele>11.4</ele>
        <time>2019-01-10T14:50:41Z</time>
      </trkpt>
      <trkpt lat="36.730382328024" lon="-3.950429619301">
        <ele>10.2</ele>
        <time>2019-01-10T14:50:44Z</time>
      </trkpt>
      <trkpt lat="36.730494813122" lon="-3.950014044699">
        <ele>9.2</ele>
        <time>2019-01-10T14:50:49Z</time>
      </trkpt>
      <trkpt lat="36.730627750056" lon="-3.949528229775">
        <ele>8.6</ele>
        <time>2019-01-10T14:50:55Z</time>
      </trkpt>
      <trkpt lat="36.730734619281" lon="-3.949126988222">
        <ele>8.2</ele>
        <time>2019-01-10T14:51:00Z</time>
      </trkpt>
      <trkpt lat="36.73086126979" lon="-3.94866112222">
        <ele>8</ele>
        <time>2019-01-10T14:51:06Z</time>
      </trkpt>
      <trkpt lat="36.730987752661" lon="-3.948204392489">
        <ele>8</ele>
        <time>2019-01-10T14:51:12Z</time>
      </trkpt>
      <trkpt lat="36.731110463677" lon="-3.947752105165">
        <ele>8.2</ele>
        <time>2019-01-10T14:51:18Z</time>
      </trkpt>
      <trkpt lat="36.731220518024" lon="-3.94732001822">
        <ele>8.8</ele>
        <time>2019-01-10T14:51:24Z</time>
      </trkpt>
      <trkpt lat="36.731331410561" lon="-3.946890948759">
        <ele>8.8</ele>
        <time>2019-01-10T14:51:30Z</time>
      </trkpt>
      <trkpt lat="36.731368039464" lon="-3.946746947717">
        <ele>9.2</ele>
        <time>2019-01-10T14:51:32Z</time>
      </trkpt>
      <trkpt lat="36.731485972797" lon="-3.946319470817">
        <ele>8.6</ele>
        <time>2019-01-10T14:51:38Z</time>
      </trkpt>
      <trkpt lat="36.731520757682" lon="-3.94618427077">
        <ele>8.2</ele>
        <time>2019-01-10T14:51:40Z</time>
      </trkpt>
      <trkpt lat="36.731587645244" lon="-3.945949829027">
        <ele>8.4</ele>
        <time>2019-01-10T14:51:44Z</time>
      </trkpt>
      <trkpt lat="36.731703231645" lon="-3.945572727346">
        <ele>8.8</ele>
        <time>2019-01-10T14:51:50Z</time>
      </trkpt>
      <trkpt lat="36.731726449508" lon="-3.945422104603">
        <ele>8.6</ele>
        <time>2019-01-10T14:51:52Z</time>
      </trkpt>
      <trkpt lat="36.731822086987" lon="-3.945025808371">
        <ele>9.2</ele>
        <time>2019-01-10T14:51:58Z</time>
      </trkpt>
      <trkpt lat="36.731920239036" lon="-3.94461014995">
        <ele>8.4</ele>
        <time>2019-01-10T14:52:04Z</time>
      </trkpt>
      <trkpt lat="36.732026940623" lon="-3.944208070207">
        <ele>8.2</ele>
        <time>2019-01-10T14:52:10Z</time>
      </trkpt>
      <trkpt lat="36.73213280402" lon="-3.943808505034">
        <ele>8.6</ele>
        <time>2019-01-10T14:52:16Z</time>
      </trkpt>
      <trkpt lat="36.732229531146" lon="-3.943397875753">
        <ele>8.6</ele>
        <time>2019-01-10T14:52:22Z</time>
      </trkpt>
      <trkpt lat="36.732348637945" lon="-3.94298573773">
        <ele>8.8</ele>
        <time>2019-01-10T14:52:28Z</time>
      </trkpt>
      <trkpt lat="36.732480149956" lon="-3.942565133988">
        <ele>8.6</ele>
        <time>2019-01-10T14:52:34Z</time>
      </trkpt>
      <trkpt lat="36.732602274239" lon="-3.942154839983">
        <ele>8.6</ele>
        <time>2019-01-10T14:52:40Z</time>
      </trkpt>
      <trkpt lat="36.732724314703" lon="-3.941782599804">
        <ele>8.2</ele>
        <time>2019-01-10T14:52:46Z</time>
      </trkpt>
      <trkpt lat="36.732850043203" lon="-3.941392589997">
        <ele>8.2</ele>
        <time>2019-01-10T14:52:52Z</time>
      </trkpt>
      <trkpt lat="36.732986416716" lon="-3.94099000734">
        <ele>8.4</ele>
        <time>2019-01-10T14:52:58Z</time>
      </trkpt>
      <trkpt lat="36.733106529343" lon="-3.940595974221">
        <ele>8.2</ele>
        <time>2019-01-10T14:53:04Z</time>
      </trkpt>
      <trkpt lat="36.733222786296" lon="-3.940207724613">
        <ele>8</ele>
        <time>2019-01-10T14:53:10Z</time>
      </trkpt>
      <trkpt lat="36.733338288878" lon="-3.939822576308">
        <ele>8.2</ele>
        <time>2019-01-10T14:53:16Z</time>
      </trkpt>
      <trkpt lat="36.733449097596" lon="-3.93944354679">
        <ele>9</ele>
        <time>2019-01-10T14:53:22Z</time>
      </trkpt>
      <trkpt lat="36.733568539671" lon="-3.93906468491">
        <ele>8.8</ele>
        <time>2019-01-10T14:53:28Z</time>
      </trkpt>
      <trkpt lat="36.733689071393" lon="-3.938691606541">
        <ele>8.8</ele>
        <time>2019-01-10T14:53:34Z</time>
      </trkpt>
      <trkpt lat="36.733800634482" lon="-3.938316851792">
        <ele>9</ele>
        <time>2019-01-10T14:53:40Z</time>
      </trkpt>
      <trkpt lat="36.733929129009" lon="-3.937937067903">
        <ele>8.6</ele>
        <time>2019-01-10T14:53:46Z</time>
      </trkpt>
      <trkpt lat="36.734063826142" lon="-3.937553847435">
        <ele>9</ele>
        <time>2019-01-10T14:53:52Z</time>
      </trkpt>
      <trkpt lat="36.734085870539" lon="-3.937490899366">
        <ele>9.2</ele>
        <time>2019-01-10T14:53:53Z</time>
      </trkpt>
      <trkpt lat="36.734108250212" lon="-3.937429711496">
        <ele>9.4</ele>
        <time>2019-01-10T14:53:54Z</time>
      </trkpt>
      <trkpt lat="36.734251580702" lon="-3.937061662267">
        <ele>9.2</ele>
        <time>2019-01-10T14:54:00Z</time>
      </trkpt>
      <trkpt lat="36.734382254523" lon="-3.936711550304">
        <ele>9.4</ele>
        <time>2019-01-10T14:54:06Z</time>
      </trkpt>
      <trkpt lat="36.734491973594" lon="-3.936378788874">
        <ele>10</ele>
        <time>2019-01-10T14:54:12Z</time>
      </trkpt>
      <trkpt lat="36.734580067363" lon="-3.936048961109">
        <ele>10.2</ele>
        <time>2019-01-10T14:54:18Z</time>
      </trkpt>
      <trkpt lat="36.734608398185" lon="-3.935940415504">
        <ele>10.4</ele>
        <time>2019-01-10T14:54:20Z</time>
      </trkpt>
      <trkpt lat="36.734683919104" lon="-3.935625088426">
        <ele>11</ele>
        <time>2019-01-10T14:54:26Z</time>
      </trkpt>
      <trkpt lat="36.734762289869" lon="-3.935328452985">
        <ele>11</ele>
        <time>2019-01-10T14:54:32Z</time>
      </trkpt>
      <trkpt lat="36.734842337014" lon="-3.935037265779">
        <ele>10.8</ele>
        <time>2019-01-10T14:54:38Z</time>
      </trkpt>
      <trkpt lat="36.734907464377" lon="-3.934791843747">
        <ele>11.4</ele>
        <time>2019-01-10T14:54:43Z</time>
      </trkpt>
      <trkpt lat="36.734979716355" lon="-3.934482132542">
        <ele>12</ele>
        <time>2019-01-10T14:54:49Z</time>
      </trkpt>
      <trkpt lat="36.735063367717" lon="-3.934215420484">
        <ele>12.6</ele>
        <time>2019-01-10T14:54:54Z</time>
      </trkpt>
      <trkpt lat="36.735179876127" lon="-3.933882826692">
        <ele>13.2</ele>
        <time>2019-01-10T14:55:00Z</time>
      </trkpt>
      <trkpt lat="36.735292612682" lon="-3.933607984191">
        <ele>14</ele>
        <time>2019-01-10T14:55:05Z</time>
      </trkpt>
      <trkpt lat="36.735483636183" lon="-3.933264996843">
        <ele>13.4</ele>
        <time>2019-01-10T14:55:11Z</time>
      </trkpt>
      <trkpt lat="36.735541136017" lon="-3.933153852849">
        <ele>12.8</ele>
        <time>2019-01-10T14:55:13Z</time>
      </trkpt>
      <trkpt lat="36.735733249165" lon="-3.932795358986">
        <ele>12.2</ele>
        <time>2019-01-10T14:55:19Z</time>
      </trkpt>
      <trkpt lat="36.7359314811" lon="-3.932425046644">
        <ele>11.6</ele>
        <time>2019-01-10T14:55:25Z</time>
      </trkpt>
      <trkpt lat="36.736135496546" lon="-3.932046939135">
        <ele>10.6</ele>
        <time>2019-01-10T14:55:31Z</time>
      </trkpt>
      <trkpt lat="36.736309756247" lon="-3.9316726873">
        <ele>11.2</ele>
        <time>2019-01-10T14:55:37Z</time>
      </trkpt>
      <trkpt lat="36.736454008746" lon="-3.93126700334">
        <ele>11.2</ele>
        <time>2019-01-10T14:55:43Z</time>
      </trkpt>
      <trkpt lat="36.736537073375" lon="-3.930882106492">
        <ele>11.4</ele>
        <time>2019-01-10T14:55:49Z</time>
      </trkpt>
      <trkpt lat="36.73657604921" lon="-3.930700973633">
        <ele>11</ele>
        <time>2019-01-10T14:55:52Z</time>
      </trkpt>
      <trkpt lat="36.736666406092" lon="-3.930331918576">
        <ele>11</ele>
        <time>2019-01-10T14:55:58Z</time>
      </trkpt>
      <trkpt lat="36.736684930091" lon="-3.930207698818">
        <ele>11.8</ele>
        <time>2019-01-10T14:56:00Z</time>
      </trkpt>
      <trkpt lat="36.736737316966" lon="-3.929847780032">
        <ele>12.8</ele>
        <time>2019-01-10T14:56:06Z</time>
      </trkpt>
      <trkpt lat="36.73679733137" lon="-3.92952775909">
        <ele>13.6</ele>
        <time>2019-01-10T14:56:12Z</time>
      </trkpt>
      <trkpt lat="36.73685684286" lon="-3.929377639261">
        <ele>13.8</ele>
        <time>2019-01-10T14:56:15Z</time>
      </trkpt>
      <trkpt lat="36.736979721514" lon="-3.929072538101">
        <ele>14</ele>
        <time>2019-01-10T14:56:21Z</time>
      </trkpt>
      <trkpt lat="36.737107713127" lon="-3.92877757904">
        <ele>14.2</ele>
        <time>2019-01-10T14:56:26Z</time>
      </trkpt>
      <trkpt lat="36.737255486024" lon="-3.92840877544">
        <ele>14.8</ele>
        <time>2019-01-10T14:56:32Z</time>
      </trkpt>
      <trkpt lat="36.737331677495" lon="-3.928032511949">
        <ele>15.2</ele>
        <time>2019-01-10T14:56:38Z</time>
      </trkpt>
      <trkpt lat="36.737368306398" lon="-3.927622804677">
        <ele>15.2</ele>
        <time>2019-01-10T14:56:44Z</time>
      </trkpt>
      <trkpt lat="36.737400409075" lon="-3.92723530944">
        <ele>15.6</ele>
        <time>2019-01-10T14:56:50Z</time>
      </trkpt>
      <trkpt lat="36.737413652477" lon="-3.927100612307">
        <ele>16</ele>
        <time>2019-01-10T14:56:52Z</time>
      </trkpt>
      <trkpt lat="36.737488167568" lon="-3.926753434009">
        <ele>16.6</ele>
        <time>2019-01-10T14:56:58Z</time>
      </trkpt>
      <trkpt lat="36.737593528051" lon="-3.926488649788">
        <ele>15.8</ele>
        <time>2019-01-10T14:57:03Z</time>
      </trkpt>
      <trkpt lat="36.737811373632" lon="-3.926220512807">
        <ele>15.4</ele>
        <time>2019-01-10T14:57:09Z</time>
      </trkpt>
      <trkpt lat="36.738004827884" lon="-3.926064860924">
        <ele>15</ele>
        <time>2019-01-10T14:57:13Z</time>
      </trkpt>
      <trkpt lat="36.738319987324" lon="-3.925819355073">
        <ele>15.4</ele>
        <time>2019-01-10T14:57:19Z</time>
      </trkpt>
      <trkpt lat="36.738627770692" lon="-3.925553565024">
        <ele>14.8</ele>
        <time>2019-01-10T14:57:25Z</time>
      </trkpt>
      <trkpt lat="36.738920969554" lon="-3.925211248228">
        <ele>14.4</ele>
        <time>2019-01-10T14:57:31Z</time>
      </trkpt>
      <trkpt lat="36.739050302271" lon="-3.925015279406">
        <ele>13.8</ele>
        <time>2019-01-10T14:57:34Z</time>
      </trkpt>
      <trkpt lat="36.739281558892" lon="-3.924603644297">
        <ele>12.8</ele>
        <time>2019-01-10T14:57:40Z</time>
      </trkpt>
      <trkpt lat="36.739512647875" lon="-3.924166276755">
        <ele>12.8</ele>
        <time>2019-01-10T14:57:46Z</time>
      </trkpt>
      <trkpt lat="36.739750610016" lon="-3.92372077877">
        <ele>12.4</ele>
        <time>2019-01-10T14:57:52Z</time>
      </trkpt>
      <trkpt lat="36.73993719111" lon="-3.923366308219">
        <ele>11.6</ele>
        <time>2019-01-10T14:57:57Z</time>
      </trkpt>
      <trkpt lat="36.740166352256" lon="-3.922937322577">
        <ele>11.4</ele>
        <time>2019-01-10T14:58:03Z</time>
      </trkpt>
      <trkpt lat="36.740395345764" lon="-3.922500709406">
        <ele>11.2</ele>
        <time>2019-01-10T14:58:09Z</time>
      </trkpt>
      <trkpt lat="36.740626267109" lon="-3.922065521158">
        <ele>10.8</ele>
        <time>2019-01-10T14:58:15Z</time>
      </trkpt>
      <trkpt lat="36.74066390184" lon="-3.921991089886">
        <ele>10.6</ele>
        <time>2019-01-10T14:58:16Z</time>
      </trkpt>
      <trkpt lat="36.740863810155" lon="-3.92152136821">
        <ele>10.4</ele>
        <time>2019-01-10T14:58:22Z</time>
      </trkpt>
      <trkpt lat="36.740994567795" lon="-3.921023315712">
        <ele>9.6</ele>
        <time>2019-01-10T14:58:28Z</time>
      </trkpt>
      <trkpt lat="36.741007811197" lon="-3.920939915807">
        <ele>9.4</ele>
        <time>2019-01-10T14:58:29Z</time>
      </trkpt>
      <trkpt lat="36.74106539485" lon="-3.920441695671">
        <ele>9.2</ele>
        <time>2019-01-10T14:58:35Z</time>
      </trkpt>
      <trkpt lat="36.741099090088" lon="-3.919957808584">
        <ele>8.8</ele>
        <time>2019-01-10T14:58:41Z</time>
      </trkpt>
      <trkpt lat="36.741132785326" lon="-3.919489763288">
        <ele>9.2</ele>
        <time>2019-01-10T14:58:47Z</time>
      </trkpt>
      <trkpt lat="36.741161116148" lon="-3.91903864943">
        <ele>10.2</ele>
        <time>2019-01-10T14:58:53Z</time>
      </trkpt>
      <trkpt lat="36.74119363792" lon="-3.918588876676">
        <ele>10</ele>
        <time>2019-01-10T14:58:59Z</time>
      </trkpt>
      <trkpt lat="36.741234793049" lon="-3.918124938511">
        <ele>10.2</ele>
        <time>2019-01-10T14:59:05Z</time>
      </trkpt>
      <trkpt lat="36.741252981772" lon="-3.917676255404">
        <ele>10.4</ele>
        <time>2019-01-10T14:59:11Z</time>
      </trkpt>
      <trkpt lat="36.74127578054" lon="-3.917203935339">
        <ele>9.6</ele>
        <time>2019-01-10T14:59:17Z</time>
      </trkpt>
      <trkpt lat="36.741307212665" lon="-3.916769417643">
        <ele>9.4</ele>
        <time>2019-01-10T14:59:23Z</time>
      </trkpt>
      <trkpt lat="36.741334789116" lon="-3.916498011721">
        <ele>9.8</ele>
        <time>2019-01-10T14:59:27Z</time>
      </trkpt>
      <trkpt lat="36.741412824605" lon="-3.916124095162">
        <ele>10.2</ele>
        <time>2019-01-10T14:59:33Z</time>
      </trkpt>
      <trkpt lat="36.741560094588" lon="-3.915733079527">
        <ele>10</ele>
        <time>2019-01-10T14:59:39Z</time>
      </trkpt>
      <trkpt lat="36.741705352915" lon="-3.915294287062">
        <ele>10.2</ele>
        <time>2019-01-10T14:59:45Z</time>
      </trkpt>
      <trkpt lat="36.741849353957" lon="-3.914868402723">
        <ele>9.6</ele>
        <time>2019-01-10T14:59:51Z</time>
      </trkpt>
      <trkpt lat="36.742002155994" lon="-3.914488032101">
        <ele>10.2</ele>
        <time>2019-01-10T14:59:57Z</time>
      </trkpt>
      <trkpt lat="36.742191754572" lon="-3.9141293706">
        <ele>10</ele>
        <time>2019-01-10T15:00:03Z</time>
      </trkpt>
      <trkpt lat="36.742266604939" lon="-3.914013951837">
        <ele>9.8</ele>
        <time>2019-01-10T15:00:05Z</time>
      </trkpt>
      <trkpt lat="36.742423346469" lon="-3.913780432103">
        <ele>9.6</ele>
        <time>2019-01-10T15:00:09Z</time>
      </trkpt>
      <trkpt lat="36.742662649714" lon="-3.913424955724">
        <ele>9.4</ele>
        <time>2019-01-10T15:00:15Z</time>
      </trkpt>
      <trkpt lat="36.742862306572" lon="-3.913061600359">
        <ele>9.4</ele>
        <time>2019-01-10T15:00:21Z</time>
      </trkpt>
      <trkpt lat="36.742976216593" lon="-3.912749458403">
        <ele>10</ele>
        <time>2019-01-10T15:00:26Z</time>
      </trkpt>
      <trkpt lat="36.74303011221" lon="-3.912393562929">
        <ele>9.8</ele>
        <time>2019-01-10T15:00:32Z</time>
      </trkpt>
      <trkpt lat="36.743053832987" lon="-3.912056107635">
        <ele>10.2</ele>
        <time>2019-01-10T15:00:38Z</time>
      </trkpt>
      <trkpt lat="36.743055174091" lon="-3.911999948905">
        <ele>10.6</ele>
        <time>2019-01-10T15:00:39Z</time>
      </trkpt>
      <trkpt lat="36.743034722255" lon="-3.911675485556">
        <ele>11.8</ele>
        <time>2019-01-10T15:00:45Z</time>
      </trkpt>
      <trkpt lat="36.742996836067" lon="-3.911409024955">
        <ele>12.8</ele>
        <time>2019-01-10T15:00:51Z</time>
      </trkpt>
      <trkpt lat="36.742969511073" lon="-3.911194196858">
        <ele>14</ele>
        <time>2019-01-10T15:00:56Z</time>
      </trkpt>
      <trkpt lat="36.742953585463" lon="-3.911007615764">
        <ele>15.2</ele>
        <time>2019-01-10T15:01:00Z</time>
      </trkpt>
      <trkpt lat="36.742926009012" lon="-3.910736964213">
        <ele>16.4</ele>
        <time>2019-01-10T15:01:06Z</time>
      </trkpt>
      <trkpt lat="36.742902120597" lon="-3.91052934455">
        <ele>17.6</ele>
        <time>2019-01-10T15:01:11Z</time>
      </trkpt>
      <trkpt lat="36.742897510552" lon="-3.910280988853">
        <ele>18.8</ele>
        <time>2019-01-10T15:01:17Z</time>
      </trkpt>
      <trkpt lat="36.742877226354" lon="-3.91002643055">
        <ele>19.8</ele>
        <time>2019-01-10T15:01:23Z</time>
      </trkpt>
      <trkpt lat="36.742860881649" lon="-3.909777991034">
        <ele>20.8</ele>
        <time>2019-01-10T15:01:29Z</time>
      </trkpt>
      <trkpt lat="36.742851493921" lon="-3.90956710243">
        <ele>21.4</ele>
        <time>2019-01-10T15:01:35Z</time>
      </trkpt>
      <trkpt lat="36.742860378735" lon="-3.909349424487">
        <ele>21</ele>
        <time>2019-01-10T15:01:41Z</time>
      </trkpt>
      <trkpt lat="36.742888625738" lon="-3.909120011884">
        <ele>21.6</ele>
        <time>2019-01-10T15:01:47Z</time>
      </trkpt>
      <trkpt lat="36.7429219857" lon="-3.908917924275">
        <ele>22</ele>
        <time>2019-01-10T15:01:52Z</time>
      </trkpt>
      <trkpt lat="36.742981581009" lon="-3.908675603546">
        <ele>22.4</ele>
        <time>2019-01-10T15:01:58Z</time>
      </trkpt>
      <trkpt lat="36.743029106382" lon="-3.908544007716">
        <ele>23.2</ele>
        <time>2019-01-10T15:02:01Z</time>
      </trkpt>
      <trkpt lat="36.743080319791" lon="-3.908359773554">
        <ele>24.2</ele>
        <time>2019-01-10T15:02:05Z</time>
      </trkpt>
      <trkpt lat="36.743092305908" lon="-3.908038830603">
        <ele>24.6</ele>
        <time>2019-01-10T15:02:11Z</time>
      </trkpt>
      <trkpt lat="36.743083588732" lon="-3.907981163131">
        <ele>24.8</ele>
        <time>2019-01-10T15:02:12Z</time>
      </trkpt>
      <trkpt lat="36.743063891267" lon="-3.907862894522">
        <ele>25.4</ele>
        <time>2019-01-10T15:02:14Z</time>
      </trkpt>
      <trkpt lat="36.743059867955" lon="-3.907742865714">
        <ele>25.6</ele>
        <time>2019-01-10T15:02:16Z</time>
      </trkpt>
      <trkpt lat="36.743095658668" lon="-3.907630799711">
        <ele>25.8</ele>
        <time>2019-01-10T15:02:18Z</time>
      </trkpt>
      <trkpt lat="36.743152320312" lon="-3.907540694286">
        <ele>25.8</ele>
        <time>2019-01-10T15:02:20Z</time>
      </trkpt>
      <trkpt lat="36.743359772337" lon="-3.907268282536">
        <ele>26</ele>
        <time>2019-01-10T15:02:26Z</time>
      </trkpt>
      <trkpt lat="36.743476364566" lon="-3.906942058988">
        <ele>26</ele>
        <time>2019-01-10T15:02:32Z</time>
      </trkpt>
      <trkpt lat="36.743524392853" lon="-3.906698732431">
        <ele>26.4</ele>
        <time>2019-01-10T15:02:36Z</time>
      </trkpt>
      <trkpt lat="36.74353721716" lon="-3.90632079256">
        <ele>26.2</ele>
        <time>2019-01-10T15:02:42Z</time>
      </trkpt>
      <trkpt lat="36.743479633507" lon="-3.905914438048">
        <ele>26.8</ele>
        <time>2019-01-10T15:02:48Z</time>
      </trkpt>
      <trkpt lat="36.743443423699" lon="-3.905486961148">
        <ele>26.8</ele>
        <time>2019-01-10T15:02:54Z</time>
      </trkpt>
      <trkpt lat="36.743500085343" lon="-3.90502746539">
        <ele>26.2</ele>
        <time>2019-01-10T15:03:00Z</time>
      </trkpt>
      <trkpt lat="36.743621706712" lon="-3.904641562714">
        <ele>25.2</ele>
        <time>2019-01-10T15:03:05Z</time>
      </trkpt>
      <trkpt lat="36.743834942248" lon="-3.90424543412">
        <ele>24.6</ele>
        <time>2019-01-10T15:03:11Z</time>
      </trkpt>
      <trkpt lat="36.743926724053" lon="-3.904122052552">
        <ele>24.2</ele>
        <time>2019-01-10T15:03:13Z</time>
      </trkpt>
      <trkpt lat="36.744091679845" lon="-3.903903033505">
        <ele>23.6</ele>
        <time>2019-01-10T15:03:17Z</time>
      </trkpt>
      <trkpt lat="36.744126548549" lon="-3.903782166507">
        <ele>23.4</ele>
        <time>2019-01-10T15:03:19Z</time>
      </trkpt>
      <trkpt lat="36.744142138883" lon="-3.903722319741">
        <ele>23.2</ele>
        <time>2019-01-10T15:03:20Z</time>
      </trkpt>
      <trkpt lat="36.744171643171" lon="-3.903669010857">
        <ele>23</ele>
        <time>2019-01-10T15:03:21Z</time>
      </trkpt>
      <trkpt lat="36.74426225151" lon="-3.903622156036">
        <ele>22.2</ele>
        <time>2019-01-10T15:03:23Z</time>
      </trkpt>
      <trkpt lat="36.744309776883" lon="-3.903667418296">
        <ele>21.8</ele>
        <time>2019-01-10T15:03:24Z</time>
      </trkpt>
      <trkpt lat="36.744357972808" lon="-3.903770767123">
        <ele>21.2</ele>
        <time>2019-01-10T15:03:26Z</time>
      </trkpt>
      <trkpt lat="36.74436199612" lon="-3.903915606355">
        <ele>21.2</ele>
        <time>2019-01-10T15:03:29Z</time>
      </trkpt>
      <trkpt lat="36.744409270036" lon="-3.903951397068">
        <ele>21.4</ele>
        <time>2019-01-10T15:03:31Z</time>
      </trkpt>
      <trkpt lat="36.744475067951" lon="-3.903837319409">
        <ele>21.6</ele>
        <time>2019-01-10T15:03:34Z</time>
      </trkpt>
      <trkpt lat="36.74452125222" lon="-3.903697006403">
        <ele>21.6</ele>
        <time>2019-01-10T15:03:36Z</time>
      </trkpt>
      <trkpt lat="36.744674138076" lon="-3.903468180533">
        <ele>20.6</ele>
        <time>2019-01-10T15:03:39Z</time>
      </trkpt>
      <trkpt lat="36.744792155228" lon="-3.903298866153">
        <ele>18.6</ele>
        <time>2019-01-10T15:03:41Z</time>
      </trkpt>
      <trkpt lat="36.744846637578" lon="-3.903209598918">
        <ele>17.6</ele>
        <time>2019-01-10T15:03:42Z</time>
      </trkpt>
      <trkpt lat="36.744898940634" lon="-3.903119661131">
        <ele>16.4</ele>
        <time>2019-01-10T15:03:43Z</time>
      </trkpt>
      <trkpt lat="36.744994494294" lon="-3.9029395341">
        <ele>14.8</ele>
        <time>2019-01-10T15:03:45Z</time>
      </trkpt>
      <trkpt lat="36.745154672403" lon="-3.902436871557">
        <ele>15</ele>
        <time>2019-01-10T15:03:51Z</time>
      </trkpt>
      <trkpt lat="36.745245532199" lon="-3.902014004702">
        <ele>14.6</ele>
        <time>2019-01-10T15:03:57Z</time>
      </trkpt>
      <trkpt lat="36.745349300121" lon="-3.901745197169">
        <ele>14.4</ele>
        <time>2019-01-10T15:04:01Z</time>
      </trkpt>
      <trkpt lat="36.745436052786" lon="-3.90165542702">
        <ele>14.4</ele>
        <time>2019-01-10T15:04:03Z</time>
      </trkpt>
      <trkpt lat="36.745543508744" lon="-3.901604632706">
        <ele>14.6</ele>
        <time>2019-01-10T15:04:05Z</time>
      </trkpt>
      <trkpt lat="36.745656496756" lon="-3.901610667674">
        <ele>14.6</ele>
        <time>2019-01-10T15:04:07Z</time>
      </trkpt>
      <trkpt lat="36.745985737788" lon="-3.901799260424">
        <ele>15</ele>
        <time>2019-01-10T15:04:13Z</time>
      </trkpt>
      <trkpt lat="36.746272650225" lon="-3.902058344953">
        <ele>15.6</ele>
        <time>2019-01-10T15:04:19Z</time>
      </trkpt>
      <trkpt lat="36.746313721535" lon="-3.902101679376">
        <ele>16</ele>
        <time>2019-01-10T15:04:20Z</time>
      </trkpt>
      <trkpt lat="36.746492842738" lon="-3.902308796125">
        <ele>16.8</ele>
        <time>2019-01-10T15:04:25Z</time>
      </trkpt>
      <trkpt lat="36.746554030608" lon="-3.902383227397">
        <ele>17</ele>
        <time>2019-01-10T15:04:27Z</time>
      </trkpt>
      <trkpt lat="36.746608680596" lon="-3.902464615646">
        <ele>17.4</ele>
        <time>2019-01-10T15:04:29Z</time>
      </trkpt>
      <trkpt lat="36.746681603126" lon="-3.902636696053">
        <ele>18.2</ele>
        <time>2019-01-10T15:04:33Z</time>
      </trkpt>
      <trkpt lat="36.746734409096" lon="-3.902914723676">
        <ele>19.4</ele>
        <time>2019-01-10T15:04:39Z</time>
      </trkpt>
      <trkpt lat="36.746796435156" lon="-3.903117733294">
        <ele>20.6</ele>
        <time>2019-01-10T15:04:44Z</time>
      </trkpt>
      <trkpt lat="36.746914536127" lon="-3.903304649664">
        <ele>21.6</ele>
        <time>2019-01-10T15:04:50Z</time>
      </trkpt>
      <trkpt lat="36.747040096989" lon="-3.903473377311">
        <ele>22.6</ele>
        <time>2019-01-10T15:04:56Z</time>
      </trkpt>
      <trkpt lat="36.747057447522" lon="-3.903497684821">
        <ele>22.8</ele>
        <time>2019-01-10T15:04:57Z</time>
      </trkpt>
      <trkpt lat="36.747080833023" lon="-3.903542611805">
        <ele>23.6</ele>
        <time>2019-01-10T15:05:01Z</time>
      </trkpt>
    </trkseg>
  </trk>
</gpx>